[[{"header":{"parameterUnit":"m.s-1","parameterCategory":1,"la1":30.6,"la2":29.2853,"lo1":-89.7004,"lo2":-87.6739,"dy":0.0162,"dx":0.0183,"nx":112,"ny":82,"refTime":"2024-09-11T18:00:00:Z","depth":0,"parameterNumber":2,"parameterNumberName":"U-component_of_WINDS"},"data":[0.0,0.0,0.0,0.0,0.0,0.0,0.0,0.0,0.0,0.0,0.0,0.0,0.0,0.0,0.0,0.0,0.0,0.0,0.0,0.0,0.0,0.0,0.0,0.0,0.0,0.0,0.0,0.0,0.0,0.0,0.0,0.0,0.0,0.0,0.0,0.0,0.0,0.0,0.0,0.0,0.0,0.0,0.0,0.0,0.0,0.0,0.0,0.0,0.0,0.0,0.0,0.0,0.0,0.0,0.0,0.0,0.0,0.0,0.0,0.0,0.0,0.0,0.0,0.0,0.0,0.0,0.0,0.0,0.0,0.0,0.0,0.0,0.0,0.0,0.0,0.0,0.0,0.0,0.0,0.0,0.0,0.0,0.0,0.0,0.0,0.0,0.0,0.0,0.0,0.0,1.3837,1.5869,1.6873,1.7557,1.8001,1.7581,1.5948,1.2872,0.0,0.0,0.0,0.0,0.0,0.0,0.0,0.0,0.0,0.0,0.0,0.0,0.0,0.0,0.0,0.0,0.0,0.0,0.0,0.0,0.0,0.0,0.0,0.0,0.0,0.0,0.0,0.0,0.0,0.0,0.0,0.0,0.0,0.0,0.0,0.0,0.0,0.0,0.0,0.0,0.0,0.0,0.0,0.0,0.0,0.0,0.0,0.0,0.0,0.0,0.0,0.0,0.0,0.0,0.0,0.0,0.0,0.0,0.0,0.0,0.0,0.0,0.0,0.0,0.0,0.0,0.0,0.0,0.0,0.0,0.0,0.0,0.0,0.0,0.0,0.0,0.0,0.0,0.0,0.0,0.0,0.0,0.0,0.0,0.0,0.0,0.0,0.0,0.0,0.0,0.0,0.0,0.0,0.0,0.0,0.0,0.0,0.0,0.0,0.0,0.0,0.0,0.0,0.0,1.3898,1.7438,1.8371,1.8388,1.7521,1.7786,1.6303,1.2272,0.0,0.0,0.0,0.0,0.0,0.0,0.0,0.0,0.0,0.0,0.0,0.0,0.0,0.0,0.0,0.0,0.0,0.0,0.0,0.0,0.0,0.0,0.0,0.0,0.0,0.0,0.0,0.0,0.0,0.0,0.0,0.0,0.0,0.0,0.0,0.0,0.0,0.0,0.0,0.0,0.0,0.0,0.0,0.0,0.0,0.0,0.0,0.0,0.0,0.0,0.0,0.0,0.0,0.0,0.0,0.0,0.0,0.0,0.0,0.0,0.0,0.0,0.0,0.0,0.0,0.0,0.0,0.0,0.0,0.0,0.0,0.0,0.0,0.0,0.0,0.0,0.0,0.0,0.0,0.0,0.0,0.0,0.0,0.0,0.0,0.0,0.0,0.0,0.0,0.0,0.0,0.0,0.0,0.0,0.0,0.0,0.0,0.0,0.0,0.0,0.0,0.0,0.0,1.3948,1.5555,1.7953,1.8585,1.8532,1.7859,1.7677,1.6109,1.2608,1.163,0.0,0.0,0.0,0.0,0.0,0.0,0.0,0.0,0.0,0.0,0.0,0.0,0.0,0.0,0.0,0.0,0.0,0.0,0.0,0.0,0.0,0.0,0.0,0.0,0.0,0.0,0.0,0.0,0.0,0.0,0.0,0.0,0.0,0.0,0.0,0.0,0.0,0.0,0.0,0.0,0.0,0.0,0.0,0.0,0.0,0.0,0.0,0.0,0.0,0.0,0.0,0.0,0.0,0.0,0.0,0.0,0.0,0.0,0.0,0.0,0.0,0.0,0.0,0.0,0.0,0.0,0.0,0.0,0.0,0.0,0.0,0.0,0.0,0.0,0.0,0.0,0.0,0.0,0.0,0.0,0.0,0.0,0.0,0.0,0.0,0.0,0.0,0.0,0.0,0.0,0.0,0.0,0.0,0.0,0.0,0.0,0.0,0.0,0.0,0.0,0.0,0.0,1.5906,1.7237,1.8116,1.8643,1.8673,1.8041,1.7338,1.5641,1.2612,1.1145,0.0,0.0,0.0,0.0,0.0,0.0,0.0,0.0,0.0,0.0,0.0,0.0,0.0,0.0,0.0,0.0,0.0,0.0,0.0,0.0,0.0,0.0,0.0,0.0,0.0,0.0,0.0,0.0,0.0,0.0,0.0,0.0,0.0,0.0,0.0,0.0,0.0,0.0,0.0,0.0,0.0,0.0,0.0,0.0,0.0,0.0,0.0,0.0,0.0,0.0,0.0,0.0,0.0,0.0,0.0,0.0,0.0,0.0,0.0,0.0,0.0,0.0,0.0,0.0,0.0,0.0,0.0,0.0,0.0,0.0,0.0,0.0,0.0,0.0,0.0,0.0,0.0,0.0,0.0,0.0,0.0,0.0,0.0,0.0,0.0,0.0,0.0,0.0,0.0,0.0,0.0,0.0,0.0,0.0,0.0,0.0,0.0,0.0,0.0,0.0,0.0,0.0,1.612,1.8116,1.8191,1.9108,1.9094,1.7521,1.6851,1.5066,1.1529,1.0055,0.0,0.0,0.0,0.0,0.0,0.0,0.0,0.0,0.0,0.0,0.0,0.0,0.0,0.0,0.0,0.0,0.0,0.0,0.0,0.0,0.0,0.0,0.0,0.0,0.0,0.0,0.0,0.0,0.0,0.0,0.0,0.0,0.0,0.0,0.0,0.0,0.0,0.0,0.0,0.0,0.0,0.0,0.0,0.0,0.0,0.0,0.0,0.0,0.0,0.0,0.0,0.0,0.0,0.0,0.0,0.0,0.0,0.0,0.0,0.0,0.0,0.0,0.0,0.0,0.0,0.0,0.0,0.0,0.0,0.0,0.0,0.0,0.0,0.0,0.0,0.0,0.0,0.0,0.0,0.0,0.0,0.0,0.0,0.0,0.0,0.0,0.0,0.0,0.0,0.0,0.0,0.0,0.0,0.0,0.0,0.0,0.0,0.0,0.0,0.0,0.0,0.0,1.553,1.7426,0.0,1.8869,1.8908,1.7955,1.7352,1.5556,1.1997,0.0,0.0,0.0,0.0,0.0,0.0,0.0,0.0,0.0,0.0,0.0,0.0,0.0,0.0,0.0,0.0,0.0,0.0,0.0,0.0,0.0,0.0,0.0,0.0,0.0,0.0,0.0,0.0,0.0,0.0,0.0,0.0,0.0,0.0,0.0,0.0,0.0,0.0,0.0,0.0,0.0,0.0,0.0,0.0,0.0,0.0,0.0,0.0,0.0,0.0,0.0,0.0,0.0,0.0,0.0,0.0,0.0,0.0,0.0,0.0,0.0,0.0,0.0,0.0,0.0,0.0,0.0,0.0,0.0,0.0,0.0,0.0,0.0,0.0,0.0,0.0,0.0,0.0,0.0,0.0,0.0,0.0,0.0,0.0,0.0,0.0,0.0,0.0,0.0,0.0,0.0,0.0,0.0,0.0,0.0,0.0,0.0,0.0,0.0,0.0,0.0,0.0,1.296,1.5316,1.7087,0.0,1.8442,1.8543,1.799,1.7262,1.5492,1.2315,0.0,0.0,0.0,0.0,0.0,0.0,0.0,0.0,0.0,0.0,0.0,0.0,0.0,0.0,0.0,0.0,0.0,0.0,0.0,0.0,0.0,0.0,0.0,0.0,0.0,0.0,0.0,0.0,0.0,0.0,0.0,0.0,0.0,0.0,0.0,0.0,0.0,0.0,0.0,0.0,0.0,0.0,0.0,0.0,0.0,0.0,0.0,0.0,0.0,0.0,0.0,0.0,0.0,0.0,0.0,0.0,0.0,0.0,0.0,0.0,0.0,0.0,0.0,0.0,0.0,0.0,0.0,0.0,0.0,0.0,0.0,0.0,0.0,0.0,0.0,0.0,0.0,0.0,0.0,0.0,0.0,0.0,0.0,0.0,0.0,0.0,0.0,0.0,0.0,0.0,0.0,0.0,0.0,0.0,0.0,0.0,0.0,0.0,0.0,0.0,0.0,0.0,1.306,1.5668,1.7388,1.7388,1.7865,1.7978,1.7438,1.6346,1.4691,0.0,0.0,0.0,0.0,0.0,0.0,0.0,0.0,0.0,0.0,0.0,0.0,0.0,0.0,0.0,0.0,0.0,0.0,0.0,0.0,0.0,0.0,0.0,0.0,0.0,0.0,0.0,0.0,0.0,0.0,0.0,0.0,0.0,0.0,0.0,0.0,0.0,0.0,0.0,0.0,0.0,0.0,0.0,0.0,0.0,0.0,0.0,0.0,0.0,0.0,0.0,0.0,0.0,0.0,0.0,0.0,0.0,0.0,0.0,0.0,0.0,0.0,0.0,0.0,0.0,0.0,0.0,0.0,0.0,0.0,0.0,0.0,0.0,0.0,0.0,0.0,0.0,0.0,0.0,0.0,0.0,0.0,0.0,0.0,0.0,0.0,0.0,0.0,0.0,0.0,0.0,0.0,0.0,0.0,0.0,0.0,0.0,0.0,0.0,0.0,0.0,0.0,0.0,1.306,1.5668,1.7388,1.7388,1.7526,1.7551,1.74,1.6697,1.5045,1.2291,0.0,0.0,0.0,0.0,0.0,0.0,0.0,0.0,0.0,0.0,0.0,0.0,0.0,0.0,0.0,0.0,0.0,0.0,0.0,0.0,0.0,0.0,0.0,0.0,0.0,0.0,0.0,0.0,0.0,0.0,0.0,0.0,0.0,0.0,0.0,0.0,0.0,0.0,0.0,0.0,0.0,0.0,0.0,0.0,0.0,0.0,0.0,0.0,0.0,0.0,0.0,0.0,0.0,0.0,0.0,0.0,0.0,0.0,0.0,0.0,0.0,0.0,0.0,0.0,0.0,0.0,0.0,0.0,0.0,0.0,0.0,0.0,0.0,0.0,0.0,0.0,0.0,0.0,0.0,0.0,0.0,0.0,0.0,0.0,0.0,0.0,0.0,0.0,0.0,0.0,0.0,0.0,0.0,0.0,0.0,0.0,0.0,0.0,0.0,0.0,0.0,0.0,1.306,1.5668,1.73,1.7061,1.725,1.7287,1.7049,1.6722,1.5397,1.2815,0.0,0.0,0.0,0.0,0.0,0.0,0.0,0.0,0.0,0.0,0.0,0.0,0.0,0.0,0.0,0.0,0.0,0.0,0.0,0.0,0.0,0.0,0.0,0.0,0.0,0.0,0.0,0.0,0.0,0.0,0.0,0.0,0.0,0.0,0.0,0.0,0.0,0.0,0.0,0.0,0.0,0.0,0.0,0.0,0.0,0.0,0.0,0.0,0.0,0.0,0.0,0.0,0.0,0.0,0.0,0.0,0.0,0.0,0.0,0.0,0.0,0.0,0.0,0.0,0.0,0.0,0.0,0.0,0.0,0.0,0.0,0.0,0.0,0.0,0.0,0.0,0.0,0.0,0.0,0.0,0.0,0.0,0.0,0.0,0.0,0.0,0.0,0.0,0.0,0.0,0.0,0.0,0.0,0.0,0.0,0.0,0.0,0.0,0.0,0.0,0.0,0.0,1.3198,1.5718,1.72,1.6722,1.7099,1.7162,1.6635,1.6547,1.5653,1.3701,0.0,0.0,0.0,0.0,0.0,0.0,0.0,0.0,0.0,0.0,0.0,0.0,0.0,0.0,0.0,0.0,0.0,0.0,0.0,0.0,0.0,0.0,0.0,0.0,0.0,0.0,0.0,0.0,0.0,0.0,0.0,0.0,0.0,0.0,0.0,0.0,0.0,0.0,0.0,0.0,0.0,0.0,0.0,0.0,0.0,0.0,0.0,0.0,0.0,0.0,0.0,0.0,0.0,0.0,0.0,0.0,0.0,0.0,0.0,0.0,1.5373,0.0,0.0,0.0,0.0,0.0,0.0,0.0,0.0,0.0,0.0,0.0,0.0,0.0,0.0,0.0,0.0,0.0,0.0,0.0,0.0,0.0,0.0,0.0,0.0,0.0,0.0,0.0,0.0,0.0,0.0,0.0,0.0,0.0,0.0,0.0,0.0,0.0,0.0,0.0,0.0,0.0,1.4262,1.6195,1.7501,1.7815,1.7564,1.7338,1.7212,1.6773,1.5815,1.4223,1.3131,0.0,0.0,0.0,0.0,0.0,0.0,0.0,0.0,0.0,0.0,0.0,0.0,0.0,0.0,0.0,0.0,0.0,0.0,0.0,0.0,0.0,0.0,0.0,0.0,0.0,0.0,0.0,0.0,0.0,0.0,0.0,0.0,0.0,0.0,0.0,0.0,0.0,0.0,0.0,0.0,0.0,0.0,0.0,0.0,0.0,0.0,0.0,0.0,0.0,0.0,0.0,0.0,0.0,0.0,0.0,0.0,0.0,0.0,0.0,0.0,1.6987,0.0,0.0,0.0,0.0,0.0,0.0,0.0,0.0,0.0,0.0,0.0,0.0,0.0,0.0,0.0,0.0,0.0,0.0,0.0,0.0,0.0,0.0,0.0,0.0,0.0,0.0,0.0,0.0,0.0,0.0,0.0,0.0,0.0,0.0,0.0,0.0,0.0,0.0,0.0,0.0,1.4664,1.6572,1.789,1.8179,1.8191,1.7953,1.7426,1.7099,1.6361,1.5076,1.3713,0.0,0.0,0.0,0.0,0.0,0.0,0.0,0.0,0.0,0.0,0.0,0.0,0.0,0.0,0.0,0.0,0.0,0.0,0.0,0.0,0.0,0.0,0.0,0.0,0.0,0.0,0.0,0.0,0.0,0.0,0.0,0.0,0.0,0.0,0.0,0.0,0.0,0.0,0.0,0.0,0.0,0.0,0.0,0.0,0.0,0.0,0.0,0.0,0.0,0.0,0.0,0.0,0.0,2.2955,2.4027,2.5057,2.4142,2.4561,2.5786,2.1515,2.059,2.186,1.8537,0.0,0.0,0.0,0.0,0.0,0.0,0.0,0.0,0.0,0.0,0.0,0.0,0.0,0.0,0.0,0.0,0.0,0.0,0.0,0.0,0.0,0.0,0.0,0.0,1.9169,1.9461,1.6059,0.0,0.0,0.0,0.0,0.0,0.0,0.0,0.0,0.0,0.0,0.0,1.513,1.7087,1.838,1.848,1.8807,1.8656,1.7739,1.7488,1.6929,1.5907,1.4285,1.2996,0.0,0.0,0.0,0.0,0.0,0.0,0.0,0.0,0.0,0.0,0.0,0.0,0.0,0.0,0.0,0.0,0.0,0.0,0.0,0.0,0.0,0.0,0.0,0.0,0.0,0.0,0.0,0.0,0.0,0.0,0.0,0.0,1.5187,1.5998,0.0,0.0,0.0,0.0,0.0,0.0,0.0,0.0,0.0,0.0,0.0,0.0,0.0,2.1342,2.2873,2.5342,2.6542,2.6454,2.7978,2.8706,2.8706,2.8338,2.8292,2.848,2.7816,0.0,2.4378,2.226,0.0,0.0,0.0,0.0,0.0,0.0,0.0,0.0,0.0,0.0,0.0,0.0,0.0,0.0,0.0,0.0,0.0,0.0,0.0,0.0,0.0,0.0,2.1171,2.1132,2.1287,2.1332,0.0,1.8069,1.546,1.4594,1.3671,0.0,0.0,0.0,0.0,0.0,0.0,0.0,1.6773,1.8141,1.9095,1.9547,1.9258,1.892,1.8819,1.794,1.7107,1.6365,1.5207,1.4086,1.2978,1.1612,0.0,0.0,0.0,0.0,0.0,0.0,0.0,0.0,0.0,0.0,0.0,0.0,0.0,0.0,0.0,0.0,0.0,0.0,0.0,0.0,0.0,0.0,0.0,0.0,0.0,0.0,0.0,0.0,0.0,1.5493,1.7123,1.7965,1.7728,1.7089,0.0,0.0,0.0,0.0,0.0,0.0,0.0,0.0,0.0,2.4485,2.5206,2.6166,2.7445,2.9084,2.9767,2.9559,3.0612,3.0979,3.074,3.0466,3.0356,3.0356,3.0356,2.9685,2.8359,2.5356,2.364,2.2695,0.0,0.0,0.0,0.0,1.9888,2.0863,2.1561,2.1408,2.0808,2.0147,0.0,0.0,0.0,0.0,0.0,0.0,0.0,1.9522,0.0,0.0,2.334,2.334,2.329,2.3272,2.3272,2.1614,1.9595,0.0,1.7229,1.6268,1.3482,0.0,0.0,0.0,0.0,1.5668,1.7601,1.853,1.9233,1.9748,1.9597,1.9346,1.9008,1.8581,1.778,1.6501,1.5625,1.4664,1.3521,1.2307,1.1253,0.0,0.0,0.0,0.0,0.0,0.0,0.0,0.0,0.0,0.0,0.0,0.0,0.0,0.0,0.0,0.0,0.0,0.0,0.0,0.0,0.0,0.0,0.0,0.0,0.0,0.0,0.0,0.0,1.7574,1.9317,2.0408,2.0538,1.9993,0.0,0.0,0.0,0.0,0.0,0.0,2.3294,2.5422,2.7334,2.8961,2.9416,3.0113,3.109,3.1929,3.2231,3.2048,3.2646,3.2807,3.2524,3.2247,3.209,3.2008,3.2008,3.1957,3.1597,2.7986,2.6348,2.5908,2.3725,2.2717,2.2508,2.2995,2.3576,2.4213,2.5125,2.4847,2.3958,2.3403,2.2093,2.0528,1.9735,0.0,0.0,0.0,0.0,2.1949,2.2921,2.3881,2.4576,2.4576,2.4538,2.4482,2.4482,2.4109,2.3037,0.0,2.0331,1.9469,1.6054,0.0,0.0,0.0,0.0,1.6835,1.8242,1.8894,1.9371,1.9761,1.9798,1.9648,1.9258,1.9058,1.8363,1.692,1.6005,1.503,1.4053,1.2977,1.2031,1.126,0.0,0.0,0.0,0.0,0.0,0.0,0.0,0.0,0.0,0.0,0.0,0.0,0.0,0.0,0.0,0.0,0.0,0.0,0.0,0.0,0.0,0.0,0.0,0.0,0.0,0.0,0.0,0.0,0.0,2.3945,2.4146,0.0,0.0,0.0,0.0,2.3784,2.557,2.6929,2.7733,2.9455,3.0826,3.1688,3.1679,3.2077,3.2961,3.3699,3.4064,3.4051,3.4671,3.4812,3.4542,3.4203,3.3914,3.3678,3.3678,3.3451,3.2907,3.0083,2.8912,2.8706,2.6674,2.5886,2.5851,2.5884,2.5999,2.6134,2.615,2.5784,2.533,2.5425,2.4492,2.3505,2.4103,2.3415,0.0,0.0,2.3909,2.4403,2.4462,2.4491,2.4523,2.4523,2.4503,2.4482,2.4482,2.4453,2.4023,0.0,2.1958,2.1041,1.9169,0.0,1.7835,1.7301,1.7702,1.8304,1.8907,1.9447,1.9773,1.9798,1.9798,1.9798,1.9761,1.9309,1.8734,1.8046,1.6446,1.5233,1.4567,1.3488,1.2627,1.2122,1.0879,0.0,0.0,0.0,0.0,0.0,0.0,0.0,0.0,0.0,0.0,0.0,0.0,0.0,0.0,0.0,0.0,0.0,0.0,0.0,0.0,0.0,0.0,0.0,0.0,0.0,0.0,0.0,0.0,2.6582,2.6884,0.0,2.6791,2.6774,2.7023,2.7601,2.9305,3.0445,3.0717,3.2316,3.3339,3.3637,3.4035,3.4392,3.4705,3.493,3.5045,3.5045,3.507,3.4963,3.4694,3.4357,3.4068,3.3807,3.3522,3.3332,3.3082,3.15,3.0538,2.9981,2.8541,2.7984,2.7984,2.7984,2.8289,2.8622,2.7824,2.7429,2.7154,2.597,2.5285,2.4941,2.5181,2.4941,2.4702,2.5345,2.5704,2.5989,2.6408,2.6167,2.5922,2.6379,2.5426,2.4518,2.495,2.4681,2.4109,2.3189,2.2908,2.2242,2.0482,2.0319,2.0077,1.9081,1.9422,1.9987,2.0539,2.0464,2.0351,2.0351,2.0024,1.9798,1.9798,1.9199,1.8283,1.7062,1.5947,1.4789,1.3549,1.3096,1.2812,1.2646,1.1631,1.0547,0.0,0.0,0.0,0.0,0.0,0.0,0.0,0.0,0.0,0.0,0.0,0.0,0.0,0.0,0.0,0.0,0.0,0.0,0.0,0.0,0.0,0.0,0.0,0.0,0.0,0.0,2.6445,2.8437,2.9238,2.9588,2.9491,3.0094,3.0579,3.0794,3.2194,3.3047,3.3047,3.4609,3.5508,3.5508,3.6185,3.6528,3.6507,3.643,3.6392,3.6353,3.6163,3.5944,3.5665,3.5318,3.5038,3.4766,3.4381,3.4039,3.3691,3.3055,3.2366,3.1499,3.0224,2.9606,2.9453,2.9705,2.9686,2.9419,2.8392,2.8075,2.7921,2.668,2.6273,2.6273,2.6273,2.6273,2.6363,2.6797,2.6768,2.6657,2.7136,2.6496,2.5892,2.6361,2.5384,2.4452,2.4894,2.4624,2.4173,2.3708,2.354,2.2975,2.1599,2.1446,2.1313,2.0479,2.069,2.1079,2.1443,2.1167,2.0941,2.0941,2.0439,2.0087,2.0087,1.9101,1.8128,1.7302,1.6048,1.4839,1.382,1.3415,1.3104,1.2881,1.2057,1.1038,0.9844,0.0,0.0,0.0,0.0,0.0,0.0,0.0,0.0,0.0,0.0,0.0,0.0,0.0,0.0,0.0,0.0,0.0,0.0,0.0,0.0,0.0,0.0,0.0,2.3473,2.6289,2.875,2.9648,3.125,3.2285,3.2304,3.2344,3.2676,3.3457,3.4336,3.4824,3.4824,3.6426,3.7344,3.7344,3.8027,3.8361,3.8315,3.8229,3.8137,3.8007,3.8007,3.7859,3.7583,3.7256,3.6953,3.6677,3.6417,3.5724,3.4783,3.4801,3.4248,3.3271,3.1816,3.0905,3.0441,3.1063,3.0138,2.8477,2.7871,2.7685,2.7685,2.7685,2.7685,2.7685,2.7685,2.7634,2.7619,2.7619,2.7093,2.6515,2.6515,2.5453,2.4332,2.4376,2.4319,2.4305,2.4292,2.4292,2.4292,2.4292,2.3817,2.3181,2.252,2.1963,2.1543,2.1543,2.1543,0.0,2.1543,2.1531,2.1506,2.1506,2.1016,2.0677,2.0665,1.9068,1.8295,1.8846,1.6725,1.5437,1.5437,1.4365,1.3525,1.2949,1.2067,1.1194,1.0322,0.0,0.0,0.0,0.0,0.0,0.0,0.0,0.0,0.0,0.0,0.0,0.0,0.0,0.0,0.0,0.0,0.0,0.0,0.0,0.0,0.0,2.5867,2.7837,2.7657,2.9523,3.1496,3.3046,3.3652,3.4198,3.4817,3.5502,3.5976,3.6133,3.7012,3.7539,3.7539,3.7988,3.8242,3.8242,3.834,3.8394,3.8374,3.8252,3.818,3.8127,3.8046,3.7859,3.7583,3.7256,3.6953,3.6677,3.6069,3.5415,3.4801,3.4491,3.399,3.3313,3.2407,3.1979,3.1802,3.148,3.0766,2.9933,2.973,2.9401,2.9026,2.9026,2.9026,2.9026,2.9026,2.8621,2.81,2.81,2.7499,2.6842,2.6842,2.614,2.5521,2.5639,2.4853,2.4115,2.4268,2.3826,2.3424,2.3424,2.3297,2.3132,2.2921,2.2791,2.2686,2.2686,2.2686,0.0,2.2686,2.2334,2.2083,2.2083,2.1047,2.0222,1.9903,1.8077,1.6753,1.6287,1.4837,1.4043,1.4043,1.3771,1.3521,1.334,1.2214,1.1489,0.0,0.0,0.0,0.0,0.0,0.0,0.0,0.0,0.0,0.0,0.0,0.0,0.0,0.0,0.0,0.0,0.0,0.0,0.0,0.0,0.0,0.0,2.8849,3.0948,3.1304,3.23,3.3372,3.4438,3.5178,3.5791,3.6306,3.7175,3.7692,3.7663,3.8199,3.8516,3.8516,3.8926,3.9141,3.9141,3.9414,3.9551,3.9492,3.9402,3.9342,3.9296,3.9181,3.9058,3.887,3.8378,3.8056,3.7885,3.7195,3.6489,3.5792,3.5568,3.5019,0.0,0.0,0.0,0.0,0.0,3.0556,3.0472,3.0197,2.9872,2.9579,2.9579,2.9579,2.9579,2.9579,2.9222,2.8749,2.8382,2.7722,2.6987,2.6613,2.5968,2.5493,2.5585,2.4931,2.4318,2.421,2.3793,2.3427,2.3175,2.3078,0.0,2.3078,2.3078,2.3078,2.3078,2.3078,2.3078,2.3078,2.2862,2.2661,2.2661,2.1728,2.0888,2.0421,1.8328,0.0,0.0,0.0,1.4613,1.4613,1.4071,0.0,0.0,0.0,0.0,0.0,0.0,0.0,0.0,1.2363,1.252,0.0,0.0,0.0,0.0,0.0,0.0,0.0,0.0,0.0,0.0,0.0,0.0,0.0,0.0,0.0,0.0,3.17,3.3526,3.4487,3.4782,3.4864,3.4773,3.6151,3.7111,3.7111,3.7919,3.844,3.8432,3.858,3.8666,3.8669,0.0,0.0,0.0,0.0,4.1133,4.1016,4.1016,4.094,4.0828,4.0752,4.0693,4.0614,3.992,3.9576,3.9505,3.896,3.8135,3.719,3.719,3.6563,3.5442,3.4081,3.2727,3.1482,3.0334,3.0203,3.0537,2.9998,0.0,0.0,2.9804,2.9734,2.968,2.968,2.9555,2.9192,2.8426,2.7698,2.6918,2.6166,2.5461,2.4996,2.4921,2.4908,2.4757,2.4217,2.4092,2.3916,2.3339,2.3226,2.3153,2.3017,2.3017,2.3078,2.3078,2.3005,2.2944,2.2944,2.2884,2.2811,2.2811,2.2318,0.0,2.121,1.903,1.7709,1.7728,1.6706,1.6067,1.6063,1.4869,1.4223,1.4223,1.4223,1.4492,1.4932,1.5303,1.5508,1.5527,1.4014,1.3896,0.0,0.0,0.0,0.0,0.0,0.0,0.0,0.0,0.0,0.0,0.0,0.0,0.0,0.0,0.0,3.2894,3.4274,3.5526,3.7046,3.7296,3.7089,3.6512,3.7294,3.7893,3.7899,3.8768,3.9307,3.9199,3.9902,4.0352,4.0338,4.0611,4.0781,4.0781,4.1055,4.1191,4.1152,4.1055,4.0994,4.0952,0.0,0.0,4.0271,3.981,3.9438,3.9178,3.8844,3.8135,3.719,3.719,3.6563,3.5543,3.4688,3.3582,3.2344,3.2091,3.1703,3.1315,3.1195,3.115,3.115,3.115,3.0718,3.0147,3.0147,2.9153,0.0,2.7833,2.7275,2.6585,2.6451,2.6274,2.6025,2.5548,2.5448,2.531,2.477,2.4669,2.4494,2.3941,2.3841,2.3492,2.2333,2.2689,2.3078,2.3078,2.2567,2.2137,2.2137,2.1553,2.1101,2.1101,2.0373,1.9672,1.9182,1.7791,1.6759,1.6463,1.5901,1.5395,1.5099,1.515,1.5166,1.5166,1.5166,1.5381,1.587,1.5958,1.6123,1.6465,1.6143,1.5928,0.0,0.0,0.0,0.0,0.0,0.0,0.0,0.0,0.0,0.0,0.0,2.795,2.9639,0.0,3.3585,3.524,3.619,3.7046,3.7873,3.8373,3.8354,3.7565,3.818,3.8715,3.87,3.9527,4.0027,3.9965,4.0446,4.0747,4.075,4.0858,4.092,4.0996,4.1055,4.1133,4.1191,4.1133,4.1077,4.0996,4.0818,4.0648,4.0442,3.9854,3.9529,3.9333,3.8902,3.8135,3.7152,3.6626,3.589,3.5052,3.4736,3.3987,3.3039,3.2327,3.1796,3.1409,3.1029,3.0896,3.0837,3.0389,2.995,2.9628,2.9628,2.9066,2.8247,2.7802,2.7417,2.704,2.6589,2.6533,2.6389,2.6101,2.6025,2.5875,2.5322,2.4801,2.431,2.3762,2.3652,2.3341,2.2353,2.2972,2.3145,2.2025,2.1491,2.1239,2.1239,2.0846,2.059,2.059,2.0204,1.9749,1.9198,1.7999,1.7163,1.6931,1.6365,1.6147,1.6264,1.6128,1.6074,1.6074,1.6074,1.6289,1.6719,1.6719,1.7061,1.7619,1.7619,1.7451,0.0,0.0,0.0,0.0,0.0,0.0,0.0,0.0,2.6351,2.8256,3.0325,3.2202,3.3506,3.5014,3.6315,3.707,3.7796,3.8281,3.8389,3.9004,3.9161,3.8402,3.9039,3.9512,3.9461,4.0041,4.0406,4.0406,4.0518,4.0611,4.0658,4.0735,4.082,4.0948,4.0974,4.1034,4.1126,4.1155,4.1101,4.0996,4.0848,4.0732,4.0623,3.9982,3.9622,3.9462,3.873,3.7948,3.7114,3.6054,3.5207,3.4576,3.4431,3.3987,3.3287,3.216,3.1509,3.1161,3.0524,3.0208,2.995,2.9254,2.8876,2.8748,2.8748,2.862,2.8363,2.767,2.7484,2.7284,2.6658,2.6533,2.6533,2.6533,2.6383,2.6052,2.558,2.4719,2.3931,2.3538,2.3297,2.2998,2.2472,2.3063,2.3062,2.1319,2.0782,2.059,2.059,2.0333,2.0074,2.0074,2.0074,1.991,1.938,1.8449,1.778,1.776,1.7153,1.706,1.7564,1.7113,1.6728,1.6517,1.6603,1.6879,1.7225,1.7312,1.7765,1.8562,1.8721,1.8434,2.246,2.2577,2.3085,2.541,2.5566,2.6523,0.0,0.0,3.1859,3.4374,3.5552,3.6152,3.6334,3.7113,3.8007,3.8873,3.9084,3.933,3.9814,3.9948,3.9871,3.947,3.9984,4.0271,4.0024,4.0082,4.0139,4.0139,4.0158,4.0269,4.0508,4.0639,4.0723,4.0717,4.0916,4.0943,4.085,4.0947,4.1002,4.1008,4.0793,4.0606,4.0431,4.0176,3.9731,3.908,3.7907,3.7285,3.7114,3.6054,3.5207,3.4528,3.3937,3.3287,3.2695,3.2532,3.1622,3.0389,3.0329,2.9766,2.9129,2.9002,2.8492,2.7855,2.7855,2.7351,2.6782,2.6658,2.6658,2.6589,2.6521,2.6533,2.6533,2.6533,2.5804,2.5134,2.5075,2.4255,2.3663,2.4024,2.3352,2.261,2.2115,2.2162,2.2391,2.2776,2.1542,2.059,2.059,1.9243,1.8269,1.8269,1.8269,1.825,1.82,1.8083,1.7829,1.7455,1.737,1.7203,1.6865,1.7164,1.6882,1.6042,1.6387,1.6665,1.6711,1.7015,1.7679,1.8582,1.9033,1.867,2.5781,2.6523,2.7266,0.0,2.9726,3.0976,3.4004,3.4411,3.4608,3.6223,3.7448,3.8262,3.8262,3.8911,3.9565,0.0,3.9874,3.9831,4.0082,3.9922,3.9564,3.8961,3.9537,3.9944,3.9819,3.9797,3.9797,3.9797,3.9797,3.9943,4.025,4.0325,4.0454,4.0696,4.1269,4.1567,4.1563,4.2124,4.2399,4.2382,4.1752,4.1419,4.1309,4.048,3.9996,3.9742,3.8906,3.8536,3.8457,3.7391,3.6255,3.5234,3.492,3.3889,3.2482,3.2103,3.1233,3.0208,2.969,2.9002,2.8182,2.767,2.7284,2.6973,2.6973,2.6782,2.6533,2.6533,2.6533,2.6383,2.5804,2.5664,2.5511,2.4909,2.485,2.5004,2.5004,2.4192,2.3531,2.3761,2.3428,2.2983,2.2481,2.2902,2.3288,2.3212,2.2236,2.1407,2.1115,2.0423,1.966,1.8808,1.7823,1.7217,1.7217,1.6655,1.6513,1.6906,1.6964,1.7101,1.7414,1.7656,1.7649,1.7449,1.7688,1.7614,1.727,1.7442,1.7492,1.7473,1.7716,1.7372,2.7969,2.9297,0.0,3.168,3.3223,3.4766,3.5879,3.6477,3.7017,3.7868,3.8881,3.9623,3.9623,4.0104,4.0473,4.0389,4.0213,4.0041,3.984,3.9415,3.8893,3.8214,3.8683,3.9015,3.9015,3.9301,3.9462,3.9462,3.9664,3.9939,4.0283,4.0513,4.0766,4.1053,4.1701,4.2117,4.2214,4.2868,4.3245,4.3334,4.2655,4.2329,4.2293,4.1168,4.0688,4.0737,3.9896,3.9492,3.9411,3.8116,3.6851,3.5694,3.5474,3.4291,3.2661,3.1931,3.1085,3.0208,2.9317,2.8427,2.7537,2.6782,2.6533,2.6533,2.6533,2.6533,2.6452,2.6164,2.6094,2.5955,2.5229,2.4791,2.448,2.4036,2.4047,2.4192,2.4192,2.3588,2.3073,2.3073,2.3073,2.2963,2.2539,2.3131,2.3442,2.2994,2.2729,2.2237,2.1272,2.0981,2.0454,1.939,1.7987,1.7158,1.7158,1.6421,1.6202,1.6659,1.6738,1.6933,1.7413,1.7483,1.7472,1.7479,1.7479,1.7405,1.7318,1.7121,1.7073,1.7172,1.6959,1.6428,2.8281,0.0,3.2519,3.418,3.5898,3.7637,3.9355,3.9603,3.9713,4.0521,4.0581,4.045,4.045,4.0469,4.0406,4.0158,4.0101,3.988,3.9212,3.8436,3.7838,3.7548,3.7555,3.7573,3.7573,3.8507,3.9125,3.9125,3.9844,4.0427,4.0758,4.1512,4.1946,4.197,4.2113,4.2286,4.2485,4.2626,4.2868,4.3214,4.3179,4.3157,4.3136,4.2393,4.2033,4.1952,4.0239,3.9492,3.9353,3.7477,3.6336,3.5639,3.4841,3.4132,3.3332,3.2431,3.132,3.0208,2.9317,2.8427,2.7537,2.6782,2.6533,2.6533,2.6533,2.6533,2.6314,2.53,2.5087,2.5004,2.5004,2.4264,2.3818,2.4707,2.3514,2.2103,2.2103,2.2027,2.2027,2.2027,2.2027,2.2027,2.2006,2.2081,2.2081,2.206,2.2881,2.2761,2.0839,1.9899,1.933,1.9321,1.8867,1.8543,1.8543,1.8173,1.7612,1.6991,1.7018,1.6732,1.6103,1.6043,1.5671,1.4709,1.4709,1.5234,1.622,1.5662,1.6387,1.8217,1.7553,1.6675,3.1074,0.0,3.4414,3.6719,3.8164,3.9307,4.039,4.0578,4.0404,3.9959,3.9388,3.8772,3.8104,3.7988,3.8066,3.8345,3.8686,3.8958,3.9085,3.8692,3.8195,3.7562,3.7955,3.8083,3.7562,3.8295,0.0,3.8844,3.9582,4.0155,4.0464,4.1268,4.1825,4.1977,4.261,4.308,4.3359,4.3986,4.4515,4.493,4.4348,4.3758,4.3202,4.3216,4.3114,4.2843,4.1827,4.1217,4.093,3.9518,3.8216,3.7045,3.6816,3.567,3.4143,3.3799,3.2767,3.1254,2.9792,2.8677,2.7882,2.7258,2.7005,2.6929,2.6634,2.6025,2.5581,2.5873,2.5511,2.5004,2.5004,2.4264,2.3452,2.3073,2.2999,2.2999,2.2999,2.2999,2.2999,2.2999,2.2478,2.2027,2.2027,2.2027,2.1811,2.1155,2.2147,2.2695,2.2089,2.0934,1.9889,1.9219,1.7181,1.5597,1.4858,1.3369,1.2652,1.3131,1.4524,1.52,1.4858,1.6287,1.6742,1.6046,1.5975,1.5929,1.5844,1.5642,1.5539,1.5472,1.526,1.4545,3.3105,3.4726,3.6172,3.8496,3.9686,4.0422,4.0956,4.0731,4.0163,3.9207,3.8054,3.7041,3.6392,3.5965,3.609,3.7315,3.7629,3.804,3.8958,3.8625,3.8193,3.7955,3.8186,3.8291,0.0,0.0,0.0,3.8713,3.9974,4.0725,4.06,4.1656,4.237,4.252,4.3071,4.353,4.3875,4.4564,4.5216,4.5776,4.5221,4.4679,4.4124,4.4135,4.3999,4.3691,4.2595,4.2002,4.1664,4.0251,3.9102,3.8133,3.7557,3.6321,3.4663,3.4032,3.2949,3.1582,3.0336,2.9324,2.8456,2.7826,2.7444,2.7218,2.6866,2.6173,2.5594,2.5873,2.5511,2.4933,2.4564,2.3745,2.2925,2.2627,2.2776,2.2925,2.2925,2.322,2.3294,2.2638,2.2178,2.2027,2.2027,2.2328,2.2328,2.1745,2.1765,2.1923,2.1965,2.0821,1.9752,1.9051,1.6741,1.497,1.4288,1.2441,1.1547,1.195,1.368,1.4209,1.3052,1.596,1.681,1.5168,1.5924,1.6121,1.5696,1.5296,1.4977,1.465,1.425,1.3704,3.4413,3.6132,3.7812,3.9511,4.047,4.1003,4.1091,4.019,3.9116,3.8272,3.6619,3.5276,3.5199,0.0,3.453,3.6899,3.6968,3.7254,3.8904,3.8245,3.7869,0.0,0.0,0.0,0.0,0.0,0.0,3.8752,0.0,4.1922,4.117,4.2601,4.3444,4.3444,4.3444,4.3627,4.4016,4.4419,4.5023,4.5776,4.5784,4.5794,4.5787,4.5087,4.4692,4.4508,4.2666,4.1817,4.1664,3.9682,3.8854,3.8674,3.7188,3.6043,3.5011,3.3323,3.2105,3.1229,3.0952,3.0227,2.9274,2.8426,2.7795,2.7369,2.7331,2.6954,2.632,2.5384,2.5076,2.4814,2.3925,2.2947,2.2403,2.3368,2.2776,2.2103,2.2103,2.2776,2.2861,2.1011,2.1375,2.2027,2.2027,2.2776,2.3441,2.3368,2.1673,2.0459,2.0547,1.9599,1.8877,1.8877,1.7488,1.6553,1.6482,1.5023,1.3787,1.314,1.4174,1.3559,1.0595,1.4726,1.5493,1.2237,1.435,1.5448,1.5448,1.4482,1.4566,1.553,1.4573,1.4242,3.6792,3.8227,3.9265,4.0304,4.0704,4.0674,4.0001,3.9209,3.7955,3.5715,3.3905,3.2324,3.0979,3.1407,0.0,3.4111,3.5693,0.0,3.9405,3.9071,0.0,3.9731,0.0,3.9079,3.9274,3.9899,0.0,0.0,4.0726,4.1542,4.1343,4.234,4.2902,4.2902,4.2902,4.3248,4.3998,4.4638,4.5123,4.543,4.5687,4.5794,4.5793,4.5607,4.5197,4.4535,4.3118,4.2255,4.1664,3.9682,3.858,3.7962,3.6964,3.6134,3.5285,3.4081,3.3031,3.2123,3.1334,3.0464,2.9568,2.8925,2.8624,2.8436,2.8021,2.7249,2.6675,2.7151,2.6469,2.5708,2.6165,2.5278,2.4264,2.4564,2.3818,2.3147,2.3147,2.2702,2.2253,2.1735,2.1811,2.2027,2.2027,2.2178,2.2188,2.1451,2.0914,2.0518,2.0469,1.8833,1.7415,1.6593,1.542,1.4365,1.3464,1.2302,1.1117,1.0086,1.182,1.1843,0.9401,1.2008,1.2681,1.1037,1.1632,1.1884,1.1884,1.2498,1.293,1.3171,1.3808,1.3801,3.8411,3.9502,4.0242,4.0688,4.0486,3.9851,3.8639,3.7398,3.565,3.2659,3.0995,2.9528,2.7681,2.8817,3.0517,0.0,0.0,0.0,3.9217,3.9225,3.9446,0.0,4.001,0.0,4.0026,4.0262,4.0304,0.0,4.1014,4.1443,4.1064,4.1855,4.2302,4.2302,4.2577,4.3123,4.3998,4.4409,4.482,4.5208,4.5465,4.565,4.5798,4.5647,4.5318,4.4855,4.3553,4.2614,4.1902,4.0422,3.9423,3.8723,3.7557,3.6353,3.5121,3.3833,3.2536,3.1267,3.0771,3.0203,2.9741,2.9415,2.9139,2.8875,2.8561,2.7903,2.7385,2.795,2.7482,2.6858,2.6944,2.6166,2.5385,2.5623,2.4749,2.3839,2.3839,2.3015,2.2279,2.2069,2.2328,2.2776,2.322,2.3294,2.3147,2.2638,2.1344,2.0488,2.0439,1.8982,1.7819,1.7245,1.5749,1.4504,1.384,1.2316,1.1037,1.0438,1.202,1.2014,0.9749,1.2251,1.2753,1.0605,1.1101,1.1096,1.0611,1.1209,1.1607,1.1625,1.2948,1.333,3.9504,4.0239,4.0754,4.0754,3.9985,3.8787,3.718,3.5194,3.2788,2.9571,0.0,2.6856,2.5199,2.662,2.8686,3.0619,0.0,3.5671,3.8544,3.8911,3.9444,4.0987,4.0332,4.0026,4.0728,4.0368,4.0286,4.0733,4.1268,4.1296,4.0669,4.1311,4.1664,4.1664,4.2262,4.2923,4.3712,4.3825,4.4205,4.4839,4.5112,4.5399,4.5703,4.543,4.5297,4.5201,4.3905,4.3002,4.2352,4.1358,4.0603,3.9919,3.8342,3.6701,3.4916,3.3184,3.1549,3.0152,2.9869,2.9792,2.9792,2.9792,2.9453,2.9038,2.9038,2.8712,2.8335,2.8335,2.8273,2.7977,2.7097,2.6538,2.6188,2.6719,2.5506,2.429,2.4355,2.3536,2.2594,2.2273,2.2999,2.3891,2.448,2.4791,2.4933,2.4636,2.2339,2.0661,2.0814,1.9621,1.8798,1.8798,1.709,1.5944,1.5944,1.4008,1.2662,1.2571,1.3315,1.2808,1.0697,1.3348,1.351,1.0438,1.1332,1.1246,1.0178,1.0294,1.0489,1.0592,1.1949,1.275,4.0269,4.0543,4.0562,4.0562,3.9392,3.7796,3.6136,3.3314,0.0,0.0,2.5627,2.4354,2.3872,2.5102,2.714,3.0104,3.1948,3.421,3.7635,3.8222,3.8788,0.0,4.0057,4.0068,4.0237,4.0171,0.0,0.0,4.0336,4.0542,4.085,4.0972,4.1041,4.1041,4.1621,4.2044,4.2172,4.2941,4.3406,4.3532,4.4411,4.4939,4.5231,4.5331,4.5284,4.5109,4.4479,0.0,4.2957,4.168,4.0648,3.9682,3.8147,3.703,3.6012,3.3531,3.2393,3.1901,3.0355,2.9792,2.9792,2.9792,2.9729,2.9641,2.9641,2.9578,2.9503,2.9503,2.9151,2.87,2.855,2.8126,2.774,2.784,2.6316,2.487,2.487,2.3697,2.2825,2.3161,2.4036,2.4264,2.2776,2.3891,2.442,2.2776,2.2092,2.2006,2.2829,1.9818,1.7577,1.7577,1.7253,1.7009,1.7009,1.5854,1.4678,1.373,1.299,1.1975,1.0697,1.1198,1.0763,0.9235,0.9401,0.8873,0.7749,0.8856,0.9387,0.9427,1.0763,1.1533,4.0369,4.0562,4.0489,4.0489,3.8892,3.6743,3.4506,0.0,0.0,0.0,2.36,2.2697,2.1655,2.3795,0.0,2.7058,2.9415,3.2237,3.5566,3.6413,0.0,3.9562,3.9956,4.007,0.0,4.007,4.007,4.007,4.007,4.0204,4.0449,4.0497,4.0625,4.0903,4.1178,4.149,4.181,4.2567,4.3032,4.322,4.3949,4.464,4.5206,4.5221,4.5343,4.5488,4.4989,4.4423,4.3755,4.2875,4.1783,4.055,3.9429,3.8172,3.6776,3.4161,3.2905,3.2198,3.0393,2.9792,2.9792,2.9792,2.9792,2.9792,2.9792,2.9792,2.9792,2.9792,2.9591,2.9377,2.9377,2.8548,2.7724,2.8005,2.6757,2.5227,2.4658,2.3812,2.3253,2.3846,2.4954,2.5313,2.3829,2.5049,2.5656,2.4186,2.3301,2.3086,2.3798,2.1959,2.0507,2.0507,1.9584,1.8179,1.6428,1.4771,1.3651,1.3136,1.1997,1.1412,1.1464,1.0297,0.9506,0.9084,0.786,0.7552,0.8355,0.8356,0.8347,0.843,0.9818,1.0527,3.9992,4.0323,4.0403,4.0277,3.8334,3.5715,3.2981,2.9606,0.0,0.0,2.1958,2.1336,2.0034,0.0,2.456,0.0,2.7023,3.0161,3.3414,3.4745,3.6388,0.0,3.9839,0.0,4.007,3.9952,0.0,3.9833,3.9679,3.9679,3.9833,4.002,4.012,4.0231,4.0394,4.0681,4.1171,4.1757,4.2297,4.2704,4.3275,4.3998,4.4852,4.4843,4.516,4.5709,4.5391,4.5008,4.4581,4.4208,4.3267,4.1929,4.1114,3.9699,3.7792,3.546,3.3743,3.2386,3.0904,3.0126,2.9792,2.9792,2.9792,2.9792,2.9792,2.9792,2.9792,2.9792,2.9792,2.9792,2.9792,2.8631,2.7506,2.7669,2.6978,2.5936,2.4783,2.4379,2.4366,2.4424,2.5779,2.6461,2.5217,2.6414,2.7109,2.6105,2.4966,2.4408,2.5044,2.4597,2.4271,2.4418,2.2456,1.9966,1.7265,1.519,1.396,1.396,1.2776,1.212,1.223,1.0449,0.9459,0.9276,0.6806,0.6703,0.9043,0.7799,0.7314,0.7421,0.8798,0.947,3.9029,3.9766,4.0023,3.9519,3.7488,3.4889,3.2125,0.0,0.0,2.2482,2.0868,1.9959,2.0362,2.0719,2.1913,2.4833,2.6188,2.8191,3.1954,3.4374,3.6319,3.7891,0.0,0.0,4.007,3.9437,3.9016,3.9016,3.8374,3.8318,3.8962,3.9714,3.9506,3.8133,3.8728,3.9106,3.9143,3.9783,4.0405,4.1143,4.1715,4.2474,4.3406,4.3806,4.444,4.5204,4.5648,4.5596,0.0,4.5252,4.4624,4.3617,4.2797,4.1471,3.9825,3.7992,3.5778,3.3525,3.2457,3.1074,2.9792,2.9792,2.9792,2.9792,2.9792,2.9792,2.9792,2.9792,2.9792,2.9792,2.9792,2.89,2.7785,2.6871,2.7244,2.7484,2.5811,2.6233,2.6531,2.5182,2.6605,2.7361,2.5497,2.6769,2.769,2.6668,2.6407,2.6632,2.7631,2.688,2.6683,2.7556,2.5016,2.3114,2.2752,2.0821,1.9674,1.9674,1.7743,1.5337,1.2314,1.2026,1.1051,0.9366,0.6694,0.6114,0.7716,0.6547,0.5945,0.6055,0.7454,0.8124,3.749,3.8535,3.9024,3.8803,3.6481,3.3667,3.1466,0.0,2.3606,2.2184,2.0569,1.949,1.9727,2.017,2.1106,2.2941,2.3742,2.5257,2.8429,3.0256,3.2424,3.5508,3.7178,0.0,0.0,0.0,3.8745,3.8246,3.7978,3.7748,3.7541,3.8302,3.843,3.7822,3.8092,3.8246,3.8246,3.927,3.9682,3.9514,4.1073,4.1884,4.2019,4.264,4.3578,4.4697,4.4831,4.515,0.0,4.564,4.507,4.4153,4.3617,4.2714,4.1364,3.9006,3.7439,3.6313,3.449,3.345,3.289,3.289,3.289,3.2499,3.0443,2.9792,2.9792,2.9792,3.0506,3.1329,3.1329,3.0498,2.916,2.6989,2.729,2.7945,2.7254,2.7458,2.7553,2.6644,2.7866,2.8369,2.6399,2.9321,3.1047,2.8388,3.0598,3.2159,3.1228,3.1904,3.2018,3.0695,2.7446,2.3351,1.8276,1.9268,1.8843,1.5876,1.6459,1.5632,1.2528,1.117,0.9116,0.6134,0.4305,0.435,0.6625,0.6121,0.596,0.5963,0.731,0.8038,3.5432,3.6826,3.7514,3.7335,3.5169,3.2487,0.0,2.6521,2.3005,2.2001,2.048,1.9305,1.9305,1.9968,2.0794,2.1674,2.2388,2.3804,2.6531,2.79,2.9969,0.0,0.0,3.6575,0.0,3.8079,3.7889,3.7175,3.7131,3.689,3.6275,3.6829,3.7131,3.7131,3.7338,3.7456,3.7456,3.8394,3.8673,3.8368,3.9898,4.0533,4.0468,4.1075,4.2157,4.3453,4.3507,4.4179,0.0,4.5279,4.5053,4.4667,4.4434,4.3757,4.2687,4.075,3.9421,3.8388,3.6717,3.5813,3.5385,3.5228,3.518,3.4688,3.2102,3.1282,3.1282,3.1282,3.2173,3.2903,3.2064,3.1523,3.049,2.7681,2.8171,2.909,2.8311,2.8736,2.8978,2.7921,2.9441,3.0403,2.8975,3.255,3.4668,3.199,3.4609,3.6288,3.4768,3.5882,3.61,3.4125,3.1517,2.6147,1.6884,1.8318,1.7615,1.2665,1.3905,1.3492,1.0534,0.8923,0.6789,0.4068,0.2256,0.2771,0.5381,0.501,0.5024,0.5425,0.683,0.7637,3.286,3.4492,3.5404,3.4862,3.3469,3.1506,2.8858,2.5663,2.3005,2.2001,2.048,1.9305,1.9305,1.9968,2.0794,2.1674,2.2862,2.4615,2.7324,2.8714,0.0,0.0,0.0,3.4813,3.5547,3.6204,3.6337,3.5554,3.5504,0.0,3.5504,3.5504,3.5504,3.5504,3.6228,3.66,3.66,3.66,3.7024,3.7806,3.7806,3.8149,3.8649,3.9042,3.9945,4.1245,4.1719,4.269,0.0,4.4058,4.4633,4.539,4.539,4.4766,4.3895,4.3847,4.1883,3.9191,3.9174,3.8041,3.6501,3.597,3.5825,3.5675,3.5022,3.4842,3.4842,3.4842,3.4842,3.42,3.1473,3.1523,3.1573,2.8724,3.0224,3.15,2.8736,3.0299,3.1428,2.8657,3.1252,3.3836,3.3823,3.6108,3.7955,3.7914,3.793,3.8001,3.793,3.7962,3.7962,3.7927,3.7904,3.3169,2.1629,1.9783,1.7103,1.2157,1.0873,0.8796,0.5281,0.5197,0.4797,0.3973,0.1393,0.1307,0.399,0.2709,0.2715,0.4016,0.5425,0.6734,2.8481,2.9721,3.0396,2.9844,2.8723,2.7309,2.5578,2.3508,2.1644,2.0641,1.9722,1.9034,1.886,1.904,1.9971,2.2311,2.3025,2.406,2.6295,0.0,0.0,3.1255,3.4131,3.6047,0.0,0.0,3.5718,3.5504,3.4839,3.4461,3.4461,3.4461,3.4758,3.5504,3.5733,3.5831,3.5831,3.6337,3.6446,3.6258,3.7294,3.7584,3.7255,3.7281,3.8208,3.9834,3.9853,4.0817,4.2474,4.3111,4.3737,4.4347,4.4116,4.4265,4.4511,4.3805,4.3118,4.2444,4.1718,4.1113,4.0555,4.0044,3.9918,3.987,3.9693,3.7424,3.5256,3.6869,3.7023,3.6656,3.6521,3.6154,3.5413,3.3769,3.3703,3.3796,3.2956,3.2486,3.2636,3.3659,3.3902,3.4511,3.6373,3.9029,4.0232,3.8285,4.1243,4.2986,4.111,4.2493,4.2948,4.1071,4.089,3.7268,2.8264,2.5423,2.2053,1.7049,1.3957,1.0605,0.6835,0.5979,0.4212,0.1295,0.0402,0.0403,0.1307,0.1711,0.3116,0.5422,0.7713,0.852,0.0,2.6201,2.6752,2.6423,2.5572,2.454,2.3444,2.1913,2.056,1.9923,1.9287,1.8789,1.8623,1.9082,2.007,2.1958,2.2634,2.3598,0.0,0.0,0.0,3.035,0.0,0.0,0.0,3.5386,3.5359,3.4986,3.4327,3.3876,3.3518,3.3449,3.3754,3.4409,3.4773,3.4773,3.4409,3.4853,3.4853,3.4409,3.5394,3.5555,3.507,3.4981,3.5738,3.7183,3.7397,3.8437,0.0,4.1292,4.2242,4.2965,4.3281,4.3647,4.3987,4.3961,4.392,4.3799,4.3506,4.3403,4.3337,4.2814,4.2391,4.2015,4.1853,3.9776,3.7828,3.9261,3.9413,3.909,3.8924,3.8348,3.7439,3.5843,3.518,3.4976,3.5419,3.467,3.4525,3.6634,3.7014,3.7593,3.9266,4.1902,4.3159,4.1394,4.4083,4.5675,4.397,4.5247,4.562,4.3937,4.3752,4.1805,3.6907,3.1282,2.5912,2.0856,1.8259,1.4586,0.9174,0.835,0.5499,0.0101,0.0,0.0,0.0,0.131,0.2816,0.4522,0.7214,0.8021,0.0,2.343,2.4094,2.4064,2.356,2.2878,2.2074,2.0809,0.0,1.9666,1.908,1.8601,1.8669,1.9817,2.0845,2.1106,2.2091,2.3425,0.0,2.5688,0.0,0.0,3.1926,0.0,3.3104,3.4411,3.492,3.3959,3.3808,3.3449,3.2522,3.2536,3.2451,3.2294,3.3213,3.3296,3.2508,3.2522,3.2437,3.2352,3.2437,3.2437,3.2352,3.228,3.2708,0.0,3.4383,3.5505,3.688,3.8533,3.9865,4.1,4.2345,4.2687,4.2604,4.4098,4.4141,4.3582,4.4485,4.484,4.4814,4.4317,4.347,4.2584,4.2151,4.1931,4.181,4.1853,4.1835,4.1323,3.9261,3.8678,3.8145,3.5845,3.541,3.5755,3.6685,3.6833,3.7151,3.8266,4.0524,4.2229,4.2275,4.4517,4.621,4.5946,4.6023,4.6082,4.6055,4.6054,4.5712,4.4764,4.467,4.4636,4.4635,3.6684,2.9531,2.431,2.3419,1.9884,1.2699,1.1924,0.8163,0.101,0.0303,0.0,0.0,0.1709,0.241,0.2312,0.5313,0.652,1.6365,0.0,1.9064,1.8906,1.9408,1.9809,0.0,1.9268,1.9204,0.0,0.0,1.8593,1.9504,1.9515,2.0326,2.3192,2.3984,2.4779,2.6294,0.0,0.0,3.23,3.2716,3.3029,3.3723,3.3485,3.3171,3.2961,3.2249,3.1742,3.1536,3.1536,3.0843,2.9229,3.0075,3.0786,3.1389,3.1389,3.0956,3.0108,3.0956,3.0956,3.0033,2.9351,2.9479,3.0329,3.042,3.1083,3.2165,3.3151,3.4897,3.6942,3.7308,3.9147,4.1614,4.1991,4.2907,4.392,4.3811,4.4253,4.488,4.4766,4.4533,4.4308,4.42,4.3069,4.1895,4.2342,4.2162,4.1775,4.1693,4.1612,4.1212,3.9833,4.0387,4.1067,4.0529,4.0008,4.0335,4.2655,4.2643,4.2429,4.3159,4.4954,4.5357,4.2598,4.3364,4.4061,4.3597,4.3508,3.9757,2.9724,2.86,2.8549,2.8525,3.7177,3.9573,3.2446,2.6444,2.2318,2.0466,1.4744,1.0694,0.8895,0.3035,0.0,0.0,0.5342,0.6911,0.5189,1.0854,1.1874,1.3636,1.5421,1.7085,1.6992,1.7671,1.8369,1.8276,0.0,0.0,0.0,0.0,0.0,1.9127,1.9475,2.0455,2.2848,2.3343,0.0,0.0,0.0,3.1485,3.2515,3.3018,3.3101,0.0,3.2664,3.2393,3.196,3.1462,3.0781,2.9859,2.9782,2.9008,2.7441,2.7359,2.7873,2.8885,2.8975,2.8638,2.804,2.8059,2.7763,2.7104,2.5995,2.5809,2.637,2.727,2.8016,2.8659,3.0362,3.1971,3.3412,3.4973,3.6694,3.8472,4.0189,4.1505,4.2525,4.3002,4.3918,4.4896,4.4908,4.4904,4.4901,4.4903,4.4121,4.3235,4.3359,4.332,4.3201,4.3069,4.3114,4.301,4.2172,4.1991,4.2175,4.2909,4.2104,4.2148,4.489,4.402,4.3002,4.3496,4.3719,4.3162,4.1195,4.2234,4.29,4.2027,4.3353,3.6198,1.4835,1.8851,2.3085,2.3085,3.7338,4.4505,4.0301,3.6112,3.3789,3.3744,2.63,1.8831,1.176,0.3949,0.0,0.0,0.3581,0.5438,0.6031,0.9559,1.1057,1.2664,1.4687,1.6633,1.6626,1.729,1.8031,1.8302,0.0,0.0,0.0,0.0,0.0,0.0,0.0,0.0,0.0,0.0,0.0,2.7472,3.0221,3.1729,3.1392,3.2403,0.0,3.083,3.1262,3.1322,3.0543,3.0467,2.9693,2.7924,2.7844,2.7267,2.6036,2.502,2.4851,2.543,2.5964,2.5964,2.5419,2.4735,2.408,2.3529,2.2659,2.2206,2.2091,2.4179,2.5178,2.5579,2.8033,2.9389,3.0129,3.3027,3.4114,3.4416,3.7552,3.9182,4.0036,4.1841,4.337,4.4497,4.4576,4.4727,4.4901,4.4908,4.4897,4.4805,4.4335,4.4526,4.4685,4.3743,4.3912,4.4134,4.3381,4.2294,4.2071,4.4254,4.3505,4.3124,4.5445,4.4437,4.3113,4.28,4.1739,4.0701,4.0179,4.119,4.1082,3.8547,4.0424,3.116,0.3021,1.1691,1.9542,1.9542,3.3807,4.2739,4.2791,4.2736,4.3829,4.6191,3.999,2.8632,1.1952,0.5172,0.1212,0.0,0.1204,0.3374,0.6468,0.7495,0.9656,1.3301,1.4768,1.5947,1.5889,1.7263,1.8665,1.8722,0.0,0.0,0.0,0.0,0.0,0.0,0.0,0.0,0.0,0.0,2.6539,0.0,0.0,2.9306,3.0122,0.0,2.888,2.8415,2.7841,2.7406,2.7267,2.7186,2.7105,2.6801,2.6719,2.5764,2.3594,2.3335,2.2378,2.0631,2.3537,2.3537,2.0631,2.2358,2.1581,1.8589,1.9587,1.9397,1.8407,1.9825,2.1123,2.2105,2.2563,2.4357,2.6875,2.7475,2.9038,3.1186,3.1792,3.3839,3.6733,3.9611,4.1497,4.2667,4.3074,4.3973,4.4901,4.4892,4.4897,4.4799,4.4331,4.4539,4.4744,4.4155,4.4674,4.4989,4.3547,4.4328,4.5275,4.4796,4.4001,4.3515,4.3951,4.2559,4.0814,3.9311,4.0081,3.9881,3.6796,3.78,3.5816,2.7344,2.3811,1.6418,0.1573,0.2153,0.3543,0.3543,1.7778,2.6794,2.6786,2.6689,3.2557,4.5768,4.5162,3.4117,1.2054,1.0474,0.6608,0.0,0.6654,0.9619,0.9284,1.4784,1.66,1.2082,1.3629,1.5057,1.4923,1.657,1.8084,1.7648,0.0,0.0,0.0,0.0,0.0,0.0,0.0,2.1462,2.1979,0.0,2.6091,2.6377,2.7316,2.8219,0.0,0.0,2.7761,2.7209,2.6778,2.6483,2.6483,2.6483,2.5953,2.4639,2.4639,2.3507,2.115,2.1069,2.0271,1.8503,2.081,2.1087,1.9497,1.9216,1.8171,1.6535,1.5712,1.505,1.4558,1.5873,1.6707,1.7335,1.7957,1.9142,2.0712,2.3213,2.5033,2.6561,2.9448,3.1294,3.2809,3.643,3.8567,4.0017,4.1905,4.3231,4.4199,4.4734,4.4912,4.4783,4.4299,4.4689,4.5167,4.466,4.4823,4.4827,4.3681,4.4455,4.4919,4.3051,4.3156,4.3331,4.2333,4.0696,3.9193,3.834,3.8108,3.7434,3.5719,3.6215,3.5124,3.0624,2.8469,2.2784,1.0845,0.3805,-0.0,-0.0,0.6589,1.069,1.069,1.0584,1.8821,3.723,4.3331,3.9287,2.4369,1.5831,0.9843,0.63,0.5666,0.7237,1.0772,1.3114,1.5485,1.1266,1.2815,1.427,1.4162,0.0,1.7643,1.7015,0.0,0.0,0.0,0.0,0.0,0.0,2.0372,0.0,2.1026,2.3245,2.501,2.4947,2.5849,2.6632,2.6825,2.6703,2.6321,2.5633,2.567,2.5546,2.5273,2.5262,2.4343,2.2244,2.2061,2.0961,1.8584,1.8482,1.7796,1.6334,1.7208,1.7887,1.818,1.6476,1.5246,1.4297,1.2603,1.175,1.1556,1.2769,1.3504,1.3868,1.4772,1.5311,1.593,1.9478,2.1039,2.1893,2.6796,2.8487,2.8822,3.2737,3.5316,3.7212,3.9608,4.1465,4.2848,4.3465,4.3759,4.3774,4.3188,4.3774,4.4581,4.4528,4.444,4.4148,4.3405,4.3658,4.3483,4.1371,4.166,4.1947,4.0509,3.8815,3.759,3.759,3.6436,3.5504,3.5504,3.5521,3.5324,3.4832,3.5242,3.2026,2.2828,1.3703,0.7175,0.4422,0.4154,0.2927,0.0198,-0.0,0.8787,2.8249,4.0132,4.263,3.4844,2.305,1.5764,1.3353,0.8223,0.8523,1.3743,1.31,1.555,1.2329,1.3195,1.3786,1.3892,1.6017,0.0,1.8062,1.8213,0.0,0.0,0.0,0.0,0.0,2.0972,2.2642,2.278,2.3973,2.4457,2.3252,0.0,2.3281,2.3743,2.3238,2.2844,2.2784,2.3159,2.2843,2.1728,2.164,2.1033,1.9453,1.9348,1.8185,1.5541,1.554,1.4494,1.2194,1.2315,1.3091,1.4345,1.5266,1.382,1.048,1.1458,1.1263,1.0194,1.1453,1.2684,1.3784,1.3868,1.4596,1.5671,1.593,1.6785,1.8268,2.1816,2.3794,2.5245,2.8605,3.1903,3.468,3.4866,3.7616,4.0683,4.0069,4.0358,4.0752,4.0041,4.0683,4.189,4.3038,4.3315,4.3121,4.232,4.214,4.1949,4.1107,3.9664,3.8531,3.8438,3.6949,3.5689,3.5689,3.5564,3.5504,3.5504,3.5529,3.4808,3.2905,3.4332,3.5149,3.4299,3.3433,2.8465,1.7355,1.6431,1.176,0.0739,-0.0,0.7125,2.2967,3.8249,4.2641,3.4842,3.36,2.8245,1.8457,2.1532,2.1989,2.0068,2.1447,2.2311,1.017,1.1213,1.2166,1.234,0.0,0.0,0.0,0.0,0.0,0.0,0.0,0.0,0.0,0.0,1.8574,1.9554,1.9964,2.0051,1.9841,1.9787,1.9925,2.0365,2.0201,2.0054,2.0098,2.0232,2.0139,1.9696,1.8929,1.7969,1.664,1.5892,1.4668,1.2887,1.2888,1.2487,1.1585,1.1672,1.1635,1.1675,1.2224,1.1785,1.034,0.9743,0.9252,0.8759,0.924,0.9719,1.0194,1.0186,1.0462,1.1016,1.2597,1.4022,1.5444,1.7417,1.8037,1.8489,2.3398,2.6219,2.8235,3.1405,3.4775,3.7508,3.7556,3.8672,3.9776,3.9107,3.9242,4.0007,4.1582,4.1765,4.1313,4.0508,4.0309,3.9831,3.7948,3.788,3.7839,3.6763,3.5984,3.5103,3.3762,3.3596,3.3127,3.1833,3.1676,3.1361,3.059,3.1136,3.1609,3.1629,3.2401,3.181,2.8987,2.8734,2.6827,2.2372,0.8176,0.5918,1.9207,3.6833,4.4389,4.0311,4.1333,3.7569,2.8747,2.3638,2.1945,2.3202,2.1332,2.1736,0.8904,1.0002,1.1216,0.0,0.0,0.0,0.0,0.0,0.0,0.0,0.0,0.0,0.0,0.0,0.0,0.0,1.7552,1.7425,1.7755,1.7465,1.7462,1.8128,1.7997,1.7884,1.7859,1.7956,1.7754,1.6965,1.6213,1.5205,1.392,1.3016,1.2002,1.0705,1.0677,1.0534,1.0182,1.0242,1.0023,0.9422,0.969,0.9307,0.8488,0.7324,0.6741,0.6741,0.6735,0.7263,0.7925,0.7099,0.7223,0.8172,0.9874,1.1196,1.2138,1.3815,1.4117,1.4407,1.8783,2.1646,2.3861,2.7315,3.0979,3.4152,3.4897,3.6301,3.7591,3.76,3.7794,3.8082,3.8692,3.9263,3.9503,3.8948,3.8607,3.7886,3.5933,3.6466,3.6804,3.4898,3.4551,3.3844,3.1806,3.142,3.097,2.9517,2.9289,2.916,2.8718,2.9068,2.9504,2.9934,3.086,3.1958,3.3397,3.1599,3.1914,3.5246,1.7873,1.0573,1.742,3.4685,4.3634,4.2769,4.4532,4.2396,3.6198,2.9563,2.6758,2.7598,2.4598,2.4357,0.9097,1.014,1.1083,0.0,0.0,0.0,0.0,0.0,0.0,0.0,0.0,1.6955,1.7255,0.0,0.0,1.7926,1.7601,1.7253,1.7253,1.6355,1.6026,1.709,1.6651,1.6222,1.6139,1.6604,1.5827,1.3458,1.3285,1.2652,1.1127,1.1028,1.0401,0.8894,0.897,0.854,0.7404,0.7543,0.7624,0.755,0.777,0.6599,0.4084,0.3987,0.3987,0.3987,0.3987,0.5487,0.7781,0.5092,0.5544,0.7882,0.7972,0.7935,0.8273,1.0877,1.2608,1.3957,1.5123,1.8514,2.2366,2.2357,2.5973,3.0692,3.1965,3.2861,3.3729,3.5044,3.5991,3.6059,3.3966,3.5565,3.7748,3.7748,3.7144,3.6306,3.5589,3.5424,3.4861,3.2737,3.2345,3.1734,2.9593,2.9289,2.9289,2.9213,2.9213,2.8748,2.7403,2.8399,2.9793,3.1128,3.1334,3.0735,2.9261,2.3194,2.3981,3.474,2.795,2.1928,1.8,3.1536,3.9634,4.0816,4.2629,4.224,3.9546,4.1316,3.9346,3.3959,3.2811,3.1698,0.9121,0.9451,0.0,0.0,0.0,0.0,0.0,0.0,0.0,0.0,0.0,1.5771,1.5795,0.0,0.0,1.5794,1.5487,1.5068,1.5068,1.4028,1.3419,1.3749,1.2881,1.2238,1.2221,1.2371,1.2157,1.1483,1.07,0.9981,0.9583,0.879,0.807,0.769,0.7645,0.7503,0.7165,0.5634,0.3999,0.227,0.2363,0.3887,0.67,0.2953,0.1142,0.1142,0.1141,0.3823,0.7657,0.3074,0.1635,0.2514,0.4446,0.6387,0.8044,0.8676,0.9135,0.978,1.1939,1.3495,1.5157,1.7937,2.1493,2.4889,2.6314,2.8528,3.0658,3.1043,3.1307,3.1442,3.1365,3.1619,3.1956,3.2553,3.2068,3.1424,3.1189,3.1143,3.0983,3.0355,3.0206,2.9593,2.7458,2.7162,2.6621,2.5155,2.4925,2.4766,2.4436,2.4659,2.5115,2.5551,2.5583,2.3932,1.9841,1.7722,1.9507,2.6341,2.6388,2.7436,3.0073,3.4351,3.731,3.8963,3.9944,4.1076,4.2375,4.0984,4.0109,3.9642,3.5832,3.4299,0.8815,0.9225,0.0,0.0,0.0,0.0,0.0,0.0,0.0,0.0,0.0,1.4624,1.4678,1.4117,0.0,1.4597,1.4372,1.3913,1.3464,1.2766,1.2151,1.1638,1.1042,1.0438,1.0009,0.9923,0.9749,0.9226,0.8544,0.8204,0.8204,0.751,0.7078,0.7091,0.618,0.5275,0.4287,0.2853,0.098,-0.1425,-0.2405,-0.1084,0.1948,-0.0371,-0.0929,-0.0,-0.0,0.179,0.4542,0.1329,-0.0,0.019,0.1805,0.3422,0.495,0.5897,0.685,0.7795,0.9326,1.048,1.1754,1.4166,1.7029,2.0,2.2685,2.4587,2.6314,2.8667,2.8642,2.7891,2.8021,2.7345,2.729,2.9908,2.9902,2.9289,2.9289,2.9289,2.906,2.8222,2.8065,2.739,2.5311,2.5009,2.4534,2.329,2.3115,2.3065,2.3076,2.3115,2.3133,2.3133,2.3133,2.1851,1.8756,1.7858,1.9068,2.2829,2.5026,2.7985,3.2106,3.3581,3.4801,3.5836,3.7749,3.966,4.1461,4.124,4.1124,4.1069,3.8799,3.7653,0.8378,0.0,0.0,0.0,0.0,0.0,0.0,0.0,0.0,1.3581,0.0,1.3734,1.4035,1.3778,1.3602,1.3866,1.3822,1.3385,1.2328,1.2066,1.1638,1.0611,1.0351,0.9836,0.8803,0.8719,0.8281,0.7143,0.7074,0.6996,0.6811,0.6821,0.692,0.7104,0.465,0.2049,-0.0623,-0.0623,-0.1781,-0.3927,-0.6097,-0.7098,-0.7005,-0.4917,-0.259,-0.0358,-0.0365,-0.0184,-0.0,-0.0,-0.0,-0.0,-0.0,-0.0,0.0284,0.2739,0.5101,0.7095,0.7289,0.9003,1.1051,1.1162,1.2916,1.5852,2.0111,2.0771,2.1209,2.653,2.6597,2.4925,2.4127,2.3303,2.3866,2.8673,2.9126,2.8484,2.8676,2.8818,2.8276,2.6307,2.6084,2.5539,2.3444,2.3135,2.3135,2.3135,2.3121,2.3137,2.3106,2.3032,2.2919,2.2919,2.2819,2.2805,2.2747,2.1494,2.134,2.2841,2.3789,2.5052,2.6808,3.0241,3.2189,3.2415,3.5889,3.7835,3.8234,4.1494,4.1982,3.9914,4.146,4.1265,0.85,0.8765,0.0,0.0,0.0,0.0,0.0,0.0,0.0,1.3534,1.3559,1.3734,1.4035,1.3243,1.2608,1.2668,1.1906,1.1305,1.1037,1.0183,0.9579,0.9323,0.8448,0.7749,0.7489,0.7507,0.734,0.7078,0.7091,0.6278,0.4465,0.4376,0.5196,0.7035,0.2946,-0.1248,-0.5573,-0.556,-0.5822,-0.6358,-0.6815,-0.7081,-0.7064,-0.6542,-0.5102,-0.2857,-0.2781,-0.1709,-0.0,-0.0,-0.0,-0.0,-0.0,-0.0,0.0091,0.0635,0.2353,0.4707,0.6535,0.7513,0.8213,0.9337,1.0811,1.242,1.4533,1.5857,1.6795,1.8065,1.9545,2.074,2.0544,2.1697,2.3268,2.4397,2.314,2.2108,2.4012,2.4975,2.515,2.3968,2.5082,2.5539,2.3444,2.3135,2.3135,2.3135,2.3125,2.3066,2.3067,2.2302,2.1706,2.1706,2.0797,2.0295,2.0288,2.0841,2.1275,2.1663,2.2725,2.3551,2.3971,2.7858,3.0737,3.2345,3.3227,3.5151,3.8169,3.9011,4.0504,4.2711,4.2256,4.2556,0.0,0.0,0.0,0.0,0.0,0.0,0.0,0.0,1.1802,1.175,1.2265,1.2569,1.2294,1.1729,1.1376,1.1376,1.0963,1.0438,0.9836,0.9235,0.8719,0.812,0.7507,0.7071,0.7074,0.7088,0.6177,0.3829,0.3744,0.321,0.1958,0.0801,0.0713,0.1964,-0.0445,-0.3481,-0.7022,-0.7101,-0.7084,-0.7068,-0.7068,-0.7064,-0.7143,-0.7081,-0.6453,-0.5275,-0.528,-0.4563,-0.322,-0.0983,-0.0,-0.0,-0.0,-0.0,-0.0,-0.0,0.152,0.3929,0.6275,0.7074,0.7241,0.8027,0.8714,0.9665,1.1625,1.3165,1.4385,1.5137,1.6784,1.8289,1.8407,1.9513,2.0773,2.1943,2.1765,2.1587,2.2862,2.3461,2.366,2.3193,2.3998,2.4385,2.329,2.3922,2.4925,2.5931,2.5239,2.4353,2.3811,2.2299,2.1114,2.0486,1.9852,1.9497,1.9497,1.9588,1.9852,2.0395,2.1033,2.1676,2.2208,2.4872,2.731,2.9366,3.0429,3.2409,3.5457,3.6694,3.8756,4.1567,4.2753,4.354,0.0,0.0,0.0,0.0,0.0,0.0,0.0,0.0,1.0271,0.9519,1.0458,1.1124,1.0353,1.01,1.0045,1.0045,0.995,0.9642,0.871,0.8541,0.8206,0.7186,0.6763,0.6328,0.5883,0.5899,0.4285,0.0266,-0.08,-0.1246,-0.1244,-0.312,-0.4198,-0.4198,-0.4198,-0.5095,-0.7084,-0.7081,-0.7071,-0.7139,-0.7139,-0.7139,-0.7139,-0.7071,-0.7081,-0.7081,-0.7088,-0.7094,-0.6824,-0.2861,-0.0983,-0.0536,-0.0179,-0.0,-0.0,-0.0,0.1254,0.3393,0.6103,0.7084,0.7058,0.7058,0.7231,0.7771,0.9762,1.1143,1.2265,1.3616,1.5339,1.6813,1.7095,1.7919,1.9139,2.1123,2.2394,2.3135,2.3135,2.3193,2.325,2.3125,2.3135,2.3135,2.3135,2.4544,2.6237,2.7999,2.6587,2.4975,2.3988,2.1961,2.0305,1.9314,1.8948,1.8848,1.8848,1.8141,1.8234,1.9405,1.9497,2.0124,2.1569,2.2394,2.373,2.5622,2.7696,2.9819,3.1877,3.4425,3.6692,3.8862,4.2209,4.3662,0.0,0.0,0.0,0.0,0.0,0.0,0.0,0.0,0.9064,0.0,0.9048,1.0042,1.0165,0.9322,0.8682,0.8682,0.7891,0.7177,0.7108,0.7111,0.7122,0.7066,0.5347,0.3211,0.1123,0.0968,0.0712,0.0089,-0.3835,-0.6189,-0.6186,-0.6462,-0.6643,-0.6643,-0.6634,-0.6811,-0.7084,-0.7064,-0.7143,-0.7139,-0.7139,-0.7139,-0.7139,-0.7143,-0.7058,-0.7058,-0.7058,-0.7071,-0.7088,-0.6373,-0.4924,-0.2946,-0.0807,-0.0,-0.0,-0.0,0.0179,0.1073,0.5576,0.7108,0.7081,0.7081,0.7081,0.717,0.751,0.7889,0.8208,0.8401,1.1951,1.5652,1.5679,1.9036,2.2501,2.2775,2.296,2.3135,2.3135,2.3725,2.3975,2.327,2.3135,2.3135,2.3135,2.329,2.3607,2.3922,2.2756,2.1868,2.1692,1.9654,1.8141,1.7963,1.6936,1.6285,1.6285,1.7131,1.8234,1.9405,1.9497,2.0494,2.2775,2.2031,2.2189,2.3531,2.5539,2.7616,2.9744,3.1894,3.4218,3.6758,3.8959,4.1613,0.562,0.0,0.0,0.0,0.0,0.0,0.0,0.0,0.7959,0.7009,0.7314,0.7848,0.8011,0.7629,0.7369,0.7369,0.6966,0.6705,0.6802,0.6805,0.5957,0.3602,0.2448,0.0848,-0.1524,-0.2996,-0.3705,-0.3698,-0.5615,-0.6843,-0.6833,-0.6915,-0.6915,-0.6915,-0.6912,-0.7204,-0.7974,-0.7962,-0.8348,-0.9052,-0.8448,-0.8105,-0.8101,-0.7401,-0.7139,-0.7139,-0.7139,-0.7058,-0.7068,-0.7084,-0.5997,-0.4285,-0.4037,-0.2331,-0.0,-0.0,-0.0,0.0268,0.2418,0.4295,0.5991,0.6811,0.7071,0.7139,0.7139,0.8047,0.8907,0.7699,1.049,1.3817,1.3377,1.6566,2.0067,2.082,2.2092,2.3135,2.3135,2.3394,2.3604,2.3202,2.3135,2.3444,2.4618,2.4851,2.5239,2.6389,2.5163,2.3569,2.2206,2.0121,1.8226,1.6756,1.6109,1.5832,1.5832,1.6292,1.685,1.739,1.8133,1.8956,2.0051,2.1961,2.2756,2.212,2.3624,2.6084,2.9289,3.0705,3.3068,3.6499,3.8865,4.0815,0.0,0.0,0.0,0.0,0.0,0.0,0.0,0.0,0.6736,0.0,0.6064,0.6156,0.6196,0.6322,0.642,0.6424,0.6519,0.66,0.6702,0.5773,0.3449,-0.0822,-0.1322,-0.1989,-0.3822,-0.5616,-0.6656,-0.6642,-0.6642,-0.6636,-0.6702,-0.6702,-0.6702,-0.6702,-0.6702,-0.7329,-0.8535,-0.8919,-0.9436,-1.0014,-0.9296,-0.8715,-0.8452,-0.7489,-0.7139,-0.7139,-0.7139,-0.7139,-0.7143,-0.7074,-0.6444,-0.5534,-0.6656,-0.4576,-0.0805,-0.0269,-0.0,-0.0,-0.0,0.1965,0.4821,0.6542,0.7071,0.7139,0.7139,0.8249,0.9296,0.7717,0.9714,1.2192,1.1634,1.4631,1.8006,1.9068,2.1264,2.3135,2.3135,2.3531,2.3922,2.3922,2.4299,2.5166,2.6691,2.654,2.6702,2.83,2.6495,2.4283,2.2476,2.0355,1.8311,1.648,1.6015,1.5832,1.5832,1.5832,1.592,1.6298,1.7131,1.7963,1.8596,2.1817,2.3292,2.2533,2.3461,2.5384,2.8533,3.0212,3.2665,3.5889,3.859,4.0086,0.0,0.0,0.0,0.0,0.0,0.0,0.0,0.0,0.0,0.5755,0.582,0.5871,0.6017,0.6169,0.6274,0.6288,0.6295,0.6312,0.6346,0.2904,-0.1253,-0.5463,-0.5968,-0.6115,-0.6354,-0.6565,-0.6642,-0.6705,-0.6702,-0.6702,-0.6702,-0.6702,-0.6702,-0.6702,-0.6702,-0.7195,-0.818,-0.9516,-0.962,-0.8543,-0.8806,-0.8277,-0.7228,-0.7139,-0.7139,-0.7139,-0.7139,-0.7139,-0.7143,-0.7074,-0.7071,-0.6966,-0.7091,-0.5555,-0.3124,-0.0805,-0.0,-0.0,-0.0,0.1612,0.4018,0.637,0.7078,0.7139,0.7139,0.7224,0.7228,0.7149,0.9067,1.1206,1.1139,1.5008,1.9083,1.9196,2.124,2.3135,2.3135,2.4618,2.6002,2.6002,2.7616,2.8984,2.9137,2.7537,2.6237,2.6307,2.3609,2.1542,2.1355,1.9306,1.7777,1.7598,1.648,1.5832,1.5832,1.5832,1.6292,1.7498,1.7692,1.8772,2.1025,2.1373,2.2862,2.5909,2.6002,2.6166,2.6389,3.0342,3.2751,3.3723,3.658,3.8892,0.0,0.0,0.0,0.0,0.0,0.0,0.5453,0.541,0.5459,0.5508,0.5674,0.582,0.5874,0.601,0.6149,0.6261,0.6278,0.5326,0.2657,0.0936,-0.1559,-0.5814,-0.6335,-0.6359,-0.6431,-0.7021,-0.713,-0.65,-0.7044,-0.7119,-0.6496,-0.642,-0.642,-0.642,-0.7044,-0.8269,-1.0137,-1.1421,-1.1555,-1.049,-0.9961,-0.9132,-0.8111,-0.7442,-0.7139,-0.7139,-0.7139,-0.7139,-0.7139,-0.7061,-0.7058,-0.7143,-0.7081,-0.6548,-0.5374,-0.143,-0.0,-0.0,-0.0,0.0538,0.1965,0.583,0.7088,0.7071,0.7058,0.7139,0.7139,0.7139,0.7779,0.8537,0.8653,1.1436,1.5073,1.849,2.1237,2.3135,2.3135,2.4693,2.6237,2.6237,2.7842,2.9289,2.9289,2.8676,2.7763,2.6389,2.5174,2.3695,2.1542,2.0576,1.9405,1.787,1.7318,1.6669,1.5825,1.5832,1.6015,1.648,1.7225,1.8048,1.8948,2.1757,2.3216,2.3036,2.777,3.0206,3.0206,3.1649,3.3237,3.4845,3.7218,3.8652,0.3722,0.0,0.0,0.0,0.0,0.4701,0.5144,0.0,0.5033,0.5264,0.5416,0.5593,0.5644,0.5783,0.6016,0.6263,0.5199,0.2893,-0.1218,-0.1915,-0.3081,-0.5886,-0.6244,-0.6423,-0.6795,-0.7403,-0.7629,-0.7326,-0.7936,-0.8008,-0.7326,-0.7022,-0.6795,-0.6795,-0.808,-0.9509,-1.1053,-1.2033,-1.2012,-1.0965,-1.006,-0.9007,-0.8018,-0.7289,-0.6993,-0.6997,-0.7048,-0.7095,-0.7139,-0.7139,-0.7139,-0.7143,-0.7068,-0.7084,-0.664,-0.268,-0.0716,-0.0,-0.0,-0.0,0.0537,0.3669,0.5824,0.7088,0.7068,0.7064,0.7061,0.7143,0.7139,0.7163,0.7265,0.9302,1.274,1.8159,2.0676,2.2092,2.295,2.4693,2.6389,2.7082,2.8907,3.059,3.1288,3.0206,2.883,2.7458,2.6084,2.4333,2.2189,2.1569,2.0567,1.8503,1.7963,1.7225,1.592,1.6197,1.648,1.648,1.7948,1.8956,1.8956,2.2205,2.3675,2.2949,2.777,3.1043,3.2415,3.3127,3.4158,3.5569,3.743,3.8821,0.0,0.0,0.0,0.0,0.0,0.0,0.5801,0.0,0.4368,0.4953,0.5088,0.5159,0.5318,0.5549,0.5787,0.6108,0.2901,-0.0943,-0.4826,-0.5741,-0.5966,-0.5966,-0.6162,-0.6707,-0.7698,-0.7851,-0.8232,-0.9221,-0.9296,-0.9296,-0.9296,-0.8389,-0.7859,-0.7855,-0.9814,-1.0783,-1.0858,-1.1047,-1.0628,-0.9448,-0.8702,-0.7827,-0.6695,-0.6698,-0.6702,-0.6709,-0.6858,-0.7004,-0.7136,-0.7139,-0.7139,-0.7139,-0.7139,-0.7064,-0.6811,-0.4556,-0.2142,-0.0,-0.0,-0.0,-0.0,-0.0,0.313,0.6917,0.6996,0.7084,0.7081,0.7058,0.7139,0.7143,0.7146,0.9208,1.2728,1.8053,1.934,2.0095,2.257,2.4693,2.6691,2.8842,3.0897,3.2974,3.4957,3.1976,2.9289,2.9213,2.5777,2.3135,2.3135,2.212,2.0845,1.967,1.8503,1.7225,1.592,1.6943,1.7692,1.7692,1.9943,2.1293,2.1293,2.2492,2.4074,2.6084,2.6166,2.8222,3.2345,3.4389,3.5424,3.5569,3.7115,3.9254,0.3129,0.0,0.0,0.0,0.0,0.0,0.0,0.0,0.405,0.4567,0.4687,0.4728,0.4992,0.5287,0.5122,0.3924,0.1817,-0.0942,-0.4818,-0.5656,-0.5815,-0.5871,-0.5905,-0.6408,-0.7484,-0.8314,-0.8896,0.0,-0.997,-1.004,-0.9372,-0.9069,-0.9216,-0.9959,-1.0484,-1.1162,-1.1848,-1.1241,-1.0371,-0.9311,-0.8505,-0.7568,-0.6539,-0.6651,-0.6702,-0.6702,-0.6746,-0.6848,-0.6997,-0.7099,-0.7139,-0.7139,-0.7139,-0.7064,-0.6996,-0.6367,-0.3487,-0.0,-0.0,-0.0,-0.0,-0.0,0.0894,0.2323,0.402,0.5727,0.7084,0.7078,0.7064,0.7166,0.7278,0.9208,1.2115,1.5694,1.785,1.9858,2.2503,2.3521,2.4534,2.6621,2.8753,3.0355,3.091,3.0057,2.8753,2.731,2.6084,2.4767,2.329,2.2775,2.2129,2.0935,1.9761,1.8503,1.7318,1.6669,1.6756,1.7591,1.9131,2.0395,2.1293,2.2492,2.3367,2.3912,2.5467,2.7537,3.0132,3.2274,3.4008,3.5554,3.7472,3.9831,0.0,0.0,0.0,0.0,0.0,0.0,0.4149,0.3922,0.3715,0.0,0.432,0.4541,0.4779,0.5019,0.4667,0.2961,0.0788,-0.1778,-0.4929,-0.556,-0.5657,-0.5715,-0.5766,-0.6334,-0.7798,-0.8533,-0.9238,-1.0103,-1.0689,-1.0664,-0.9818,-1.0289,-1.0645,-1.0783,-1.1236,-1.1694,-1.2298,-1.087,-0.9895,-0.9301,-0.7962,-0.7006,-0.6386,-0.6478,-0.6519,-0.6522,-0.658,-0.6658,-0.6749,-0.6895,-0.7031,-0.7139,-0.7139,-0.7064,-0.7088,-0.7098,-0.5382,-0.2689,-0.0718,-0.0,-0.0,-0.0,-0.0,0.0269,0.1697,0.4474,0.7104,0.7094,0.7081,0.7187,0.7333,0.8513,1.0272,1.3141,1.4897,1.6981,2.0775,2.1523,2.2436,2.5579,2.715,2.83,2.9137,2.8598,2.7616,2.6389,2.5467,2.4459,2.3299,2.3135,2.2403,2.0755,1.9943,1.9039,1.7777,1.749,1.7848,1.9131,2.0314,2.1311,2.2031,2.2775,2.3135,2.3135,2.431,2.5931,2.7999,3.097,3.3797,3.6477,3.7907,3.9814,0.0,0.0,0.0,0.0,0.0,0.0,0.5033,0.4304,0.332,0.0,0.398,0.4379,0.4538,0.4711,0.4342,0.2893,-0.006,-0.2921,-0.5035,-0.5443,-0.5521,-0.5538,-0.565,-0.6439,-0.8374,-0.8589,-0.9366,-1.1279,-1.1423,-1.1114,-1.0563,-1.1649,-1.1877,-1.0965,-1.1829,-1.2224,-1.215,-1.0271,-0.9221,-0.9145,-0.7176,-0.6338,-0.6338,-0.6338,-0.6338,-0.6345,-0.6393,-0.6458,-0.6481,-0.662,-0.6841,-0.7092,-0.7109,-0.7041,-0.7061,-0.6818,-0.6748,-0.6037,-0.1527,-0.0,-0.0,-0.0,-0.0,-0.0,-0.0,0.2957,0.6397,0.6649,0.691,0.7111,0.7319,0.735,0.8037,1.09,1.1563,1.2927,1.7918,1.9052,2.0384,2.4609,2.5661,2.647,2.83,2.7082,2.5859,2.5859,2.4459,2.3444,2.3444,2.3684,2.294,2.0846,2.048,1.9867,1.8548,1.9273,2.0271,2.1203,2.2306,2.296,2.3047,2.3135,2.3135,2.3135,2.329,2.4385,2.6237,3.049,3.423,3.7478,3.8258,3.9429,0.3305,0.0,0.0,0.0,0.0,0.0,0.3563,0.3352,0.3196,0.0,0.3364,0.347,0.3744,0.4125,0.3868,0.2509,-0.0164,-0.2791,-0.4742,-0.5047,-0.5091,-0.5206,-0.5243,-0.6075,-0.8253,-0.8419,-0.9247,-1.1266,-1.1423,-1.1312,-1.1227,-1.172,-1.1879,-1.1657,-1.2105,-1.1922,-1.1087,-0.9895,-0.8922,-0.8089,-0.6872,-0.6338,-0.6338,-0.6338,-0.6338,-0.6264,-0.6291,-0.6366,-0.6474,-0.6505,-0.6624,-0.68,-0.6922,-0.6973,-0.6727,-0.4972,-0.4289,-0.3846,-0.0987,-0.0,-0.0,-0.0,-0.0,-0.0,-0.0,0.0628,0.1789,0.3753,0.5636,0.7091,0.7118,0.7197,0.7834,1.0573,1.1297,1.2307,1.5463,1.7037,1.8422,2.0384,2.2349,2.3836,2.4224,2.3998,2.3674,2.3674,2.4767,2.5622,2.5622,2.7082,2.7885,2.7431,2.652,2.5131,2.3268,2.238,2.1761,2.1364,2.148,2.212,2.3047,2.3135,2.3135,2.3135,2.4777,2.5777,2.6237,3.1002,3.3959,3.5337,3.7729,3.9563,0.3715,0.0,0.0,0.3638,0.0,0.0,0.0,0.3265,0.32,0.3632,0.3554,0.3442,0.3744,0.3918,0.385,0.3266,0.0213,-0.2298,-0.2972,-0.4121,-0.4945,-0.5016,-0.5023,-0.5794,-0.7857,-0.7632,-0.8249,-1.023,-1.0855,-1.1209,-1.1209,-1.149,-1.1717,-1.1864,-1.1565,-1.1181,-1.0783,-0.9291,-0.8313,-0.7783,-0.6795,-0.6338,-0.6338,-0.6338,-0.6338,-0.6338,-0.6338,-0.6302,-0.6366,-0.6366,-0.6413,-0.6505,-0.6725,-0.6875,-0.6877,-0.5714,-0.3815,-0.1612,-0.0449,-0.0,-0.0,-0.0,-0.0,-0.0,-0.0,-0.0,0.0269,0.1429,0.2679,0.4111,0.6453,0.7078,0.745,0.8906,0.9353,1.0269,1.2934,1.4111,1.5431,1.7965,1.9472,2.0873,2.2765,2.3135,2.3444,2.4459,2.5539,2.654,2.7616,2.8688,2.9099,2.8476,2.7837,2.7109,2.6037,2.443,2.3608,2.377,2.2756,2.2492,2.3047,2.3135,2.3607,2.4618,2.4618,2.5694,2.7763,3.0985,3.3316,3.4778,3.76,3.9492,0.0,0.0,0.0,0.0,0.0,0.3714,0.0,0.0,0.0,0.3846,0.3712,0.0,0.0,0.0,0.0,0.4013,0.0,0.0,0.0,-0.3152,0.0,-0.4782,-0.484,-0.5517,-0.7233,-0.6913,-0.7368,-0.9035,-0.9907,-1.0502,-1.0815,-1.0948,-1.1243,-1.169,-1.0861,-1.0428,-1.041,-0.8666,-0.7706,-0.748,-0.6721,-0.6338,-0.6338,-0.6338,-0.6338,-0.6338,-0.6338,-0.6338,-0.6338,-0.6338,-0.6338,-0.6288,-0.6552,-0.6836,-0.6984,-0.6605,-0.431,-0.1251,-0.0359,-0.0,-0.0,-0.0,-0.0,-0.0,-0.0,0.0629,0.1347,0.1343,0.1341,0.2233,0.6088,0.7081,0.7104,0.7302,0.7444,0.8142,1.0323,1.1362,1.2751,1.6099,1.7165,1.8661,2.211,2.3086,2.4043,2.592,2.6852,2.7999,2.9668,3.0219,3.0141,2.9152,2.9051,2.8912,2.8442,2.693,2.6161,2.676,2.5239,2.4063,2.3684,2.329,2.4074,2.6155,2.4534,2.555,2.9289,3.106,3.292,3.4778,3.7729,3.9489,0.0,0.0,0.0,0.0,0.4053,0.0,0.0,0.0,0.3493,0.3269,0.0,0.0,0.0,0.0,0.0,0.0,0.0,0.0,-0.0821,-0.2555,-0.388,-0.4241,-0.4555,-0.5126,-0.6071,-0.7037,-0.7885,-0.8605,-0.8439,-0.8826,-1.0126,-1.0024,-1.0244,-1.1089,-1.067,-0.998,-0.9051,-0.8218,-0.7326,-0.649,-0.6338,-0.6338,-0.6338,-0.6338,-0.6338,-0.6338,-0.6338,-0.6338,-0.6338,-0.6338,-0.6338,-0.6278,-0.6434,-0.6606,-0.6427,-0.4617,-0.4964,-0.5711,-0.1428,-0.0,-0.0,-0.0,-0.0,-0.0,-0.0,0.2966,0.6314,0.6311,0.629,0.645,0.6996,0.7071,0.7146,0.7163,0.7285,0.753,0.7955,0.9987,1.2247,1.3927,1.6101,1.8488,2.1025,2.3073,2.4671,2.598,2.9366,3.1806,3.2034,3.3679,3.4714,3.4603,3.4589,3.3883,3.2006,3.1622,3.0784,2.906,2.8753,2.7763,2.5931,2.4074,2.4074,2.6155,2.6002,2.7002,2.9289,3.1985,3.3791,3.4778,3.8302,4.002,0.0,0.0,0.0,0.0,0.0,0.0,0.3553,0.0,0.3565,0.0,0.0,0.0,0.0,0.0,0.0,0.0,0.2836,0.0,0.0,0.0,-0.3768,0.0,0.0,0.0,-0.5087,-0.647,-0.7318,-0.72,-0.7362,-0.7813,-0.8644,-0.8628,-0.8803,-0.9493,-0.8743,-0.826,-0.807,-0.7202,-0.6623,-0.6338,-0.6338,-0.6338,-0.6338,-0.6338,-0.6338,-0.6338,-0.6338,-0.6338,-0.6338,-0.6338,-0.6338,-0.6268,-0.6332,-0.6424,-0.6286,-0.5496,-0.4259,-0.2702,-0.0704,-0.0,-0.0,-0.0,-0.0,-0.0,-0.0,0.1438,0.3595,0.6314,0.7125,0.7111,0.7091,0.7078,0.7068,0.7143,0.7258,0.739,0.7455,0.9141,1.0967,1.2363,1.4123,1.6337,1.8756,2.2138,2.5002,2.668,3.0054,3.2821,3.4062,3.4957,3.5668,3.6117,3.5797,3.535,3.4836,3.3331,3.2034,3.1129,2.883,2.7616,2.7987,2.6013,2.647,2.9744,2.9101,3.032,3.3518,3.4421,3.5676,3.7176,3.8684,3.9662,-0.0112,0.0,0.0,0.0,0.0,0.0,0.0,0.0,0.0,0.0,0.0,0.0,0.0,0.0,0.3492,0.3594,0.0,0.2808,0.0,-0.0726,0.0,0.0,0.0,0.0,0.0,-0.5513,-0.6148,-0.5953,-0.623,-0.6727,-0.7521,-0.7429,-0.758,-0.8159,-0.7351,-0.7068,-0.7339,-0.6379,-0.6044,-0.6196,-0.6196,-0.622,-0.6338,-0.6338,-0.6338,-0.6338,-0.6338,-0.6338,-0.6338,-0.6338,-0.6264,-0.6268,-0.6278,-0.628,-0.6314,-0.629,-0.3593,-0.0,-0.0,-0.0,-0.0,-0.0,-0.0,-0.0,-0.0,-0.0,0.0897,0.4942,0.6579,0.7118,0.7084,0.7081,0.7081,0.7058,0.7224,0.7319,0.7363,0.8586,1.0125,1.1407,1.2936,1.4893,1.8026,2.1549,2.4679,2.7176,3.0299,3.3127,3.5264,3.5668,3.6006,3.6554,3.6117,3.6006,3.6554,3.4523,3.3279,3.3279,3.0067,2.8537,2.9289,2.7842,2.8456,3.1505,3.1361,3.3061,3.6615,3.6288,3.7044,3.8908,3.9139,3.9542,0.0,0.0,0.0,0.1021,0.0,0.0,0.0,0.0,0.3785,0.0,0.0,0.0,0.4005,0.388,0.3736,0.363,0.2347,0.0,0.0,0.0,0.0,0.0,0.0,0.0,0.0,-0.4081,-0.4422,-0.525,-0.4816,-0.5272,-0.7002,-0.6675,-0.6822,-0.77,-0.7206,-0.6877,-0.6886,-0.6157,-0.5884,-0.6037,-0.6037,-0.6115,-0.6338,-0.6338,-0.6338,-0.6338,-0.6338,-0.6338,-0.6338,-0.6338,-0.6268,-0.6278,-0.6291,-0.6312,-0.6274,-0.6337,-0.3641,-0.0,-0.0,-0.0,-0.0,-0.0,-0.0,-0.0,-0.0,-0.0,0.0536,0.3035,0.5371,0.7094,0.7061,0.7068,0.7081,0.7058,0.7143,0.7187,0.7339,0.849,0.9952,1.1377,1.2936,1.5295,1.9812,2.1738,2.3762,2.6995,3.0299,3.3127,3.5264,3.6117,3.6554,3.6615,3.6615,3.6554,3.6615,3.5864,3.5424,3.5424,3.406,3.2096,2.9429,2.9213,2.9289,2.9366,3.2026,3.4434,3.6615,3.6584,3.7393,3.8908,3.9731,4.007,-0.313,-0.2959,-0.2426,-0.0158,-0.0102,0.0148,0.0,0.0,0.0,0.0,0.3914,0.3973,0.3929,0.3852,0.3734,0.3605,0.2294,0.1191,0.0,0.0,0.0,0.0,0.0,0.0,0.0,0.0,-0.3934,-0.4411,-0.4145,-0.4453,-0.5453,-0.5419,-0.5585,-0.5935,-0.5913,-0.5951,-0.6062,-0.5773,-0.5786,-0.603,-0.603,-0.6112,-0.6338,-0.6338,-0.6338,-0.6338,-0.6338,-0.6338,-0.6338,-0.6338,-0.6264,-0.6187,-0.5243,-0.4621,-0.4001,-0.2615,-0.121,-0.0,-0.0,-0.0,-0.0,-0.0,-0.0,-0.0,-0.0,-0.0,0.0179,0.0983,0.4032,0.6844,0.5808,0.6349,0.7081,0.7058,0.7139,0.7153,0.7207,0.8401,0.9908,1.1276,1.2819,1.4709,1.7072,2.035,2.421,2.8888,3.2748,3.5428,3.6134,3.6919,3.7557,3.8044,3.7674,3.7616,3.8101,3.6964,3.6228,3.6228,3.4493,3.3937,3.4872,3.3607,3.3303,3.4097,3.606,3.6939,3.6615,3.7642,3.8398,3.8908,3.9193,3.961,-0.449,-0.4484,-0.388,-0.1282,-0.1248,-0.1007,0.1966,0.2783,0.2952,0.2899,0.3593,0.3862,0.27,0.2931,0.339,0.3833,0.3091,0.1852,0.0,-0.0737,0.0,0.0,0.0,0.0,0.0,0.0,-0.3449,-0.3904,-0.3751,0.0,0.0,-0.4728,-0.4904,-0.505,-0.5203,-0.5355,-0.5508,-0.5508,-0.5633,-0.5874,-0.5874,-0.5979,-0.6179,-0.6179,-0.621,-0.6338,-0.6338,-0.6338,-0.6338,-0.6338,-0.6264,-0.6187,-0.5318,-0.4691,-0.3912,-0.1019,-0.0,-0.0,-0.0,-0.0,-0.0,-0.0,-0.0,-0.0,-0.0,-0.0,-0.0,-0.0,0.224,0.4582,0.4378,0.5725,0.7088,0.7068,0.7058,0.7139,0.7139,0.8313,0.9806,1.1253,1.3054,1.523,1.7773,2.1593,2.5326,2.8398,3.2388,3.5461,3.6461,3.7322,3.8173,3.9126,3.8788,3.8608,3.8809,3.8116,3.752,3.7084,3.6045,3.5815,3.6682,3.6121,3.5815,3.5906,3.789,3.8286,3.7024,3.8003,3.8635,3.8908,3.8635,3.9102]},{"header":{"parameterUnit":"m.s-1","parameterCategory":1,"la1":30.6,"la2":29.2853,"lo1":-89.7004,"lo2":-87.6739,"dy":0.0162,"dx":0.0183,"nx":112,"ny":82,"refTime":"2024-09-11T18:00:00:Z","depth":0,"parameterNumber":3,"parameterNumberName":"V-component_of_WINDS"},"data":[0.0,0.0,0.0,0.0,0.0,0.0,0.0,0.0,0.0,0.0,0.0,0.0,0.0,0.0,0.0,0.0,0.0,0.0,0.0,0.0,0.0,0.0,0.0,0.0,0.0,0.0,0.0,0.0,0.0,0.0,0.0,0.0,0.0,0.0,0.0,0.0,0.0,0.0,0.0,0.0,0.0,0.0,0.0,0.0,0.0,0.0,0.0,0.0,0.0,0.0,0.0,0.0,0.0,0.0,0.0,0.0,0.0,0.0,0.0,0.0,0.0,0.0,0.0,0.0,0.0,0.0,0.0,0.0,0.0,0.0,0.0,0.0,0.0,0.0,0.0,0.0,0.0,0.0,0.0,0.0,0.0,0.0,0.0,0.0,0.0,0.0,0.0,0.0,0.0,0.0,1.6563,1.8912,2.1118,2.2271,2.1838,2.2103,2.0973,1.788,0.0,0.0,0.0,0.0,0.0,0.0,0.0,0.0,0.0,0.0,0.0,0.0,0.0,0.0,0.0,0.0,0.0,0.0,0.0,0.0,0.0,0.0,0.0,0.0,0.0,0.0,0.0,0.0,0.0,0.0,0.0,0.0,0.0,0.0,0.0,0.0,0.0,0.0,0.0,0.0,0.0,0.0,0.0,0.0,0.0,0.0,0.0,0.0,0.0,0.0,0.0,0.0,0.0,0.0,0.0,0.0,0.0,0.0,0.0,0.0,0.0,0.0,0.0,0.0,0.0,0.0,0.0,0.0,0.0,0.0,0.0,0.0,0.0,0.0,0.0,0.0,0.0,0.0,0.0,0.0,0.0,0.0,0.0,0.0,0.0,0.0,0.0,0.0,0.0,0.0,0.0,0.0,0.0,0.0,0.0,0.0,0.0,0.0,0.0,0.0,0.0,0.0,0.0,0.0,1.6563,2.0782,2.2089,2.2506,2.2225,2.1963,2.0773,1.8367,0.0,0.0,0.0,0.0,0.0,0.0,0.0,0.0,0.0,0.0,0.0,0.0,0.0,0.0,0.0,0.0,0.0,0.0,0.0,0.0,0.0,0.0,0.0,0.0,0.0,0.0,0.0,0.0,0.0,0.0,0.0,0.0,0.0,0.0,0.0,0.0,0.0,0.0,0.0,0.0,0.0,0.0,0.0,0.0,0.0,0.0,0.0,0.0,0.0,0.0,0.0,0.0,0.0,0.0,0.0,0.0,0.0,0.0,0.0,0.0,0.0,0.0,0.0,0.0,0.0,0.0,0.0,0.0,0.0,0.0,0.0,0.0,0.0,0.0,0.0,0.0,0.0,0.0,0.0,0.0,0.0,0.0,0.0,0.0,0.0,0.0,0.0,0.0,0.0,0.0,0.0,0.0,0.0,0.0,0.0,0.0,0.0,0.0,0.0,0.0,0.0,0.0,0.0,1.6623,1.8538,2.1395,2.2849,2.3193,2.2055,2.2026,2.0899,1.809,1.5934,0.0,0.0,0.0,0.0,0.0,0.0,0.0,0.0,0.0,0.0,0.0,0.0,0.0,0.0,0.0,0.0,0.0,0.0,0.0,0.0,0.0,0.0,0.0,0.0,0.0,0.0,0.0,0.0,0.0,0.0,0.0,0.0,0.0,0.0,0.0,0.0,0.0,0.0,0.0,0.0,0.0,0.0,0.0,0.0,0.0,0.0,0.0,0.0,0.0,0.0,0.0,0.0,0.0,0.0,0.0,0.0,0.0,0.0,0.0,0.0,0.0,0.0,0.0,0.0,0.0,0.0,0.0,0.0,0.0,0.0,0.0,0.0,0.0,0.0,0.0,0.0,0.0,0.0,0.0,0.0,0.0,0.0,0.0,0.0,0.0,0.0,0.0,0.0,0.0,0.0,0.0,0.0,0.0,0.0,0.0,0.0,0.0,0.0,0.0,0.0,0.0,0.0,1.8957,2.0543,2.159,2.3229,2.358,2.1982,2.1797,2.0569,1.7682,1.52,0.0,0.0,0.0,0.0,0.0,0.0,0.0,0.0,0.0,0.0,0.0,0.0,0.0,0.0,0.0,0.0,0.0,0.0,0.0,0.0,0.0,0.0,0.0,0.0,0.0,0.0,0.0,0.0,0.0,0.0,0.0,0.0,0.0,0.0,0.0,0.0,0.0,0.0,0.0,0.0,0.0,0.0,0.0,0.0,0.0,0.0,0.0,0.0,0.0,0.0,0.0,0.0,0.0,0.0,0.0,0.0,0.0,0.0,0.0,0.0,0.0,0.0,0.0,0.0,0.0,0.0,0.0,0.0,0.0,0.0,0.0,0.0,0.0,0.0,0.0,0.0,0.0,0.0,0.0,0.0,0.0,0.0,0.0,0.0,0.0,0.0,0.0,0.0,0.0,0.0,0.0,0.0,0.0,0.0,0.0,0.0,0.0,0.0,0.0,0.0,0.0,0.0,1.9211,2.159,2.168,2.2873,2.3266,2.2325,2.081,1.9111,1.7337,1.4227,0.0,0.0,0.0,0.0,0.0,0.0,0.0,0.0,0.0,0.0,0.0,0.0,0.0,0.0,0.0,0.0,0.0,0.0,0.0,0.0,0.0,0.0,0.0,0.0,0.0,0.0,0.0,0.0,0.0,0.0,0.0,0.0,0.0,0.0,0.0,0.0,0.0,0.0,0.0,0.0,0.0,0.0,0.0,0.0,0.0,0.0,0.0,0.0,0.0,0.0,0.0,0.0,0.0,0.0,0.0,0.0,0.0,0.0,0.0,0.0,0.0,0.0,0.0,0.0,0.0,0.0,0.0,0.0,0.0,0.0,0.0,0.0,0.0,0.0,0.0,0.0,0.0,0.0,0.0,0.0,0.0,0.0,0.0,0.0,0.0,0.0,0.0,0.0,0.0,0.0,0.0,0.0,0.0,0.0,0.0,0.0,0.0,0.0,0.0,0.0,0.0,0.0,1.8508,2.0767,0.0,2.2488,2.2735,2.1976,2.0956,1.9296,1.6897,0.0,0.0,0.0,0.0,0.0,0.0,0.0,0.0,0.0,0.0,0.0,0.0,0.0,0.0,0.0,0.0,0.0,0.0,0.0,0.0,0.0,0.0,0.0,0.0,0.0,0.0,0.0,0.0,0.0,0.0,0.0,0.0,0.0,0.0,0.0,0.0,0.0,0.0,0.0,0.0,0.0,0.0,0.0,0.0,0.0,0.0,0.0,0.0,0.0,0.0,0.0,0.0,0.0,0.0,0.0,0.0,0.0,0.0,0.0,0.0,0.0,0.0,0.0,0.0,0.0,0.0,0.0,0.0,0.0,0.0,0.0,0.0,0.0,0.0,0.0,0.0,0.0,0.0,0.0,0.0,0.0,0.0,0.0,0.0,0.0,0.0,0.0,0.0,0.0,0.0,0.0,0.0,0.0,0.0,0.0,0.0,0.0,0.0,0.0,0.0,0.0,0.0,1.5514,1.8253,2.0363,0.0,2.1979,2.2099,2.144,2.0572,1.9046,1.6642,0.0,0.0,0.0,0.0,0.0,0.0,0.0,0.0,0.0,0.0,0.0,0.0,0.0,0.0,0.0,0.0,0.0,0.0,0.0,0.0,0.0,0.0,0.0,0.0,0.0,0.0,0.0,0.0,0.0,0.0,0.0,0.0,0.0,0.0,0.0,0.0,0.0,0.0,0.0,0.0,0.0,0.0,0.0,0.0,0.0,0.0,0.0,0.0,0.0,0.0,0.0,0.0,0.0,0.0,0.0,0.0,0.0,0.0,0.0,0.0,0.0,0.0,0.0,0.0,0.0,0.0,0.0,0.0,0.0,0.0,0.0,0.0,0.0,0.0,0.0,0.0,0.0,0.0,0.0,0.0,0.0,0.0,0.0,0.0,0.0,0.0,0.0,0.0,0.0,0.0,0.0,0.0,0.0,0.0,0.0,0.0,0.0,0.0,0.0,0.0,0.0,0.0,1.5634,1.8672,2.0722,2.0722,2.1291,2.1425,2.0782,1.948,1.8061,0.0,0.0,0.0,0.0,0.0,0.0,0.0,0.0,0.0,0.0,0.0,0.0,0.0,0.0,0.0,0.0,0.0,0.0,0.0,0.0,0.0,0.0,0.0,0.0,0.0,0.0,0.0,0.0,0.0,0.0,0.0,0.0,0.0,0.0,0.0,0.0,0.0,0.0,0.0,0.0,0.0,0.0,0.0,0.0,0.0,0.0,0.0,0.0,0.0,0.0,0.0,0.0,0.0,0.0,0.0,0.0,0.0,0.0,0.0,0.0,0.0,0.0,0.0,0.0,0.0,0.0,0.0,0.0,0.0,0.0,0.0,0.0,0.0,0.0,0.0,0.0,0.0,0.0,0.0,0.0,0.0,0.0,0.0,0.0,0.0,0.0,0.0,0.0,0.0,0.0,0.0,0.0,0.0,0.0,0.0,0.0,0.0,0.0,0.0,0.0,0.0,0.0,0.0,1.5634,1.8672,2.0722,2.0722,2.0887,2.0917,2.0737,1.9899,1.8579,1.6611,0.0,0.0,0.0,0.0,0.0,0.0,0.0,0.0,0.0,0.0,0.0,0.0,0.0,0.0,0.0,0.0,0.0,0.0,0.0,0.0,0.0,0.0,0.0,0.0,0.0,0.0,0.0,0.0,0.0,0.0,0.0,0.0,0.0,0.0,0.0,0.0,0.0,0.0,0.0,0.0,0.0,0.0,0.0,0.0,0.0,0.0,0.0,0.0,0.0,0.0,0.0,0.0,0.0,0.0,0.0,0.0,0.0,0.0,0.0,0.0,0.0,0.0,0.0,0.0,0.0,0.0,0.0,0.0,0.0,0.0,0.0,0.0,0.0,0.0,0.0,0.0,0.0,0.0,0.0,0.0,0.0,0.0,0.0,0.0,0.0,0.0,0.0,0.0,0.0,0.0,0.0,0.0,0.0,0.0,0.0,0.0,0.0,0.0,0.0,0.0,0.0,0.0,1.5634,1.8672,2.0617,2.0333,2.0557,2.0602,2.0318,1.9929,1.8846,1.6853,0.0,0.0,0.0,0.0,0.0,0.0,0.0,0.0,0.0,0.0,0.0,0.0,0.0,0.0,0.0,0.0,0.0,0.0,0.0,0.0,0.0,0.0,0.0,0.0,0.0,0.0,0.0,0.0,0.0,0.0,0.0,0.0,0.0,0.0,0.0,0.0,0.0,0.0,0.0,0.0,0.0,0.0,0.0,0.0,0.0,0.0,0.0,0.0,0.0,0.0,0.0,0.0,0.0,0.0,0.0,0.0,0.0,0.0,0.0,0.0,0.0,0.0,0.0,0.0,0.0,0.0,0.0,0.0,0.0,0.0,0.0,0.0,0.0,0.0,0.0,0.0,0.0,0.0,0.0,0.0,0.0,0.0,0.0,0.0,0.0,0.0,0.0,0.0,0.0,0.0,0.0,0.0,0.0,0.0,0.0,0.0,0.0,0.0,0.0,0.0,0.0,0.0,1.5799,1.8732,2.0498,1.9929,2.0378,2.0453,1.9824,1.972,1.8989,1.7302,0.0,0.0,0.0,0.0,0.0,0.0,0.0,0.0,0.0,0.0,0.0,0.0,0.0,0.0,0.0,0.0,0.0,0.0,0.0,0.0,0.0,0.0,0.0,0.0,0.0,0.0,0.0,0.0,0.0,0.0,0.0,0.0,0.0,0.0,0.0,0.0,0.0,0.0,0.0,0.0,0.0,0.0,0.0,0.0,0.0,0.0,0.0,0.0,0.0,0.0,0.0,0.0,0.0,0.0,0.0,0.0,0.0,0.0,0.0,0.0,0.7006,0.0,0.0,0.0,0.0,0.0,0.0,0.0,0.0,0.0,0.0,0.0,0.0,0.0,0.0,0.0,0.0,0.0,0.0,0.0,0.0,0.0,0.0,0.0,0.0,0.0,0.0,0.0,0.0,0.0,0.0,0.0,0.0,0.0,0.0,0.0,0.0,0.0,0.0,0.0,0.0,0.0,1.6997,1.9301,2.0857,2.1231,2.0932,2.0662,2.0513,1.9989,1.9185,1.7961,1.6434,0.0,0.0,0.0,0.0,0.0,0.0,0.0,0.0,0.0,0.0,0.0,0.0,0.0,0.0,0.0,0.0,0.0,0.0,0.0,0.0,0.0,0.0,0.0,0.0,0.0,0.0,0.0,0.0,0.0,0.0,0.0,0.0,0.0,0.0,0.0,0.0,0.0,0.0,0.0,0.0,0.0,0.0,0.0,0.0,0.0,0.0,0.0,0.0,0.0,0.0,0.0,0.0,0.0,0.0,0.0,0.0,0.0,0.0,0.0,0.0,0.7608,0.0,0.0,0.0,0.0,0.0,0.0,0.0,0.0,0.0,0.0,0.0,0.0,0.0,0.0,0.0,0.0,0.0,0.0,0.0,0.0,0.0,0.0,0.0,0.0,0.0,0.0,0.0,0.0,0.0,0.0,0.0,0.0,0.0,0.0,0.0,0.0,0.0,0.0,0.0,0.0,1.7399,1.975,2.1321,2.1665,2.168,2.1395,2.0767,2.0378,1.9671,1.8452,1.7318,0.0,0.0,0.0,0.0,0.0,0.0,0.0,0.0,0.0,0.0,0.0,0.0,0.0,0.0,0.0,0.0,0.0,0.0,0.0,0.0,0.0,0.0,0.0,0.0,0.0,0.0,0.0,0.0,0.0,0.0,0.0,0.0,0.0,0.0,0.0,0.0,0.0,0.0,0.0,0.0,0.0,0.0,0.0,0.0,0.0,0.0,0.0,0.0,0.0,0.0,0.0,0.0,0.0,0.6745,0.7518,0.8873,0.9267,0.9428,0.9385,0.8529,0.8371,0.8721,0.8448,0.0,0.0,0.0,0.0,0.0,0.0,0.0,0.0,0.0,0.0,0.0,0.0,0.0,0.0,0.0,0.0,0.0,0.0,0.0,0.0,0.0,0.0,0.0,0.0,1.7034,1.7294,1.4651,0.0,0.0,0.0,0.0,0.0,0.0,0.0,0.0,0.0,0.0,0.0,1.7951,2.0363,2.1904,2.2024,2.2413,2.2233,2.1141,2.0842,2.0265,1.9211,1.8284,1.7644,0.0,0.0,0.0,0.0,0.0,0.0,0.0,0.0,0.0,0.0,0.0,0.0,0.0,0.0,0.0,0.0,0.0,0.0,0.0,0.0,0.0,0.0,0.0,0.0,0.0,0.0,0.0,0.0,0.0,0.0,0.0,0.0,0.1429,0.2498,0.0,0.0,0.0,0.0,0.0,0.0,0.0,0.0,0.0,0.0,0.0,0.0,0.0,0.4976,0.5544,0.5618,0.6067,0.6841,0.7497,0.8231,0.8982,0.9965,1.0438,1.0436,1.0262,0.0,0.9788,0.9737,0.0,0.0,0.0,0.0,0.0,0.0,0.0,0.0,0.0,0.0,0.0,0.0,0.0,0.0,0.0,0.0,0.0,0.0,0.0,0.0,0.0,0.0,1.7765,1.7811,1.8021,1.8059,0.0,1.6127,1.4607,1.3789,1.2804,0.0,0.0,0.0,0.0,0.0,0.0,0.0,1.9989,2.162,2.2757,2.3295,2.2951,2.2649,2.2428,2.138,2.0752,2.0947,1.9818,1.9388,1.9984,1.8053,0.0,0.0,0.0,0.0,0.0,0.0,0.0,0.0,0.0,0.0,0.0,0.0,0.0,0.0,0.0,0.0,0.0,0.0,0.0,0.0,0.0,0.0,0.0,0.0,0.0,0.0,0.0,0.0,0.0,0.0676,0.1235,0.2087,0.2098,0.2174,0.0,0.0,0.0,0.0,0.0,0.0,0.0,0.0,0.0,0.4538,0.5128,0.5502,0.5584,0.5653,0.6124,0.6892,0.7846,0.8737,0.9545,1.0565,1.1049,1.1049,1.1049,1.0951,1.0815,1.0894,1.1276,1.1814,0.0,0.0,0.0,0.0,1.3991,1.4676,1.538,1.5625,1.568,1.574,0.0,0.0,0.0,0.0,0.0,0.0,0.0,1.66,0.0,0.0,1.9585,1.9585,2.0156,2.068,2.068,1.9719,1.8193,0.0,1.5513,1.4972,1.3779,0.0,0.0,0.0,0.0,1.8672,2.0976,2.2084,2.2921,2.3535,2.3355,2.3056,2.2753,2.2143,2.1665,2.1312,2.102,2.0943,2.1121,2.0084,1.9009,0.0,0.0,0.0,0.0,0.0,0.0,0.0,0.0,0.0,0.0,0.0,0.0,0.0,0.0,0.0,0.0,0.0,0.0,0.0,0.0,0.0,0.0,0.0,0.0,0.0,0.0,0.0,0.0,0.0383,0.0843,0.1293,0.1887,0.2234,0.0,0.0,0.0,0.0,0.0,0.0,0.2757,0.3516,0.4207,0.4911,0.5585,0.5785,0.5552,0.563,0.6046,0.6666,0.7838,0.8867,0.9789,1.079,1.1364,1.165,1.165,1.179,1.1971,1.2096,1.2356,1.2776,1.3906,1.4542,1.4898,1.5365,1.5902,1.6563,1.7511,1.797,1.8218,1.8202,1.7811,1.7225,1.6559,0.0,0.0,0.0,0.0,1.8417,1.9233,2.0307,2.1176,2.1176,2.1901,2.2631,2.2631,2.2286,2.1202,0.0,1.8226,1.784,1.6124,0.0,0.0,0.0,0.0,2.0064,2.1739,2.2517,2.3086,2.355,2.3595,2.3415,2.2951,2.2813,2.2475,2.1852,2.1929,2.1972,2.1847,2.1597,2.0839,1.9502,0.0,0.0,0.0,0.0,0.0,0.0,0.0,0.0,0.0,0.0,0.0,0.0,0.0,0.0,0.0,0.0,0.0,0.0,0.0,0.0,0.0,0.0,0.0,0.0,0.0,0.0,0.0,0.0,0.0,0.0104,0.2113,0.0,0.0,0.0,0.0,0.1455,0.134,0.1529,0.1818,0.2124,0.324,0.5303,0.5586,0.5801,0.596,0.5942,0.6006,0.6081,0.7291,0.8358,0.9336,1.0375,1.1347,1.2258,1.2258,1.2757,1.3546,1.3394,1.3328,1.3539,1.5478,1.6254,1.6311,1.6331,1.7127,1.8215,1.8396,1.8906,1.9701,2.0866,2.0552,1.9723,2.0225,1.9648,0.0,0.0,2.0062,2.0567,2.0618,2.1572,2.2471,2.2471,2.2551,2.2631,2.2631,2.2605,2.2207,0.0,2.0298,1.9621,1.8837,0.0,1.9895,2.0437,2.1096,2.1814,2.2532,2.3176,2.3565,2.3595,2.3595,2.3595,2.355,2.3011,2.2828,2.3203,2.2429,2.2164,2.2538,2.2337,2.187,2.1102,1.8843,0.0,0.0,0.0,0.0,0.0,0.0,0.0,0.0,0.0,0.0,0.0,0.0,0.0,0.0,0.0,0.0,0.0,0.0,0.0,0.0,0.0,0.0,0.0,0.0,0.0,0.0,0.0,0.0,0.0,0.0763,0.0,0.117,0.111,0.1594,0.2718,0.1344,0.0531,0.0603,0.0705,0.1164,0.191,0.3727,0.5217,0.6197,0.6159,0.6179,0.6179,0.7294,0.8313,0.9296,1.034,1.1316,1.2305,1.2952,1.3382,1.3787,1.494,1.5309,1.5112,1.6148,1.6566,1.6566,1.6566,1.7082,1.7885,1.9033,1.9565,1.991,2.1124,2.1217,2.0928,2.1129,2.0928,2.0727,2.1267,2.1568,2.1807,2.2159,2.2948,2.3546,2.3032,2.4023,2.495,2.4518,2.4789,2.4857,2.4118,2.3109,2.2145,2.149,2.1885,2.2396,2.2539,2.3146,2.3819,2.4477,2.4388,2.4253,2.4253,2.3864,2.3595,2.3595,2.3709,2.3613,2.3164,2.3095,2.2883,2.2438,2.2343,2.2192,2.1904,2.0145,1.8268,0.0,0.0,0.0,0.0,0.0,0.0,0.0,0.0,0.0,0.0,0.0,0.0,0.0,0.0,0.0,0.0,0.0,0.0,0.0,0.0,0.0,0.0,0.0,0.0,0.0,0.0,0.0,0.0,0.0,0.0323,0.1094,0.046,0.0667,0.2288,0.0913,0.0,0.0,0.0,0.0,0.0,0.1817,0.392,0.6437,0.6424,0.6417,0.641,0.7111,0.7969,0.8975,1.0044,1.1047,1.2056,1.3112,1.3926,1.4649,1.5944,1.6669,1.7014,1.71,1.7352,1.761,1.776,1.8281,1.9105,2.0534,2.0965,2.104,2.1799,2.2046,2.2046,2.2046,2.2046,2.2121,2.2485,2.2761,2.307,2.3382,2.4279,2.4894,2.4368,2.5384,2.6336,2.5892,2.6176,2.6381,2.5986,2.5023,2.4105,2.3468,2.3923,2.4303,2.4298,2.4657,2.5121,2.5555,2.5226,2.4956,2.4956,2.4358,2.3939,2.3939,2.4013,2.3732,2.2961,2.3026,2.285,2.2225,2.2107,2.2135,2.231,2.0779,1.9022,1.705,0.0,0.0,0.0,0.0,0.0,0.0,0.0,0.0,0.0,0.0,0.0,0.0,0.0,0.0,0.0,0.0,0.0,0.0,0.0,0.0,0.0,0.0,0.0,-0.041,-0.0115,-0.0063,-0.0,0.0,-0.007,-0.0211,-0.0071,0.0,0.0,0.0,0.0,0.0,0.0,0.0,0.0,0.0,0.2094,0.6412,0.6569,0.6639,0.6702,0.6702,0.7188,0.8246,0.9375,1.0509,1.1564,1.2718,1.4343,1.622,1.6228,1.745,1.9209,1.8369,1.8569,1.9393,1.998,2.0907,2.2049,2.2873,2.3128,2.3128,2.3128,2.3128,2.3128,2.3128,2.3188,2.3175,2.3175,2.376,2.4403,2.4403,2.5453,2.6553,2.6486,2.6539,2.6525,2.651,2.651,2.651,2.651,2.5992,2.5409,2.4901,2.5265,2.5674,2.5674,2.5674,0.0,2.5674,2.5659,2.563,2.563,2.5046,2.4642,2.4627,2.3865,2.3207,2.2761,2.2295,2.2047,2.2047,2.1807,2.1857,2.2316,2.0795,1.9292,1.7879,0.0,0.0,0.0,0.0,0.0,0.0,0.0,0.0,0.0,0.0,0.0,0.0,0.0,0.0,0.0,0.0,0.0,0.0,0.0,0.0,0.0,-0.5498,-0.4409,-0.2541,-0.2259,-0.172,-0.0144,0.0,-0.1194,-0.4275,-0.1783,0.0,0.0,0.0,0.0,0.0,0.0,0.0,0.0,0.0,0.0586,0.1843,0.5121,0.6732,0.6809,0.6709,0.7188,0.8246,0.9375,1.0509,1.1564,1.3396,1.4941,1.6228,1.7009,1.8073,1.933,1.9859,2.0177,2.0456,2.1333,2.225,2.3072,2.3333,2.3808,2.4356,2.4356,2.4356,2.4356,2.4356,2.477,2.5301,2.5301,2.5868,2.6493,2.6493,2.7187,2.7609,2.6666,2.7241,2.7741,2.6717,2.693,2.7306,2.7306,2.7157,2.6965,2.6837,2.6922,2.7036,2.7036,2.7036,0.0,2.7036,2.6617,2.6318,2.6318,2.6108,2.5766,2.5247,2.5227,2.4721,2.3478,2.3177,2.3029,2.3029,2.2919,2.2954,2.3105,2.1049,1.9799,0.0,0.0,0.0,0.0,0.0,0.0,0.0,0.0,0.0,0.0,0.0,0.0,0.0,0.0,0.0,0.0,0.0,0.0,0.0,0.0,0.0,0.0,-0.5935,-0.5457,-0.4469,-0.4396,-0.4024,-0.2786,-0.1998,-0.2503,-0.4941,-0.3743,-0.247,-0.1562,-0.0583,0.0,0.0,0.0,0.0,0.0,0.0,0.0,0.0,0.2669,0.4918,0.6929,0.6909,0.7151,0.782,0.948,1.0554,1.1222,1.3446,1.5208,1.669,1.7252,1.8424,0.0,0.0,0.0,0.0,0.0,2.3766,2.4347,2.4128,2.4406,2.482,2.482,2.482,2.482,2.482,2.518,2.566,2.6008,2.6654,2.7343,2.768,2.8339,2.8688,2.7921,2.8429,2.8725,2.7607,2.7736,2.7919,2.7619,2.7625,0.0,2.7625,2.7625,2.7625,2.7625,2.7625,2.7625,2.7625,2.7245,2.7006,2.7006,2.6713,2.626,2.5558,2.5576,0.0,0.0,0.0,2.3273,2.3273,2.365,0.0,0.0,0.0,0.0,0.0,0.0,0.0,0.0,2.1414,2.1684,0.0,0.0,0.0,0.0,0.0,0.0,0.0,0.0,0.0,0.0,0.0,0.0,0.0,0.0,0.0,0.0,-0.5804,-0.5911,-0.6081,-0.6211,-0.6304,-0.6366,-0.492,-0.3982,-0.3982,-0.5667,-0.6002,-0.4124,-0.2022,-0.0675,-0.0422,0.0,0.0,0.0,0.0,0.0,0.0,0.0,0.2146,0.6284,0.6637,0.6992,0.7436,0.9584,1.0697,1.0956,1.313,1.5311,1.7342,1.7342,1.863,2.0566,1.9875,2.0749,2.256,2.4237,2.5231,2.5624,2.5172,0.0,0.0,2.5008,2.5061,2.5126,2.5126,2.5242,2.5601,2.6392,2.71,2.7874,2.8555,2.9289,2.9789,2.9699,2.9684,2.9505,2.8861,2.8712,2.8502,2.7814,2.7679,2.7715,2.7675,2.7675,2.7625,2.7625,2.766,2.771,2.771,2.776,2.7795,2.7795,2.7315,0.0,2.6076,2.5717,2.5057,2.3959,2.3638,2.3487,2.3372,2.4264,2.476,2.476,2.476,2.5101,2.5862,2.6505,2.686,2.6894,2.4272,2.4069,0.0,0.0,0.0,0.0,0.0,0.0,0.0,0.0,0.0,0.0,0.0,0.0,0.0,0.0,0.0,-0.632,-0.6275,-0.6264,-0.6532,-0.6576,-0.6623,-0.652,-0.6241,-0.6086,-0.6172,-0.6662,-0.6754,-0.6208,-0.5874,-0.4865,-0.2998,-0.1063,0.0,0.0,0.0,0.0,0.0,0.0,0.0447,0.143,0.0,0.0,0.9112,1.0111,1.1123,1.2072,1.347,1.5311,1.7342,1.7342,1.863,2.0624,2.1257,2.2652,2.4484,2.4847,2.5558,2.6276,2.6176,2.6138,2.6138,2.6138,2.6585,2.7144,2.7144,2.8153,0.0,2.9458,3.0028,3.0718,3.0834,3.1036,3.1016,3.0447,3.0328,3.0163,2.952,2.94,2.919,2.8532,2.8412,2.8372,2.833,2.7894,2.7625,2.7625,2.7993,2.8334,2.8334,2.8732,2.9042,2.9042,2.9367,2.9302,2.8572,2.8334,2.7891,2.6997,2.6333,2.5749,2.5129,2.5848,2.6268,2.6268,2.6268,2.664,2.735,2.7502,2.7926,2.8518,2.796,2.7588,0.0,0.0,0.0,0.0,0.0,0.0,0.0,0.0,0.0,0.0,0.0,-0.5243,-0.6165,0.0,-0.6452,-0.6531,-0.6544,-0.6532,-0.6678,-0.6766,-0.6763,-0.6624,-0.6732,-0.6739,-0.6824,-0.697,-0.7058,-0.6957,-0.7041,-0.6545,-0.5455,-0.4204,-0.2503,-0.0089,0.0,0.0,0.0,0.0,0.1165,0.3587,0.402,0.5622,0.832,0.9937,1.0869,1.1558,1.33,1.5311,1.7423,1.8461,1.9894,2.1375,2.1811,2.2925,2.4337,2.537,2.6094,2.6589,2.6973,2.7095,2.7162,2.7604,2.8051,2.8363,2.8363,2.8939,2.9766,3.0208,3.0584,3.097,3.1409,3.1482,3.145,3.1106,3.1016,3.0836,3.0178,3.0356,3.0426,2.9739,2.9602,2.9475,2.9131,2.8495,2.8203,2.8446,2.8779,2.8966,2.8966,2.9225,2.9406,2.9406,2.9673,2.9556,2.8867,2.8665,2.8423,2.8039,2.7921,2.755,2.6935,2.7516,2.7841,2.7841,2.7841,2.8213,2.8958,2.8958,2.955,3.0671,3.0671,3.0226,0.0,0.0,0.0,0.0,0.0,0.0,0.0,0.0,-0.6448,-0.6458,-0.5279,-0.4669,-0.6134,-0.6569,-0.6731,-0.662,-0.6664,-0.6836,-0.7115,-0.7229,-0.7346,-0.7465,-0.7147,-0.7056,-0.7225,-0.7421,-0.7489,-0.7489,-0.7418,-0.7344,-0.7078,-0.7091,-0.5374,-0.1519,-0.0447,-0.0269,-0.0718,-0.1168,0.0987,0.567,0.4113,0.4641,0.7163,0.9323,1.0524,1.1037,1.362,1.5718,1.7504,1.9678,2.1155,2.2027,2.2253,2.2925,2.3963,2.5581,2.644,2.685,2.7484,2.7802,2.8051,2.8748,2.9129,2.9254,2.9254,2.938,2.9628,3.0329,3.0524,3.0703,3.1351,3.1482,3.1482,3.1482,3.1582,3.1603,3.1031,3.1497,3.1758,3.0954,3.0916,3.0798,3.0094,2.952,2.9123,2.9076,2.9271,2.9406,2.9406,2.9585,2.9761,2.9761,2.9761,2.9518,2.9004,2.882,2.8733,2.8561,2.8975,2.8962,2.8384,2.8908,2.9268,2.9343,2.9496,2.9833,3.0445,3.0598,3.124,3.2313,3.2425,3.2252,-0.0147,-0.0197,-0.0151,-0.0055,0.0,0.0,0.0,0.0,-0.699,-0.6993,-0.6669,-0.6537,-0.6734,-0.6711,-0.6702,-0.6854,-0.6892,-0.7289,-0.8463,-0.8674,-0.9022,-1.0024,-0.8317,-0.7464,-0.8599,-0.8703,-0.8715,-0.8715,-0.8719,-0.8193,-0.7143,-0.7074,-0.6815,-0.6358,-0.2234,-0.1072,-0.3215,-0.53,-0.3948,0.0805,0.1959,0.4178,0.7129,0.8448,1.0183,1.2322,1.5508,1.709,1.7504,1.9678,2.1155,2.2103,2.2999,2.3963,2.4862,2.5075,2.6183,2.7604,2.767,2.8247,2.8876,2.9002,2.9504,3.0133,3.0133,3.0644,3.1219,3.1351,3.1351,3.1409,3.1467,3.1482,3.1482,3.1482,3.2007,3.2461,3.2384,3.2929,3.3022,3.1737,3.1994,3.2141,3.1438,3.1214,3.0398,2.8126,2.8717,2.9406,2.9406,3.0351,3.1015,3.1015,3.1015,3.0982,3.0897,3.0853,3.0572,2.993,2.9935,2.9648,2.8918,2.958,3.0145,3.0491,3.1147,3.1509,3.1595,3.234,3.2561,3.2347,3.2966,3.3509,0.0,0.0,0.0,0.0,0.0,0.0,0.0,-0.2633,-0.5481,-0.6795,-0.6941,-0.6833,-0.6833,-0.6861,-0.6976,0.0,-0.757,-0.8285,-0.8794,-0.9492,-1.0048,-1.0349,-0.9675,-0.9314,-0.9836,-0.9923,-0.9923,-0.9923,-0.9923,-0.9405,-0.8189,-0.8113,-0.7863,-0.7084,-0.525,-0.4186,-0.3819,-0.6202,-0.5018,-0.0185,0.1458,0.3897,0.7098,0.8328,1.0251,1.2817,1.6414,1.7969,1.8137,2.0407,2.2326,2.3766,2.4225,2.5191,2.6304,2.5996,2.6676,2.7802,2.8298,2.9002,2.9827,3.0329,3.0703,3.1029,3.1029,3.1219,3.1482,3.1482,3.1482,3.1582,3.2007,3.212,3.2216,3.261,3.268,3.2586,3.2586,3.3145,3.3451,3.2855,3.2997,3.2976,3.2255,3.1813,3.1045,2.9577,3.005,3.0432,3.0016,3.0421,3.0711,3.0692,3.1184,3.1545,3.1545,3.1823,3.1721,3.1136,3.1082,3.0851,3.0315,3.0581,3.1036,3.1641,3.191,3.2441,3.3176,3.3505,3.3963,3.4478,3.477,3.5422,0.0,0.0,0.0,0.0,0.0,0.0,0.0,-0.1832,-0.4299,-0.6592,-0.7031,-0.6987,-0.6987,-0.7071,-0.7228,-0.7577,-0.8364,-0.9152,-0.9749,-1.0469,-1.0969,-1.1138,-1.1275,-1.1464,-1.1464,-1.1177,-1.1037,-1.1037,-1.1186,-1.0702,-0.9578,-0.954,-0.9224,-0.8352,-0.82,-0.7237,-0.5558,-0.7366,-0.6367,-0.2366,-0.0279,0.2496,0.585,0.8376,1.0617,1.2649,1.6628,1.8415,1.8587,2.1237,2.3363,2.4993,2.5304,2.6312,2.7528,2.7392,2.7501,2.7802,2.8684,2.9566,3.045,3.1219,3.1482,3.1482,3.1482,3.1482,3.1524,3.1739,3.1796,3.191,3.2437,3.2749,3.2933,3.3235,3.3251,3.3145,3.3145,3.3531,3.3887,3.3887,3.3887,3.3725,3.3258,3.2729,3.2266,3.1795,3.1865,3.1758,3.1096,3.1105,3.1197,3.1182,3.163,3.1932,3.1932,3.2054,3.2144,3.2173,3.2154,3.2184,3.2238,3.22,3.2517,3.3222,3.3222,3.3613,3.4359,3.4719,3.5199,3.5802,3.6162,3.6899,0.0,0.0,0.0,0.0,0.0,0.0,0.0,-0.1902,-0.4262,-0.6599,-0.7064,-0.7132,-0.7132,-0.7136,-0.7489,-0.8627,-0.889,-0.9666,-1.1895,-1.2027,-1.2294,-1.3389,-1.3484,-1.349,-1.349,-1.2698,-1.2242,-1.2242,-1.2563,-1.2263,-1.1112,-1.1318,-1.1436,-1.1344,-1.0402,-0.9763,-0.9322,-0.9939,-0.9308,-0.7426,-0.4158,-0.0753,0.2733,0.8529,1.1263,1.1634,1.636,1.8415,1.8665,2.2076,2.405,2.5071,2.6136,2.715,2.8217,2.9073,2.8699,2.7802,2.8684,2.9566,3.045,3.1219,3.1482,3.1482,3.1482,3.1482,3.164,3.2382,3.2547,3.2586,3.2586,3.3093,3.3391,3.2788,3.3582,3.4528,3.4528,3.4576,3.4576,3.4576,3.4576,3.4576,3.4543,3.4495,3.4495,3.4462,3.3922,3.3272,3.2554,3.2954,3.3313,3.3296,3.2679,3.228,3.228,3.1636,3.1773,3.2991,3.3043,3.356,3.473,3.48,3.4991,3.5512,3.5512,3.5247,3.4783,3.602,3.6168,3.537,3.6594,3.7452,0.0,0.0,0.0,0.0,0.0,-0.0858,-0.3978,-0.2926,-0.2294,-0.615,-0.6857,-0.6749,-0.6719,-0.6698,-0.7141,-0.8325,-0.9288,-1.0439,-1.2043,-1.2946,-1.3432,-1.3579,-1.3814,-1.3861,-1.3579,-1.3561,0.0,-1.347,-1.3726,-1.3436,-1.2275,-1.2518,-1.229,-1.1543,-1.1218,-1.0641,-0.9712,-0.9953,-0.936,-0.7821,-0.2033,0.2485,0.5976,0.8989,1.0749,1.1781,1.5951,1.8351,1.9304,2.2131,2.4346,2.606,2.6382,2.737,2.8649,2.8994,2.899,2.9145,3.0583,3.171,3.2359,3.2199,3.2183,3.2093,3.1601,3.1853,3.216,3.1951,3.2216,3.2586,3.2586,3.3093,3.3649,3.3887,3.3937,3.3937,3.3937,3.3937,3.3937,3.3937,3.4284,3.4576,3.4576,3.4576,3.4736,3.5207,3.3941,3.2867,3.2595,3.2702,3.2937,3.3288,3.3903,3.4424,3.4792,3.5057,3.5239,3.5355,3.4848,3.4751,3.5217,3.473,3.4903,3.5829,3.5882,3.6201,3.6877,3.7302,3.7514,3.7584,3.8008,3.8392,0.0,0.0,0.0,0.0,-0.1299,-0.2915,-0.4214,-0.3474,-0.2985,-0.4901,-0.5942,-0.6448,-0.6417,-0.6585,-0.7179,-0.8187,-0.9732,-1.1178,-1.219,-1.3206,-1.3901,-1.3814,-1.4372,-1.4699,0.0,0.0,0.0,-1.4186,-1.4549,-1.4421,-1.3585,-1.3938,-1.3767,-1.3101,-1.3168,-1.2585,-1.1245,-1.0905,-0.9817,-0.7969,-0.2172,0.2439,0.6005,0.8779,1.0665,1.2014,1.635,1.87,1.9761,2.2541,2.4553,2.5964,2.6789,2.787,2.9214,2.9977,3.0591,3.1172,3.1551,3.2283,3.3025,3.287,3.2706,3.2437,3.2018,3.2034,3.2176,3.1951,3.2216,3.2641,3.2895,3.3443,3.3987,3.4186,3.4087,3.3987,3.3987,3.3786,3.3735,3.4202,3.4479,3.4576,3.4576,3.4382,3.4382,3.48,3.4164,3.3597,3.3663,3.381,3.404,3.437,3.5098,3.5699,3.6041,3.6389,3.6621,3.6779,3.6109,3.6072,3.6859,3.5846,3.5844,3.7076,3.6843,3.7076,3.7893,3.8099,3.8267,3.8415,3.8627,3.8969,-0.03,-0.0236,-0.0165,-0.0172,-0.3541,-0.5763,-0.1345,-0.3605,-0.5846,-0.3348,-0.4659,-0.622,-0.6207,0.0,-0.7576,-0.8349,-1.0165,-1.1746,-1.236,-1.3169,-1.3877,0.0,0.0,0.0,0.0,0.0,0.0,-1.4585,0.0,-1.5362,-1.5087,-1.5611,-1.592,-1.592,-1.592,-1.5235,-1.3878,-1.2528,-1.0498,-0.7969,-0.4409,-0.0799,0.2901,0.8052,1.1039,1.2134,1.713,1.9389,1.9761,2.3374,2.4872,2.5115,2.7267,2.867,2.977,3.1761,3.3101,3.3636,3.1634,3.1575,3.2513,3.3283,3.3125,3.2617,3.2572,3.2123,3.1787,3.249,3.2679,3.278,3.3387,3.402,3.4333,3.3684,3.4087,3.4528,3.4528,3.4087,3.4053,3.5316,3.5052,3.4576,3.4576,3.4087,3.3633,3.3684,3.4684,3.5436,3.5588,3.6097,3.6457,3.6457,3.6257,3.6114,3.6167,3.5825,3.6152,3.7366,3.6924,3.7507,3.9542,3.8113,3.7871,3.9107,3.8382,3.7995,3.7995,3.8478,3.8446,3.7962,3.8465,3.9129,-0.4844,-0.4018,-0.266,-0.2642,-0.3561,-0.4634,-0.5,-0.4381,-0.3989,-0.494,-0.5294,-0.5409,-0.5393,-0.639,0.0,-0.8981,-1.0573,0.0,-1.3761,-1.49,0.0,-1.6052,0.0,-1.7912,-1.8002,-1.8605,0.0,0.0,-1.6973,-1.6679,-1.6599,-1.6999,-1.7225,-1.7225,-1.7225,-1.617,-1.3872,-1.1648,-0.9694,-0.7908,-0.4399,-0.0799,0.2801,0.6816,0.9813,1.2037,1.5269,1.7719,1.9761,2.3374,2.5294,2.6213,2.7602,2.8743,2.9871,3.1093,3.2177,3.2975,3.3164,3.3833,3.4619,3.4319,3.4113,3.3888,3.3395,3.3501,3.3686,3.3379,3.3276,3.3203,3.2894,3.2943,3.3093,3.2895,3.3391,3.3836,3.3836,3.4137,3.4431,3.4783,3.4736,3.4576,3.4576,3.4479,3.4496,3.5005,3.5328,3.5537,3.5453,3.637,3.7135,3.7488,3.769,3.7917,3.8287,3.8431,3.877,3.9353,3.8663,3.8738,3.9924,3.8973,3.8739,3.9462,3.927,3.9175,3.9175,3.9044,3.8924,3.8802,3.8725,3.9245,-0.6428,-0.6168,-0.5119,-0.5176,-0.5061,-0.5247,-0.612,-0.5173,-0.4377,-0.5173,-0.5187,-0.5074,-0.5193,-0.6455,-0.7821,0.0,0.0,0.0,-1.3408,-1.5155,-1.644,0.0,-1.8551,0.0,-1.9739,-2.0404,-2.0536,0.0,-1.8799,-1.8128,-1.8068,-1.8308,-1.8503,-1.8503,-1.7963,-1.6445,-1.3872,-1.242,-1.076,-0.889,-0.6289,-0.3192,0.05,0.4798,0.8093,1.0356,1.4046,1.6786,1.8875,2.1947,2.3922,2.5147,2.6789,2.8275,2.9732,3.1275,3.2678,3.3973,3.4476,3.5052,3.5444,3.5055,3.4726,3.4412,3.4038,3.4,3.3969,3.3607,3.3487,3.3465,3.3421,3.3192,3.3082,3.3392,3.3754,3.4046,3.4046,3.4608,3.4971,3.4642,3.4382,3.4087,3.3786,3.3735,3.3836,3.4202,3.5001,3.5487,3.5402,3.6271,3.6943,3.7193,3.7787,3.8282,3.8548,3.9061,3.9462,3.9645,3.901,3.8992,3.984,3.8856,3.8674,3.958,3.9363,3.9344,3.9599,3.9414,3.9502,3.9883,3.9556,4.0129,-0.6522,-0.7095,-0.7094,-0.7094,-0.696,-0.6665,-0.5972,-0.5889,-0.5708,-0.4816,0.0,-0.5038,-0.5356,-0.6822,-0.809,-0.8204,0.0,-1.2719,-1.271,-1.4937,-1.6845,-1.7609,-1.978,-2.1282,-2.1542,-2.2492,-2.2677,-2.1658,-2.0576,-1.9808,-1.9398,-1.9594,-1.9761,-1.9761,-1.8596,-1.6908,-1.4626,-1.4345,-1.2989,-1.0765,-0.9076,-0.6481,-0.2996,0.1884,0.5461,0.797,1.2693,1.5651,1.7435,1.9949,2.1817,2.328,2.5619,2.7531,2.9428,3.1766,3.3685,3.5148,3.5439,3.5504,3.5504,3.5504,3.51,3.4607,3.4607,3.4218,3.3769,3.3769,3.3694,3.3788,3.4373,3.3967,3.3671,3.4198,3.4628,3.4851,3.4782,3.5224,3.5465,3.4627,3.3937,3.3339,3.2933,3.2749,3.2641,3.2841,3.4235,3.5251,3.516,3.5951,3.6498,3.6498,3.7285,3.779,3.779,3.8487,3.8971,3.898,3.867,3.8841,3.9576,3.8493,3.8416,3.9645,3.9196,3.922,3.9712,3.9804,4.0197,4.0957,4.0664,4.1381,-0.6919,-0.7058,-0.7061,-0.7061,-0.6946,-0.6664,-0.6291,-0.5874,0.0,0.0,-0.5214,-0.5288,-0.5897,-0.7198,-0.8492,-0.9419,-1.1001,-1.2791,-1.4825,-1.6719,-1.8397,0.0,-2.1636,-2.2785,-2.2765,-2.296,0.0,0.0,-2.2589,-2.2013,-2.0927,-2.0989,-2.1025,-2.1025,-1.9852,-1.894,-1.8556,-1.6483,-1.5158,-1.4671,-1.1589,-0.8532,-0.5353,-0.3269,0.0889,0.644,0.8445,0.0,1.6168,1.8557,2.0935,2.3258,2.5489,2.7152,2.8645,3.1542,3.282,3.3325,3.492,3.5504,3.5504,3.5504,3.5429,3.5325,3.5325,3.525,3.516,3.516,3.4741,3.4355,3.448,3.3968,3.3502,3.3622,3.4607,3.5518,3.5518,3.5633,3.5317,3.4016,3.3235,3.3093,3.4087,3.3339,3.3002,3.4087,3.4511,3.4543,3.4005,3.5753,3.7058,3.7058,3.721,3.7323,3.7323,3.7807,3.8237,3.8504,3.8822,3.9167,3.9576,3.9376,3.9477,4.0002,3.9924,4.0024,4.0336,4.0788,4.107,4.1241,4.1619,4.2304,-0.7027,-0.7061,-0.7139,-0.7139,-0.6858,-0.6561,-0.6629,0.0,0.0,0.0,-0.5611,-0.5606,-0.6107,-0.7275,0.0,-0.9185,-1.0779,-1.2699,-1.4732,-1.6883,0.0,-2.0485,-2.2148,-2.3135,0.0,-2.3135,-2.3135,-2.3135,-2.3135,-2.2862,-2.2306,-2.2217,-2.1943,-2.1293,-2.0755,-2.0124,-1.9497,-1.7632,-1.6411,-1.5624,-1.3437,-1.0923,-0.8276,-0.6054,-0.2079,0.2981,0.5723,0.8735,1.1929,1.5078,1.8276,2.1335,2.2879,2.5027,2.7462,3.0624,3.2055,3.2765,3.481,3.5504,3.5504,3.5504,3.5504,3.5504,3.5504,3.5504,3.5504,3.5504,3.5265,3.5011,3.5011,3.4785,3.4698,3.5049,3.5669,3.6364,3.6729,3.6492,3.5807,3.4374,3.3115,3.2545,3.3407,3.2206,3.1825,3.3752,3.4062,3.4066,3.4146,3.4804,3.5341,3.5341,3.5882,3.6462,3.6899,3.774,3.8283,3.8422,3.8936,3.9152,3.9015,3.946,3.9979,4.0557,4.0912,4.1248,4.1531,4.2009,4.2449,4.287,4.2955,4.343,-0.7142,-0.7291,-0.7397,-0.7102,-0.6759,-0.6539,-0.6785,-0.6226,0.0,0.0,-0.6038,-0.6017,-0.6413,0.0,-0.8218,0.0,-1.0373,-1.2262,-1.4356,-1.6666,-1.8841,0.0,-2.2197,0.0,-2.3135,-2.3299,0.0,-2.3464,-2.3724,-2.3724,-2.3464,-2.3222,-2.2931,-2.2416,-2.2161,-2.163,-2.0639,-1.9472,-1.8172,-1.6929,-1.5644,-1.3872,-1.16,-0.8412,-0.4946,-0.1097,0.2975,0.5726,0.766,1.1125,1.4477,1.769,1.9281,2.2006,2.5491,2.846,3.065,3.2386,3.4172,3.5118,3.5504,3.5504,3.5504,3.5504,3.5504,3.5504,3.5504,3.5504,3.5504,3.5504,3.5504,3.5674,3.6009,3.6718,3.6794,3.6869,3.7443,3.7008,3.6125,3.5043,3.3444,3.2531,3.3161,3.176,3.1324,3.3413,3.374,3.3905,3.4313,3.401,3.3715,3.3609,3.4415,3.529,3.5995,3.713,3.7839,3.7839,3.8461,3.8734,3.8495,3.9339,4.0171,4.0995,4.1793,4.2324,4.2545,4.3129,4.3709,4.4344,4.4231,4.4551,-0.741,-0.782,-0.8416,-0.7235,-0.661,-0.6388,-0.6682,0.0,0.0,-0.6553,-0.643,-0.6389,-0.7211,-0.749,-0.7922,-0.8977,-0.9596,-1.1247,-1.4985,-1.658,-1.8505,-2.1438,0.0,0.0,-2.3135,-2.4049,-2.4617,-2.4617,-2.5641,-2.5724,-2.4702,-2.3627,-2.3973,-2.5964,-2.5031,-2.4436,-2.4341,-2.3085,-2.1938,-2.0738,-1.9563,-1.7702,-1.5158,-1.1738,-0.8437,-0.525,-0.1195,0.2489,0.0,0.7674,0.9689,1.1687,1.4946,1.8356,2.1736,2.3971,2.7454,3.1263,3.2315,3.3912,3.5504,3.5504,3.5504,3.5504,3.5504,3.5504,3.5504,3.5504,3.5504,3.5504,3.5504,3.6009,3.6705,3.7499,3.7156,3.6638,3.6862,3.6273,3.5692,3.5632,3.4361,3.3788,3.5094,3.4109,3.3442,3.4287,3.4415,3.4241,3.3668,3.4097,3.4152,3.3578,3.3654,3.3788,3.3891,3.4997,3.5677,3.5677,3.6784,3.7724,3.8468,3.9335,4.0188,4.0974,4.2266,4.2827,4.2667,4.381,4.4408,4.4492,4.515,4.5491,-0.8655,-0.9163,-0.9549,-0.9048,-0.8339,-0.785,-0.8211,0.0,-0.6602,-0.7315,-0.7032,-0.6806,-0.7131,-0.7341,-0.7682,-0.8293,-0.9054,-1.0527,-1.3484,-1.5085,-1.7149,-2.0294,-2.1465,0.0,0.0,0.0,-2.5041,-2.5797,-2.6224,-2.6554,-2.6778,-2.5714,-2.5557,-2.6483,-2.6058,-2.5797,-2.5797,-2.3947,-2.3142,-2.3275,-2.0703,-1.8867,-1.7728,-1.5731,-1.1983,-0.7079,-0.5405,-0.2761,0.0,0.3592,0.6435,0.9083,1.1687,1.4708,1.8308,2.2634,2.5491,2.7364,2.9718,3.1057,3.1762,3.1762,3.1762,3.2217,3.4714,3.5504,3.5504,3.5504,3.4633,3.3596,3.3596,3.417,3.5217,3.7318,3.7219,3.6583,3.6664,3.6438,3.6071,3.5681,3.4258,3.3511,3.4716,3.2707,3.1732,3.4132,3.4132,3.3889,3.393,3.3915,3.3888,3.3941,3.4045,3.4783,3.6457,3.6429,3.6783,3.7861,3.808,3.8448,3.9137,4.0277,4.1551,4.2963,4.3714,4.4161,4.4332,4.4976,4.5273,4.5293,4.551,4.5586,-0.9411,-0.9867,-1.0315,-1.0004,-0.9259,-0.8781,0.0,-0.8045,-0.7253,-0.7791,-0.7404,-0.6979,-0.6979,-0.7268,-0.7569,-0.7835,-0.8819,-1.035,-1.2655,-1.4292,-1.6272,0.0,0.0,-2.176,0.0,-2.5204,-2.6284,-2.7383,-2.7476,-2.7799,-2.8597,-2.7879,-2.7476,-2.7476,-2.7128,-2.6964,-2.6964,-2.5292,-2.4756,-2.5155,-2.2689,-2.1325,-2.0731,-1.9592,-1.6183,-1.1238,-0.9944,-0.7691,0.0,-0.2571,0.0688,0.4399,0.5751,0.9901,1.5431,1.9546,2.2303,2.4221,2.6554,2.7729,2.8273,2.8654,2.8744,2.9366,3.2667,3.3693,3.3693,3.3693,3.2597,3.1636,3.2486,3.293,3.3862,3.6734,3.6384,3.5604,3.64,3.5965,3.5468,3.5737,3.4624,3.3914,3.4685,3.2692,3.0672,2.9701,3.2133,3.2962,2.9694,2.9057,2.8973,2.9274,3.2637,3.566,3.77,3.7351,3.7775,3.9565,3.954,3.9745,4.0367,4.1533,4.2864,4.4267,4.4924,4.5306,4.5464,4.5742,4.5878,4.5832,4.5703,4.5635,-0.919,-0.9809,-1.0655,-0.9423,-0.8734,-0.8442,-0.8548,-0.7846,-0.7253,-0.7791,-0.7404,-0.6979,-0.6979,-0.7268,-0.7569,-0.7835,-0.8948,-1.0639,-1.3033,-1.4631,0.0,0.0,0.0,-2.0711,-2.2755,-2.6063,-2.8518,-2.9702,-2.9792,0.0,-2.9792,-2.9792,-2.9792,-2.9792,-2.8688,-2.8084,-2.8084,-2.8084,-2.7522,-2.6472,-2.6472,-2.5732,-2.4503,-2.3228,-2.1351,-1.8905,-1.4774,-1.204,0.0,-1.1394,-0.8575,-0.3772,-0.3772,0.3229,1.3211,1.3301,1.7241,2.2627,2.2617,2.4002,2.5916,2.7105,2.7489,2.7747,2.8998,2.9366,2.9366,2.9366,2.9366,2.9992,3.2734,3.293,3.3125,3.595,3.4464,3.3194,3.5965,3.4398,3.3263,3.6027,3.5952,3.5501,3.5487,3.5483,3.1427,1.9632,2.7939,3.1187,1.9431,1.7904,1.7904,1.7888,2.8433,3.5726,3.6175,3.6818,3.7966,3.9765,4.058,4.138,4.2249,4.3106,4.3801,4.4295,4.5604,4.6056,4.5607,4.5936,4.6033,4.5899,4.5832,4.5737,-1.0933,-1.1409,-1.1668,-1.0568,-1.0454,-1.0279,-0.95,-0.8789,-0.8417,-0.8656,-0.8119,-0.7739,-0.8103,-0.8229,-0.8684,-0.9817,-1.0372,-1.1347,-1.3398,0.0,0.0,-1.953,-2.313,-2.5712,0.0,0.0,-2.9443,-2.9792,-3.0419,-3.0758,-3.0758,-3.0758,-3.0482,-2.9792,-2.9456,-2.9275,-2.9275,-2.8518,-2.8347,-2.8712,-2.7221,-2.6685,-2.6943,-2.647,-2.4576,-2.1516,-2.0087,-1.7854,-1.5041,-1.4634,-1.2852,-1.0035,-0.7481,-0.2126,0.458,0.8119,1.308,1.8126,1.9232,2.0052,2.0775,2.1742,2.2013,2.21,2.2457,2.5721,2.8805,2.6542,2.653,2.7001,2.6291,2.712,2.8549,3.0008,3.0346,3.0564,3.1411,3.2064,3.2494,3.2932,3.4349,3.2893,2.4766,3.0083,3.1432,1.9507,1.4,1.5752,2.8254,1.5677,0.8738,1.6802,2.8366,3.5521,3.5692,3.8962,4.1916,4.4126,4.2637,4.2143,4.3153,4.3931,4.4763,4.5646,4.6072,4.6229,4.6075,4.6101,4.6008,4.5813,4.5483,4.5419,0.0,-1.1597,-1.1702,-1.108,-1.0986,-1.0862,-0.9951,-0.9358,-0.8993,-0.9079,-0.8638,-0.8316,-0.8635,-0.8898,-0.9412,-1.0356,-1.0978,-1.2024,0.0,0.0,0.0,-2.1251,0.0,0.0,0.0,-2.917,-2.9934,-3.0279,-3.0908,-3.1315,-3.1669,-3.1742,-3.1476,-3.0846,-3.0495,-3.0495,-3.0846,-3.0164,-3.0164,-3.0846,-2.9437,-2.918,-2.9821,-2.9745,-2.83,-2.5795,-2.5344,-2.3439,0.0,-1.9036,-1.7497,-1.5638,-1.2104,-0.7893,-0.3172,0.2689,0.735,1.1225,1.3613,1.569,1.7399,1.7953,1.8542,1.9147,1.9405,2.239,2.5157,2.3127,2.31,2.3604,2.3388,2.443,2.5973,2.7753,2.8744,2.9479,2.9984,3.1081,3.2195,3.2841,3.4365,3.3114,2.5744,2.3107,1.9555,1.2163,0.4731,0.1595,0.5984,-0.747,-1.2437,0.0863,0.8901,1.753,2.7938,3.1556,3.7006,4.5765,4.4632,4.391,4.4593,4.5053,4.5607,4.6289,4.6308,4.6308,4.6308,4.6173,4.6047,4.5911,4.5545,4.549,0.0,-1.0616,-1.0854,-1.0777,-1.0613,-1.0366,-1.006,-0.9538,0.0,-0.917,-0.8948,-0.8773,-0.8904,-0.9399,-0.9831,-1.001,-1.1195,-1.2851,0.0,-1.6602,0.0,0.0,-2.5624,0.0,-2.8274,-2.939,-3.0355,-3.1254,-3.1389,-3.1742,-3.2664,-3.2678,-3.2735,-3.2862,-3.1933,-3.1874,-3.265,-3.2664,-3.2721,-3.2778,-3.2721,-3.2721,-3.2778,-3.2848,-3.2283,0.0,-3.0286,-2.8623,-2.6428,-2.443,-2.2669,-2.0891,-1.7757,-1.4179,-1.0032,-0.3761,0.0,0.2475,0.5659,1.0249,1.4777,1.5152,1.6578,1.8295,1.8988,1.933,1.9497,1.9405,1.9397,2.0155,2.3127,2.4052,2.489,2.8005,2.8802,2.9213,3.0511,3.0363,3.0898,3.4004,3.5072,3.4502,3.1425,1.3716,-0.0202,-0.1003,-0.1708,-1.1276,-3.6633,-4.3513,-4.0621,-2.6368,-2.4761,-1.4503,1.1025,1.5195,2.402,4.1895,4.4044,4.466,4.4655,4.5696,4.6297,4.6297,4.6307,4.6308,4.6308,4.6062,4.5991,4.6036,4.5747,4.567,-1.0077,0.0,-1.0567,-0.9529,-1.0049,-1.0588,0.0,-0.9765,-0.9891,0.0,0.0,-0.9627,-1.07,-1.0761,-1.1151,-1.2789,-1.4198,-1.5484,-1.667,0.0,0.0,-2.6864,-2.9457,-3.0935,-3.0498,-3.1362,-3.2033,-3.2249,-3.2961,-3.3449,-3.3671,-3.3671,-3.4254,-3.5616,-3.475,-3.4042,-3.3514,-3.3514,-3.3782,-3.4332,-3.3782,-3.3782,-3.4398,-3.5135,-3.4976,-3.3981,-3.3636,-3.2755,-3.1471,-3.0112,-2.8008,-2.5628,-2.4811,-2.1144,-1.6392,-1.6014,-1.1397,-0.5295,-0.4315,-0.0676,0.442,0.8398,1.277,1.6456,1.6636,1.795,1.9314,1.8411,1.8772,1.948,1.9331,2.0408,2.1797,2.2882,2.3909,2.4675,2.4958,2.0385,1.8169,2.4751,3.1124,2.4868,-0.8683,-0.6418,-0.2576,-1.0227,-1.7851,-2.3923,-2.6979,-3.7324,-4.3387,-4.11,-4.0846,-3.8232,-3.182,-0.9528,0.6091,1.0621,2.1993,2.8565,2.8561,3.9965,4.6321,4.6302,4.6307,4.6308,4.6308,4.5134,4.4901,4.5545,4.4355,4.4316,-0.9504,-1.0353,-1.1095,-1.0362,-1.0935,-1.1478,-1.0765,0.0,0.0,0.0,0.0,0.0,-1.155,-1.2288,-1.322,-1.4626,-1.6345,0.0,0.0,0.0,-2.737,-2.9534,-3.1061,-3.2105,0.0,-3.2522,-3.282,-3.3241,-3.3739,-3.4336,-3.5115,-3.518,-3.5821,-3.7084,-3.6974,-3.649,-3.567,-3.5622,-3.5843,-3.6214,-3.6076,-3.6181,-3.6629,-3.7472,-3.7552,-3.6969,-3.6188,-3.5539,-3.4921,-3.3134,-3.1418,-2.9822,-2.7944,-2.5574,-2.3116,-2.2048,-1.8806,-1.4539,-1.2229,-0.8041,-0.2746,0.255,0.6211,0.9033,1.1404,1.3069,1.4571,1.6319,1.7283,1.7784,1.795,1.9083,1.9601,1.736,2.0029,2.3138,2.3056,2.2861,2.0557,1.3831,0.8756,-0.1971,-2.5749,-2.0853,-1.392,-1.479,-2.5502,-3.277,-3.0675,-3.8864,-4.5102,-4.5658,-4.6078,-4.6302,-4.6302,-3.0916,-1.8208,-1.1082,0.3955,1.2466,1.2532,3.4275,4.6318,4.6303,4.6297,4.6308,4.6308,4.5504,4.5103,4.5047,4.4493,4.4345,-0.9285,-1.072,-1.2196,-1.1805,-1.2219,-1.2625,-1.2229,0.0,0.0,0.0,0.0,0.0,0.0,0.0,0.0,0.0,0.0,0.0,-2.4627,-2.6738,-2.8947,-3.1667,-3.1981,0.0,-3.424,-3.3819,-3.3736,-3.4522,-3.4589,-3.523,-3.6722,-3.6783,-3.7188,-3.806,-3.8712,-3.8821,-3.8421,-3.8133,-3.8133,-3.8404,-3.864,-3.8913,-3.9158,-3.9645,-3.9856,-3.9853,-3.8507,-3.7861,-3.7568,-3.5401,-3.4258,-3.3609,-3.0132,-2.9136,-2.9264,-2.5809,-2.4129,-2.2999,-1.8193,-1.3259,-0.8348,-0.39,-0.1855,-0.0392,0.4126,0.5513,0.6496,1.126,1.4146,1.5934,1.6573,1.7853,1.7719,1.2747,1.5708,2.018,2.2549,2.4364,1.9539,-0.0595,-1.6947,-2.7998,-2.9553,-2.9772,-2.6939,-1.8417,-2.8309,-3.7153,-3.8212,-4.2227,-4.4918,-4.4605,-4.5615,-4.632,-4.632,-4.6318,-4.0736,-2.7524,-1.4403,-0.4897,-0.0202,2.5232,4.1466,4.6214,4.6294,4.6293,4.6308,4.598,4.5402,4.4612,4.4787,4.4472,-1.0916,-1.2781,-1.3985,-1.1757,-1.2257,-1.3252,-1.317,0.0,0.0,0.0,0.0,0.0,0.0,0.0,0.0,0.0,0.0,-2.4319,0.0,0.0,-3.129,-3.2585,0.0,-3.5824,-3.6045,-3.6613,-3.7037,-3.7188,-3.7247,-3.7306,-3.7573,-3.7632,-3.8197,-3.9461,-3.9615,-4.0163,-4.1153,-3.9563,-3.9563,-4.1153,-4.0129,-4.0375,-4.1752,-4.1531,-4.1598,-4.1832,-4.1331,-4.0793,-4.0292,-3.988,-3.8603,-3.6821,-3.6131,-3.4607,-3.2577,-3.1931,-2.9545,-2.596,-2.1395,-1.7508,-1.4484,-1.3684,-1.0354,-0.651,-0.5711,-0.5513,-0.5005,-0.2711,0.6557,1.4863,1.0601,1.2916,1.5601,1.2384,0.7517,0.7171,2.0297,0.048,-2.0872,-2.4488,-2.0873,-1.9906,-2.83,-2.9794,-2.9242,-2.7728,-2.9532,-3.1967,-3.4377,-3.7376,-4.0131,-4.2393,-4.4831,-4.631,-4.631,-4.6314,-4.5261,-4.2866,-4.0515,-2.744,-0.1099,0.4548,1.95,4.5783,4.6291,4.6288,4.6308,4.4525,4.384,4.4152,4.2936,4.2687,-1.1071,-1.2934,-1.4604,-1.4038,-1.5451,-1.6863,-1.6529,0.0,0.0,0.0,0.0,0.0,0.0,0.0,-2.0455,-2.4626,0.0,-2.8225,-3.1435,-3.2124,-3.2894,0.0,0.0,-3.6674,-3.7109,-3.7541,-3.7822,-3.7822,-3.7822,-3.8117,-3.8863,-3.8863,-3.9512,-4.0845,-4.0909,-4.1332,-4.2302,-4.1063,-4.0943,-4.181,-4.1682,-4.2042,-4.2796,-4.3167,-4.3402,-4.3508,-4.3025,-4.2687,-4.2372,-4.2049,-4.1286,-4.0214,-3.8824,-3.7465,-3.6059,-3.4026,-3.1845,-2.9412,-2.5508,-2.2379,-1.9626,-1.6718,-1.4151,-1.2154,-1.2196,-1.2139,-1.2314,-1.2807,-0.3223,0.7356,0.7774,0.1369,-0.62,-0.9884,-0.5262,0.049,0.2162,-1.444,-2.9781,-2.9779,-2.6051,-2.4372,-2.9022,-2.9773,-2.9776,-2.9839,-3.1067,-3.2468,-3.3715,-3.6276,-3.8488,-3.9779,-4.2427,-4.4082,-4.4082,-4.5443,-4.6302,-4.6302,-4.6306,-3.9905,-2.5588,-0.8914,0.6751,2.0998,3.7753,4.6309,4.6292,4.5331,4.4434,4.3611,4.323,4.2834,-1.1217,-1.2928,-1.4972,-1.6078,0.0,-1.9595,-1.9834,0.0,0.0,0.0,0.0,0.0,0.0,-2.1942,0.0,-2.9073,-3.0293,-3.1442,-3.356,-3.3686,-3.4241,-3.6252,-3.6753,-3.7243,-3.8003,-3.8237,-3.8414,-3.8547,-3.8531,-3.8957,-3.9924,-4.0004,-4.0481,-4.1497,-4.1757,-4.2181,-4.2831,-4.2592,-4.2397,-4.2315,-4.2923,-4.3354,-4.3677,-4.4317,-4.4631,-4.4682,-4.4168,-4.3826,-4.3651,-4.3208,-4.2938,-4.2608,-4.0609,-3.9779,-3.9293,-3.5884,-3.4252,-3.3303,-3.013,-2.7222,-2.4281,-2.0181,-1.8029,-1.7095,-1.7341,-1.7237,-1.7464,-1.9682,-1.2863,-0.3606,0.1944,-0.8437,-2.1891,-2.7652,-1.775,-0.8452,-1.3742,-2.2737,-2.9783,-2.9839,-2.9784,-2.9767,-2.9767,-2.9769,-2.9792,-2.9792,-3.1565,-3.3085,-3.349,-3.5551,-3.7168,-3.7619,-3.9797,-4.1216,-4.1209,-4.314,-4.465,-4.5292,-4.5937,-4.6283,-4.6324,-2.0009,-0.373,-0.0076,2.3353,3.8773,4.5442,4.5473,4.4364,4.2296,4.2847,4.2436,-1.2115,-1.3784,-1.5446,-1.6337,-1.7403,0.0,-2.1813,-2.161,0.0,0.0,0.0,0.0,0.0,-2.6964,-2.8981,-3.023,-3.1384,-3.2902,-3.5131,0.0,-3.5509,-3.6561,-3.7735,-3.8589,-3.8874,-3.9514,-4.017,-4.0651,-4.0698,-4.062,-4.0556,-4.0563,-4.0606,-4.075,-4.1565,-4.2395,-4.3235,-4.4033,-4.4195,-4.3825,-4.341,-4.383,-4.4947,-4.4707,-4.4757,-4.5052,-4.4688,-4.4233,-4.3718,-4.3651,-4.331,-4.2766,-4.2608,-4.2341,-4.1765,-3.9358,-3.8264,-3.7605,-3.5167,-3.1764,-2.8461,-2.8108,-2.4662,-2.0953,-2.1983,-2.1572,-2.0989,-2.2195,-2.0953,-1.7781,-1.1734,-1.1303,-1.4848,-2.4434,-2.7236,-2.533,-1.6713,-2.2785,-2.9834,-2.9762,-2.9788,-2.9814,-2.9814,-2.9842,-2.9792,-2.9792,-2.9945,-3.0661,-3.2195,-3.3445,-3.4843,-3.6461,-3.7624,-3.8294,-3.8302,-3.8474,-3.9701,-4.2337,-4.4883,-4.6291,-4.6318,-3.0288,-1.4682,-0.0304,0.2202,1.639,4.2961,4.2952,4.1795,3.96,3.9915,4.0044,-1.2448,-1.4881,-1.7375,-1.7706,0.0,0.0,0.0,0.0,0.0,0.0,0.0,0.0,0.0,0.0,-3.2171,-3.2705,-3.4233,-3.5803,-3.712,-3.7215,-3.7473,-3.8301,-3.8807,-3.9147,-3.9234,-3.9494,-3.9739,-3.9939,-4.0135,-4.036,-4.0673,-4.0866,-4.1135,-4.1502,-4.1829,-4.2154,-4.2492,-4.2812,-4.3045,-4.3196,-4.4078,-4.4764,-4.5239,-4.5352,-4.5475,-4.5592,-4.5417,-4.5237,-4.5052,-4.5014,-4.4871,-4.4597,-4.3933,-4.3478,-4.3015,-4.1789,-4.1483,-4.1283,-3.837,-3.5922,-3.3649,-3.1268,-2.791,-2.4826,-2.4506,-2.3352,-2.239,-2.3614,-2.3579,-2.2176,-1.8297,-1.8704,-2.1392,-2.6055,-2.7833,-2.7631,-2.4762,-2.7144,-2.983,-2.977,-2.9795,-3.0114,-3.1209,-3.1329,-3.1712,-3.2821,-3.2945,-3.3192,-3.3825,-3.4278,-3.4799,-3.5438,-3.7438,-3.9634,-4.198,-4.2201,-4.2932,-4.4628,-4.4112,-4.3486,-4.2888,-3.2587,-1.8387,-0.0352,0.1082,0.6371,1.6181,3.2534,4.0001,3.9194,3.991,3.9825,-1.3453,-1.5929,-1.8575,0.0,0.0,0.0,0.0,0.0,0.0,0.0,0.0,0.0,0.0,0.0,0.0,0.0,-3.5987,-3.7367,-3.786,-3.8102,-3.8318,-3.8656,-3.9039,-3.9242,-3.9189,-3.9402,-3.9643,-3.9966,-4.013,-4.0397,-4.0714,-4.097,-4.1177,-4.1392,-4.1661,-4.1859,-4.2006,-4.2253,-4.2566,-4.2943,-4.4164,-4.4745,-4.4709,-4.4974,-4.5104,-4.5104,-4.5066,-4.5221,-4.5526,-4.5465,-4.5603,-4.576,-4.5004,-4.4492,-4.4143,-4.3483,-4.3448,-4.3373,-4.0978,-3.905,-3.7275,-3.4649,-3.1662,-2.8911,-2.7883,-2.6495,-2.5475,-2.6084,-2.5975,-2.5445,-2.4178,-2.4773,-2.6023,-2.7019,-2.7538,-2.8162,-2.9489,-2.9794,-2.9936,-3.047,-3.0568,-3.1148,-3.2793,-3.3109,-3.3503,-3.4713,-3.4906,-3.5217,-3.6104,-3.5419,-3.5006,-3.5359,-3.7106,-3.9464,-4.2364,-4.2316,-4.2934,-4.4911,-4.2106,-4.0518,-4.0791,-3.4534,-2.4813,-1.146,-0.2626,0.148,0.0948,1.8294,3.0646,3.7986,3.8611,3.8233,-1.5291,-1.6875,-1.8814,0.0,0.0,0.0,0.0,0.0,0.0,0.0,0.0,-3.3097,-3.3865,0.0,0.0,-3.4992,-3.6289,-3.721,-3.721,-3.7614,-3.7755,-3.7285,-3.8294,-3.8923,-3.8724,-3.9355,-4.0179,-4.1115,-4.1192,-4.1064,-4.0815,-4.0801,-4.0583,-4.012,-4.0883,-4.1513,-4.1989,-4.2777,-4.3239,-4.3371,-4.3511,-4.3506,-4.3402,-4.3391,-4.3391,-4.3391,-4.3391,-4.3897,-4.4699,-4.4691,-4.5149,-4.5871,-4.5796,-4.5584,-4.5186,-4.445,-4.397,-4.3602,-4.3004,-4.11,-3.8935,-3.8918,-3.6413,-3.3202,-3.2528,-3.1595,-3.0637,-3.0063,-2.9015,-2.8555,-3.0316,-2.8672,-2.6554,-2.6554,-2.736,-2.8493,-2.9599,-2.9856,-3.0304,-3.2031,-3.2345,-3.2862,-3.4649,-3.4906,-3.4906,-3.497,-3.497,-3.598,-3.8774,-3.6677,-3.535,-3.6446,-3.6526,-3.6955,-3.7961,-3.7119,-3.8193,-4.1957,-3.8647,-3.779,-4.0667,-3.7252,-3.5375,-3.5481,-1.2324,0.0737,0.2852,0.0992,1.2123,3.5166,3.5339,3.4744,-1.564,-1.7869,0.0,0.0,0.0,0.0,0.0,0.0,0.0,0.0,0.0,-3.5631,-3.5897,0.0,0.0,-3.6324,-3.7388,-3.8252,-3.8252,-3.8542,-3.8696,-3.8559,-3.9064,-3.9413,-3.9357,-3.9535,-3.9765,-4.0046,-4.0283,-4.0407,-4.0302,-4.0482,-4.0572,-4.0507,-4.0754,-4.0979,-4.1158,-4.1396,-4.1527,-4.1579,-4.1613,-4.2302,-4.353,-4.3591,-4.3618,-4.3618,-4.3559,-4.37,-4.3987,-4.3955,-4.4071,-4.4265,-4.4152,-4.4051,-4.3938,-4.3618,-4.3444,-4.3224,-4.2333,-4.1534,-4.0811,-4.0524,-3.8576,-3.6383,-3.6552,-3.523,-3.3604,-3.3436,-3.3135,-3.2845,-3.2621,-3.2457,-3.2236,-3.1436,-3.2068,-3.297,-3.33,-3.3397,-3.3518,-3.401,-3.4142,-3.4649,-3.6438,-3.6707,-3.715,-3.8368,-3.8564,-3.8875,-3.9681,-3.9082,-3.8674,-3.8972,-3.9021,-3.9439,-4.0455,-4.0277,-4.0898,-4.2774,-4.0058,-3.8464,-3.8839,-3.7161,-3.4792,-3.1552,-2.6313,-1.5562,0.0832,0.161,0.4925,1.0901,2.5677,3.2407,-1.7778,-2.0243,0.0,0.0,0.0,0.0,0.0,0.0,0.0,0.0,0.0,-3.7126,-3.7503,-3.7509,0.0,-3.7535,-3.8186,-3.875,-3.8826,-3.8999,-3.9133,-3.9289,-3.9481,-3.9645,-3.9775,-3.9797,-3.984,-3.9964,-4.0196,-4.0326,-4.0326,-4.0521,-4.0658,-4.0735,-4.0745,-4.0754,-4.0791,-4.0799,-4.0808,-4.0795,-4.0788,-4.1392,-4.2494,-4.2537,-4.2587,-4.2656,-4.2988,-4.3146,-4.3219,-4.3515,-4.3633,-4.3632,-4.3517,-4.3479,-4.3449,-4.3331,-4.325,-4.3109,-4.2504,-4.2033,-4.1675,-4.1434,-4.0363,-3.9042,-3.832,-3.7502,-3.6552,-3.5243,-3.5213,-3.5538,-3.5385,-3.596,-3.6051,-3.3805,-3.4097,-3.4906,-3.4906,-3.4906,-3.5097,-3.5799,-3.5922,-3.6513,-3.8241,-3.851,-3.8884,-3.9935,-4.0442,-4.0561,-4.0172,-4.0442,-4.0679,-4.0679,-4.0679,-4.1095,-4.2126,-4.207,-4.2329,-4.3162,-4.0441,-3.8695,-3.8432,-3.617,-3.3607,-3.0879,-3.1675,-2.5388,-1.1791,-0.2703,0.1526,0.1434,1.336,2.2848,-2.0608,0.0,0.0,0.0,0.0,0.0,0.0,0.0,0.0,-3.7312,0.0,-3.7734,-3.856,-3.8113,-3.7886,-3.8621,-3.8762,-3.8873,-3.9099,-3.916,-3.9289,-3.9599,-3.9668,-3.9819,-4.012,-4.0158,-4.0251,-4.0508,-4.0639,-4.0712,-4.0703,-4.0761,-4.0804,-4.0812,-4.081,-4.0808,-4.0815,-4.0815,-4.0801,-4.0788,-4.0797,-4.0773,-4.077,-4.0779,-4.0875,-4.1033,-4.1873,-4.2265,-4.2324,-4.3125,-4.3457,-4.3476,-4.3418,-4.3379,-4.3378,-4.3234,-4.3098,-4.2973,-4.298,-4.2354,-4.1604,-4.1655,-4.1595,-4.1028,-3.8633,-3.886,-3.9267,-3.6348,-3.6274,-3.7302,-3.8424,-3.8975,-3.838,-3.4783,-3.4711,-3.5491,-3.5412,-3.5271,-3.5707,-3.7396,-3.76,-3.8042,-3.98,-4.007,-4.007,-4.007,-4.0866,-4.1103,-4.0222,-4.0916,-4.156,-4.156,-4.1593,-4.2001,-4.3007,-4.2643,-4.2568,-4.2957,-4.0186,-3.8761,-3.9188,-3.4942,-3.2471,-3.2274,-3.0788,-2.9961,-2.9738,-1.1605,-0.0916,0.2616,0.0633,0.8677,-1.9092,-2.1695,0.0,0.0,0.0,0.0,0.0,0.0,0.0,-3.7184,-3.7507,-3.7734,-3.856,-3.8736,-3.8804,-3.899,-3.9249,-3.9427,-3.9462,-3.9731,-3.9901,-3.9982,-4.0176,-4.0336,-4.0406,-4.0502,-4.0592,-4.0658,-4.0735,-4.0789,-4.0772,-4.0781,-4.0843,-4.0943,-4.0851,-4.086,-4.0951,-4.0854,-4.0778,-4.0717,-4.0723,-4.0677,-4.0581,-4.0728,-4.0815,-4.0857,-4.1058,-4.1195,-4.1328,-4.1504,-4.1641,-4.1738,-4.1719,-4.1719,-4.1699,-4.1577,-4.1437,-4.1315,-4.1263,-4.1037,-4.0823,-4.1261,-4.1062,-4.0624,-4.0478,-4.0775,-4.1053,-4.0339,-4.0295,-4.0485,-4.076,-4.038,-3.9699,-3.8854,-3.948,-4.0089,-3.9185,-3.8275,-3.7997,-3.9304,-3.8439,-3.8042,-3.98,-4.007,-4.007,-4.007,-4.0256,-4.0358,-4.0155,-4.0651,-4.1039,-4.1039,-4.1485,-4.1842,-4.2062,-4.1572,-4.1308,-4.1393,-4.0372,-3.9782,-3.9895,-3.6305,-3.3691,-3.2345,-3.1947,-3.1099,-2.9821,-2.5456,-1.5144,0.0559,-0.1568,0.0464,0.0,0.0,0.0,0.0,0.0,0.0,0.0,0.0,-3.5018,-3.6433,-3.6922,-3.7294,-3.7838,-3.8364,-3.8715,-3.8715,-3.9199,-3.9645,-3.9819,-4.0002,-4.0158,-4.0363,-4.0502,-4.062,-4.0639,-4.0716,-4.0725,-4.0699,-4.0746,-4.0792,-4.0754,-4.0773,-4.0834,-4.089,-4.0837,-4.0809,-4.0866,-4.0793,-4.0696,-4.06,-4.06,-4.0581,-4.0508,-4.0677,-4.0742,-4.0754,-4.0792,-4.084,-4.0909,-4.0965,-4.1035,-4.1113,-4.1172,-4.1191,-4.1191,-4.1113,-4.0968,-4.0807,-4.077,-4.0639,-4.055,-4.082,-4.0998,-4.1045,-4.0879,-4.1128,-4.1483,-4.1589,-4.1542,-4.1564,-4.1832,-4.1609,-4.1213,-4.0625,-4.072,-4.0814,-4.0204,-3.9631,-3.9376,-3.9969,-3.9354,-3.9023,-3.9935,-3.9423,-3.8564,-3.7729,-3.8313,-3.8974,-3.9239,-4.0229,-4.0995,-4.1313,-4.1621,-4.181,-4.181,-4.1768,-4.1621,-4.1358,-4.1059,-4.0767,-4.048,-3.8482,-3.6573,-3.4842,-3.3943,-3.2693,-3.0958,-2.945,-2.3402,-1.3006,-0.5344,-0.114,0.0,0.0,0.0,0.0,0.0,0.0,0.0,0.0,-3.4398,-3.5524,-3.6175,-3.667,-3.7017,-3.7694,-3.8153,-3.8153,-3.8823,-3.9404,-3.97,-3.9757,-3.9887,-4.0242,-4.0414,-4.0524,-4.0572,-4.0688,-4.0771,-4.0702,-4.0754,-4.0782,-4.0723,-4.0779,-4.08,-4.08,-4.08,-4.0757,-4.0696,-4.0677,-4.062,-4.0489,-4.0489,-4.0489,-4.0489,-4.062,-4.0677,-4.0677,-4.0716,-4.0754,-4.0781,-4.0916,-4.0965,-4.0973,-4.1132,-4.1191,-4.1172,-4.1191,-4.1035,-4.0836,-4.0835,-4.0696,-4.0543,-4.0543,-4.1008,-4.1426,-4.0661,-4.0871,-4.1405,-4.1598,-4.1577,-4.1615,-4.2048,-4.2214,-4.1997,-4.1013,-4.04,-4.007,-4.007,-3.9969,-3.9868,-4.0054,-4.007,-4.007,-4.007,-3.89,-3.747,-3.5999,-3.7102,-3.8275,-3.8764,-4.0237,-4.1402,-4.1895,-4.2062,-4.2085,-4.2085,-4.248,-4.244,-4.1853,-4.181,-4.149,-4.078,-4.04,-3.9493,-3.7987,-3.6257,-3.4454,-3.2723,-2.9794,-2.8028,-2.6834,-1.1508,-0.2766,0.0,0.0,0.0,0.0,0.0,0.0,0.0,0.0,-3.3826,0.0,-3.5627,-3.6211,-3.6968,-3.739,-3.7605,-3.7605,-3.7938,-3.8258,-3.8351,-3.837,-3.8428,-3.8597,-3.9286,-3.9694,-3.9593,-4.032,-4.0775,-4.0703,-4.0757,-4.0803,-4.0783,-4.08,-4.0791,-4.0791,-4.0733,-4.0703,-4.0696,-4.0581,-4.0508,-4.0489,-4.0489,-4.0489,-4.0489,-4.0508,-4.0543,-4.0543,-4.0543,-4.062,-4.0716,-4.0814,-4.0837,-4.0851,-4.1105,-4.1133,-4.1035,-4.1152,-4.1093,-4.0962,-4.097,-4.0831,-4.0677,-4.0677,-4.0677,-4.0662,-4.0521,-4.1065,-4.174,-4.1761,-4.168,-4.1586,-4.1659,-4.1055,-4.0385,-4.0254,-4.0171,-4.007,-4.007,-3.9291,-3.8933,-3.9902,-4.007,-4.007,-4.007,-3.9935,-3.968,-3.9423,-4.0017,-4.0487,-4.0582,-4.1672,-4.248,-4.2577,-4.2995,-4.3267,-4.3267,-4.2939,-4.244,-4.1853,-4.181,-4.1331,-4.0254,-4.0577,-4.0446,-3.9749,-3.8042,-3.6318,-3.4519,-3.2598,-2.9615,-2.5619,-2.3178,-1.4126,-1.717,0.0,0.0,0.0,0.0,0.0,0.0,0.0,-3.3802,-3.445,-3.5165,-3.577,-3.6134,-3.6676,-3.7048,-3.7048,-3.7583,-3.8027,-3.8089,-3.8108,-3.8151,-3.8288,-3.8633,-3.8858,-3.8798,-3.9163,-3.9377,-3.9299,-3.9328,-3.9311,-3.9253,-3.9219,-3.9219,-3.9219,-3.92,-3.9346,-3.9635,-3.9578,-3.9698,-4.0004,-4.0176,-4.0286,-4.0267,-4.0422,-4.0489,-4.0489,-4.0489,-4.0543,-4.06,-4.0696,-4.0733,-4.0771,-4.0993,-4.1047,-4.1016,-4.1152,-4.1113,-4.0995,-4.1003,-4.0869,-4.0694,-4.0703,-4.062,-4.0489,-4.0489,-4.0457,-4.0597,-4.1539,-4.1306,-4.0996,-4.2106,-4.1524,-4.0692,-4.0861,-4.0477,-4.007,-4.007,-3.9716,-3.9478,-3.9986,-4.007,-3.98,-3.883,-3.8635,-3.8313,-3.7339,-3.8199,-3.9225,-3.9856,-4.1253,-4.2422,-4.3087,-4.3375,-4.3497,-4.3497,-4.3286,-4.305,-4.2772,-4.2462,-4.208,-4.1569,-4.0237,-3.9815,-4.0528,-3.9511,-3.76,-3.4906,-3.3509,-3.0836,-2.6885,-2.4999,-2.0128,0.0,0.0,0.0,0.0,0.0,0.0,0.0,0.0,-3.3111,0.0,-3.4391,-3.4911,-3.5141,-3.5853,-3.6411,-3.643,-3.6969,-3.743,-3.7531,-3.7507,-3.7537,-3.7667,-3.7867,-3.7956,-3.7953,-3.8143,-3.8234,-3.8157,-3.8157,-3.8118,-3.8007,-3.8007,-3.8007,-3.8007,-3.8007,-3.815,-3.8499,-3.8632,-3.8931,-3.9432,-3.9868,-4.0139,-4.0195,-4.0406,-4.0489,-4.0489,-4.0489,-4.0489,-4.0508,-4.0639,-4.0684,-4.066,-4.0868,-4.0956,-4.0969,-4.1093,-4.1113,-4.1055,-4.1055,-4.091,-4.0731,-4.0728,-4.062,-4.0489,-4.0489,-4.0098,-3.9868,-4.1138,-4.0853,-4.051,-4.1952,-4.1604,-4.0921,-4.1126,-4.0631,-4.007,-4.007,-3.9749,-3.9423,-3.9423,-3.9076,-3.8384,-3.7076,-3.7208,-3.7091,-3.5738,-3.7144,-3.8672,-3.9525,-4.1051,-4.2364,-4.3214,-4.341,-4.3497,-4.3497,-4.3497,-4.3444,-4.3304,-4.2939,-4.2577,-4.2262,-4.0182,-3.9345,-4.0031,-3.9631,-3.817,-3.5552,-3.3849,-3.1544,-2.8675,-2.5421,-2.3612,0.0,0.0,0.0,0.0,0.0,0.0,0.0,0.0,0.0,-3.2641,-3.3006,-3.3295,-3.4122,-3.4988,-3.5584,-3.5661,-3.5699,-3.5795,-3.5988,-3.5898,-3.5876,-3.6014,-3.6646,-3.7038,-3.6978,-3.7714,-3.8157,-3.8027,-3.8007,-3.8007,-3.8007,-3.8007,-3.8007,-3.8007,-3.8007,-3.7897,-3.7677,-3.8167,-3.8584,-3.8937,-3.9719,-4.0232,-4.0473,-4.0489,-4.0489,-4.0489,-4.0489,-4.0489,-4.0508,-4.0639,-4.062,-4.0539,-4.0735,-4.0815,-4.0838,-4.0969,-4.1094,-4.1191,-4.1191,-4.1023,-4.0799,-4.0795,-4.0658,-4.0489,-4.0489,-4.0454,-4.0473,-4.0546,-4.0481,-4.0408,-4.0508,-4.0408,-4.0235,-4.0246,-4.0158,-4.007,-4.007,-3.883,-3.7657,-3.7657,-3.6318,-3.516,-3.5033,-3.6378,-3.747,-3.7396,-3.9292,-4.0728,-4.0804,-4.1877,-4.2655,-4.275,-4.3214,-4.3497,-4.3497,-4.3497,-4.3286,-4.277,-4.2711,-4.2162,-4.1041,-4.0839,-3.9799,-3.7697,-3.7657,-3.7543,-3.7339,-3.3995,-3.1765,-3.0498,-2.769,-2.5137,0.0,0.0,0.0,0.0,0.0,0.0,-2.7412,-2.919,-3.0571,-3.1237,-3.2179,-3.3006,-3.3314,-3.4083,-3.4872,-3.5507,-3.5603,-3.5639,-3.5761,-3.573,-3.5708,-3.5701,-3.593,-3.6065,-3.6012,-3.6121,-3.6259,-3.6397,-3.6236,-3.6201,-3.6378,-3.6411,-3.6411,-3.6411,-3.6236,-3.6176,-3.6246,-3.6783,-3.7212,-3.7506,-3.8518,-3.9164,-3.9428,-4.0156,-4.0489,-4.0489,-4.0489,-4.0489,-4.0489,-4.0562,-4.0543,-4.0508,-4.0677,-4.0766,-4.082,-4.0952,-4.1074,-4.1191,-4.1191,-4.1071,-4.091,-4.0836,-4.0716,-4.062,-4.0543,-4.0489,-4.0489,-4.0489,-4.049,-4.0596,-4.1151,-4.1237,-4.1134,-4.1047,-4.0579,-4.007,-4.007,-3.876,-3.747,-3.747,-3.6121,-3.4906,-3.4906,-3.5412,-3.6181,-3.7339,-3.8215,-3.9241,-4.0728,-4.1268,-4.1853,-4.2616,-4.2864,-4.3142,-4.3479,-4.3497,-4.341,-4.3214,-4.2902,-4.2519,-4.2062,-4.0281,-3.9413,-3.9699,-3.6028,-3.4142,-3.4142,-3.2917,-3.1541,-3.0024,-2.6793,-2.4862,-1.2566,0.0,0.0,0.0,0.0,-2.2602,-2.586,0.0,-2.8544,-2.9475,-3.0717,-3.1718,-3.2006,-3.2795,-3.3686,-3.4634,-3.4789,-3.4821,-3.4881,-3.5084,-3.5217,-3.5175,-3.5411,-3.5518,-3.5369,-3.5207,-3.5138,-3.5223,-3.507,-3.5034,-3.5223,-3.5304,-3.5369,-3.5369,-3.4997,-3.4879,-3.5056,-3.5703,-3.6163,-3.6433,-3.7543,-3.8251,-3.855,-3.933,-3.9662,-3.9681,-3.9969,-4.0239,-4.0489,-4.0489,-4.0489,-4.0508,-4.06,-4.0696,-4.0771,-4.0889,-4.1029,-4.1133,-4.1172,-4.1113,-4.0992,-4.091,-4.0797,-4.0716,-4.06,-4.0581,-4.0562,-4.0508,-4.0489,-4.0623,-4.12,-4.1529,-4.167,-4.1515,-4.1021,-4.0477,-4.0154,-3.876,-3.7339,-3.6766,-3.5223,-3.3825,-3.326,-3.4142,-3.5286,-3.6438,-3.76,-3.8941,-4.0446,-4.078,-4.1251,-4.2302,-4.2577,-4.2902,-4.3444,-4.3321,-4.3214,-4.3214,-4.2541,-4.208,-4.208,-4.0058,-3.9207,-3.9749,-3.6028,-3.3436,-3.2274,-3.1712,-3.0891,-2.9714,-2.6699,-2.4376,0.0,0.0,0.0,0.0,0.0,0.0,-2.4879,0.0,-2.4774,-2.7388,-2.8494,-2.9256,-3.016,-3.1071,-3.2,-3.2954,-3.3155,-3.3229,-3.3285,-3.3853,-3.427,-3.427,-3.4949,-3.5326,-3.5083,-3.5049,-3.4962,-3.4714,-3.4694,-3.4694,-3.4694,-3.4944,-3.5088,-3.5069,-3.451,-3.42,-3.4176,-3.5038,-3.5595,-3.5886,-3.6958,-3.7632,-3.7969,-3.7988,-3.8007,-3.8046,-3.8892,-3.9719,-4.0469,-4.0489,-4.0489,-4.0489,-4.0489,-4.0581,-4.0703,-4.0781,-4.0881,-4.1016,-4.1152,-4.1113,-4.1016,-4.0996,-4.0915,-4.0785,-4.0712,-4.0696,-4.0677,-4.0543,-4.0489,-4.0508,-4.0527,-4.111,-4.1633,-4.1518,-4.1474,-4.12,-4.0302,-3.876,-3.7076,-3.5301,-3.3571,-3.1843,-3.0254,-3.2681,-3.4906,-3.497,-3.7858,-4.007,-4.007,-4.0528,-4.1133,-4.1707,-4.2302,-4.2902,-4.3444,-4.3014,-4.2711,-4.2711,-4.1578,-4.0903,-4.0903,-4.0368,-3.9285,-3.76,-3.7543,-3.5799,-3.2345,-3.0693,-2.9856,-2.9714,-2.7464,-2.3937,-1.1476,0.0,0.0,0.0,0.0,0.0,0.0,0.0,-2.2966,-2.5572,-2.6245,-2.6813,-2.8313,-2.8875,-2.9421,-3.0313,-3.1999,-3.3209,-3.3227,-3.3352,-3.3404,-3.3295,-3.3487,-3.3752,-3.411,-3.3978,-3.4093,0.0,-3.4486,-3.4445,-3.4674,-3.4754,-3.4695,-3.4449,-3.4292,-3.4099,-3.3928,-3.434,-3.4735,-3.5054,-3.6121,-3.6788,-3.7084,-3.7719,-3.8007,-3.8007,-3.8257,-3.8834,-3.9681,-4.0258,-4.0489,-4.0489,-4.0489,-4.0581,-4.0712,-4.0775,-4.0887,-4.1016,-4.1152,-4.1172,-4.1133,-4.1035,-4.0967,-4.0911,-4.0818,-4.0752,-4.0696,-4.0658,-4.0581,-4.0642,-4.1277,-4.111,-4.09,-4.1423,-4.1053,-4.049,-4.0182,-3.9732,-3.8884,-3.715,-3.5349,-3.401,-3.3585,-3.4273,-3.5349,-3.6573,-3.76,-3.8689,-3.9935,-4.0254,-4.0546,-4.1087,-4.1664,-4.2302,-4.2864,-4.3142,-4.3087,-4.2732,-4.1979,-4.1358,-4.0903,-4.0368,-3.9868,-3.9406,-3.8114,-3.6378,-3.4208,-3.2415,-3.1027,-2.9702,-2.6606,-2.265,0.0,0.0,0.0,0.0,0.0,0.0,-2.0622,-2.0905,-2.1339,0.0,-2.5139,-2.5755,-2.7101,-2.7753,-2.827,-2.8774,-3.0107,-3.1317,-3.2025,-3.2358,-3.2499,-3.241,-3.2699,-3.2971,-3.3118,-3.2996,-3.3029,-3.3306,-3.3143,-3.3315,-3.3961,-3.4188,-3.4284,-3.42,-3.4074,-3.3961,-3.3788,-3.4213,-3.4508,-3.4713,-3.5545,-3.6044,-3.6219,-3.6738,-3.6969,-3.6988,-3.7315,-3.7757,-3.8277,-3.9104,-3.9873,-4.0489,-4.0489,-4.0581,-4.0716,-4.0773,-4.0878,-4.1025,-4.1146,-4.1191,-4.1191,-4.1113,-4.1074,-4.1054,-4.0922,-4.0849,-4.0812,-4.0754,-4.0677,-4.0758,-4.1585,-4.1379,-4.12,-4.1996,-4.1779,-4.1251,-4.0774,-4.0694,-4.0063,-3.7922,-3.6692,-3.5738,-3.5033,-3.5474,-3.6318,-3.7339,-3.8114,-3.8954,-3.9952,-4.007,-4.0417,-4.1178,-4.1578,-4.2021,-4.2655,-4.2752,-4.2562,-4.1979,-4.142,-4.0938,-4.0577,-4.0254,-4.007,-4.007,-3.9093,-3.7729,-3.5999,-3.3503,-3.0969,-2.8371,-2.581,-2.264,0.0,0.0,0.0,0.0,0.0,0.0,-2.1168,-2.047,-1.9841,0.0,-2.4107,-2.4832,-2.5736,-2.6717,-2.7412,-2.7524,-2.7676,-2.8385,-3.0089,-3.0871,-3.1314,-3.141,-3.2045,-3.2374,-3.2089,-3.2053,-3.1875,-3.1415,-3.1384,-3.1826,-3.2753,-3.3357,-3.3773,-3.3998,-3.3873,-3.3815,-3.3842,-3.4398,-3.4714,-3.4734,-3.5273,-3.5493,-3.5493,-3.5493,-3.5493,-3.5532,-3.6257,-3.6622,-3.6757,-3.7546,-3.8796,-4.0219,-4.0315,-4.0446,-4.0562,-4.0742,-4.0872,-4.1003,-4.1143,-4.1191,-4.1191,-4.1191,-4.1191,-4.1172,-4.1055,-4.1007,-4.0968,-4.0829,-4.0746,-4.085,-4.1508,-4.1681,-4.1833,-4.2532,-4.2781,-4.2614,-4.1704,-4.1564,-4.0884,-3.8443,-3.7866,-3.7281,-3.5738,-3.6766,-3.7802,-3.7802,-3.8954,-3.98,-3.98,-3.9612,-3.9935,-4.0913,-4.1076,-4.1419,-4.2154,-4.1806,-4.1332,-4.0949,-4.0449,-4.0171,-4.0121,-4.007,-4.007,-4.007,-3.9935,-3.9023,-3.747,-3.3862,-3.0284,-2.6733,-2.5322,-2.3458,-1.8278,0.0,0.0,0.0,0.0,0.0,-1.8766,-1.8309,-1.8357,0.0,-1.9576,-1.9677,-2.1235,-2.2258,-2.3116,-2.3872,-2.5078,-2.6553,-2.8336,-2.8621,-2.8871,-2.9525,-2.9737,-3.0196,-3.1071,-3.1148,-3.1218,-3.1379,-3.1384,-3.1507,-3.1704,-3.2419,-3.286,-3.2919,-3.3485,-3.3902,-3.4123,-3.4508,-3.4812,-3.5035,-3.5354,-3.5493,-3.5493,-3.5493,-3.5493,-3.5526,-3.568,-3.6103,-3.6719,-3.6892,-3.7565,-3.8565,-3.9258,-3.9546,-3.9668,-4.0497,-4.081,-4.0874,-4.1121,-4.1191,-4.1191,-4.1191,-4.1191,-4.1191,-4.1172,-4.1089,-4.0976,-4.0843,-4.0745,-4.0735,-4.0889,-4.0816,-4.0778,-4.0881,-4.1437,-4.1882,-4.1635,-4.1903,-4.1868,-4.0884,-4.0112,-3.9475,-3.9146,-3.9354,-3.9595,-3.9595,-3.8689,-3.7987,-3.7987,-3.6766,-3.6013,-3.6238,-3.6669,-3.7611,-3.911,-3.9557,-4.0079,-4.0822,-4.0827,-4.0528,-4.0121,-4.007,-4.007,-4.007,-3.8706,-3.7858,-3.747,-3.31,-3.0177,-2.8488,-2.5931,-2.3537,-2.0546,0.0,0.0,-2.0897,0.0,0.0,0.0,-1.8999,-1.8871,-2.06,-1.99,-1.9523,-2.1235,-2.1938,-2.2406,-2.2873,-2.4354,-2.562,-2.6081,-2.717,-2.8044,-2.8448,-2.8486,-2.8798,-2.958,-2.978,-3.0,-3.0354,-3.0654,-3.0797,-3.0797,-3.1568,-3.2192,-3.2596,-3.3117,-3.366,-3.42,-3.4675,-3.4963,-3.5105,-3.5369,-3.5493,-3.5493,-3.5493,-3.5493,-3.5493,-3.5493,-3.5738,-3.6103,-3.6103,-3.6372,-3.6892,-3.8142,-3.8988,-3.9503,-4.0024,-4.0544,-4.1023,-4.115,-4.1191,-4.1191,-4.1191,-4.1191,-4.1191,-4.1191,-4.1152,-4.1073,-4.0932,-4.0869,-4.0829,-4.0742,-4.0658,-4.0691,-4.1017,-4.1758,-4.2367,-4.2305,-4.2792,-4.2978,-4.2067,-4.152,-4.0965,-4.0237,-4.007,-3.98,-3.8954,-3.8042,-3.7208,-3.6318,-3.5427,-3.4988,-3.5322,-3.563,-3.6138,-3.7013,-3.8163,-3.8905,-3.9172,-4.0017,-4.0368,-4.0121,-4.007,-3.968,-3.883,-3.883,-3.7915,-3.6181,-3.2794,-3.0395,-2.8925,-2.6084,-2.3846,0.0,0.0,0.0,0.0,0.0,-2.1062,0.0,0.0,0.0,-2.1534,-2.0784,0.0,0.0,0.0,0.0,-2.1921,0.0,0.0,0.0,-2.5214,0.0,-2.7121,-2.7448,-2.7738,-2.7967,-2.7987,-2.8234,-2.8873,-2.9185,-2.9453,-2.9714,-3.0704,-3.1532,-3.2118,-3.2696,-3.3328,-3.405,-3.4756,-3.5122,-3.519,-3.5403,-3.5493,-3.5493,-3.5493,-3.5493,-3.5493,-3.5493,-3.5493,-3.5493,-3.5493,-3.5493,-3.5661,-3.7161,-3.8281,-3.9108,-3.9471,-4.016,-4.0938,-4.1131,-4.1191,-4.1191,-4.1191,-4.1191,-4.1191,-4.1191,-4.1187,-4.115,-4.1033,-4.0974,-4.0896,-4.0739,-4.0677,-4.0812,-4.1412,-4.222,-4.2886,-4.2997,-4.3542,-4.3746,-4.2774,-4.2484,-4.1912,-4.0511,-3.9986,-3.9235,-3.7713,-3.6959,-3.5999,-3.4584,-3.4156,-3.4069,-3.4588,-3.4622,-3.4763,-3.5123,-3.6393,-3.7189,-3.7001,-3.8313,-3.9268,-3.9612,-3.9935,-3.9285,-3.7527,-3.8884,-3.8059,-3.4906,-3.2588,-3.0565,-2.8925,-2.5931,-2.3963,0.0,0.0,0.0,0.0,-2.3283,0.0,0.0,0.0,-1.9812,-1.8542,0.0,0.0,0.0,0.0,0.0,0.0,0.0,0.0,-1.9788,-2.1194,-2.2876,-2.436,-2.5832,-2.668,-2.6561,-2.5593,-2.559,-2.7084,-2.6563,-2.6766,-2.8011,-2.9743,-3.0617,-3.0467,-3.2122,-3.316,-3.3486,-3.4564,-3.5223,-3.5446,-3.5493,-3.5493,-3.5493,-3.5493,-3.5493,-3.5493,-3.5493,-3.5493,-3.5493,-3.5493,-3.5493,-3.5603,-3.6488,-3.6993,-3.7401,-3.9005,-3.971,-4.0004,-4.0893,-4.1191,-4.1191,-4.1191,-4.1191,-4.1191,-4.1191,-4.1124,-4.1021,-4.1001,-4.0866,-4.0723,-4.0712,-4.062,-4.0527,-4.0623,-4.1316,-4.2165,-4.2921,-4.3257,-4.3423,-4.3509,-4.3065,-4.2266,-4.1041,-3.9564,-3.8356,-3.7625,-3.4842,-3.2793,-3.2598,-3.1269,-3.0443,-3.048,-3.0467,-3.1048,-3.257,-3.2889,-3.3595,-3.5097,-3.5349,-3.6181,-3.7729,-3.9285,-3.9285,-3.7527,-3.7657,-3.6825,-3.4906,-3.2124,-3.016,-2.8925,-2.5112,-2.3222,0.0,0.0,0.0,0.0,0.0,0.0,-2.0951,0.0,-2.0215,0.0,0.0,0.0,0.0,0.0,0.0,0.0,-1.9561,0.0,0.0,0.0,-2.137,0.0,0.0,0.0,-2.5573,-2.5017,-2.5311,-2.7107,-2.5888,-2.5959,-2.8054,-2.8896,-2.972,-3.0572,-3.1525,-3.2522,-3.3615,-3.4251,-3.4885,-3.5493,-3.5493,-3.5493,-3.5493,-3.5493,-3.5493,-3.5493,-3.5493,-3.5493,-3.5493,-3.5493,-3.5493,-3.5545,-3.5911,-3.643,-3.7068,-3.7904,-3.8888,-3.9889,-4.0306,-4.0781,-4.1191,-4.1191,-4.1191,-4.1191,-4.1191,-4.1166,-4.1093,-4.1021,-4.0927,-4.085,-4.0735,-4.0658,-4.06,-4.0508,-4.1162,-4.1912,-4.2277,-4.3004,-4.3583,-4.3472,-4.3466,-4.3122,-4.2126,-3.9939,-3.7954,-3.6722,-3.412,-3.1973,-3.0939,-3.0254,-2.9534,-2.8858,-2.9378,-2.9793,-2.9885,-3.1355,-3.2598,-3.3382,-3.5286,-3.6318,-3.5983,-3.7673,-3.7281,-3.4519,-3.4835,-3.3674,-3.0983,-2.9529,-2.7999,-2.6517,-2.4883,-2.3714,-2.5566,0.0,0.0,0.0,0.0,0.0,0.0,0.0,0.0,0.0,0.0,0.0,0.0,0.0,-1.9554,-1.9158,0.0,-1.9368,0.0,-1.8482,0.0,0.0,0.0,0.0,0.0,-2.3643,-2.399,-2.6308,-2.4755,-2.4888,-2.7587,-2.8218,-2.9047,-3.0186,-3.0915,-3.1882,-3.3102,-3.3599,-3.4276,-3.5141,-3.5141,-3.5276,-3.5493,-3.5493,-3.5493,-3.5493,-3.5493,-3.5493,-3.5493,-3.5493,-3.5526,-3.5545,-3.5603,-3.6078,-3.6747,-3.7088,-3.8191,-3.957,-3.9824,-4.0469,-4.1191,-4.1191,-4.1191,-4.1191,-4.1191,-4.1172,-4.1123,-4.0992,-4.0959,-4.0889,-4.0696,-4.0677,-4.0677,-4.0543,-4.0969,-4.1508,-4.1758,-4.268,-4.3425,-4.3328,-4.3671,-4.356,-4.221,-4.0105,-3.8002,-3.6063,-3.3798,-3.1712,-2.9985,-2.9534,-2.9028,-2.8176,-2.8858,-2.9028,-2.8176,-3.0276,-3.1581,-3.1581,-3.4134,-3.5398,-3.4906,-3.6121,-3.5614,-3.3055,-3.276,-3.1101,-2.8096,-2.7719,-2.6668,-2.4787,-2.4457,-2.3877,0.0,0.0,0.0,-2.3396,0.0,0.0,0.0,0.0,-2.1466,0.0,0.0,0.0,-2.2716,-2.2004,-2.0919,-1.935,-1.9114,0.0,0.0,0.0,0.0,0.0,0.0,0.0,0.0,-2.0516,-2.0365,-2.3683,-2.2418,-2.2837,-2.5906,-2.7804,-2.8692,-2.8489,-3.0307,-3.1344,-3.1382,-3.2428,-3.3372,-3.4237,-3.4237,-3.468,-3.5493,-3.5493,-3.5493,-3.5493,-3.5493,-3.5493,-3.5493,-3.5493,-3.5545,-3.5603,-3.568,-3.5795,-3.604,-3.6881,-3.7813,-3.8769,-3.9609,-4.0469,-4.1191,-4.1191,-4.1191,-4.1191,-4.1191,-4.1113,-4.0973,-4.0844,-4.08,-4.0754,-4.0562,-4.06,-4.0677,-4.0543,-4.0508,-4.0758,-4.1623,-4.2201,-4.2683,-4.3215,-4.3671,-4.3192,-4.0621,-3.9624,-3.8399,-3.615,-3.3798,-3.1712,-2.9985,-2.8858,-2.8176,-2.8096,-2.8096,-2.8176,-2.8096,-2.9172,-2.9856,-2.9856,-3.0533,-3.2096,-3.4763,-3.497,-3.4906,-3.4842,-3.2166,-2.9933,-2.8096,-2.8072,-2.6919,-2.4787,-2.3637,-2.3135,-2.5492,-2.5473,-2.5196,-2.4101,-2.3379,-2.2636,0.0,0.0,0.0,0.0,-2.2197,-2.2821,-2.2868,-2.2128,-2.1177,-2.0188,-1.9022,-1.7577,0.0,0.0,0.0,0.0,0.0,0.0,0.0,0.0,-2.0724,-2.2959,-2.2095,-2.2911,-2.6216,-2.7558,-2.8401,-2.8849,-3.0069,-3.0976,-3.1552,-3.1924,-3.2814,-3.4199,-3.4199,-3.4661,-3.5493,-3.5493,-3.5493,-3.5493,-3.5493,-3.5493,-3.5493,-3.5493,-3.5526,-3.554,-3.5612,-3.5698,-3.5812,-3.6253,-3.6972,-3.7949,-3.9394,-4.0469,-4.1191,-4.1191,-4.1191,-4.1191,-4.1191,-4.1172,-4.1093,-4.0965,-4.0935,-4.0896,-4.0681,-4.066,-4.0677,-4.0543,-4.0489,-4.0566,-4.0873,-4.1761,-4.2493,-4.2454,-4.3278,-4.3643,-4.2521,-4.0595,-3.8002,-3.458,-3.1487,-2.9334,-2.8743,-2.7695,-2.6789,-2.6025,-2.6625,-2.6707,-2.5942,-2.7602,-2.8688,-2.8688,-2.9984,-3.029,-2.9391,-3.0393,-3.0785,-3.0433,-2.8047,-2.7209,-2.8096,-2.6603,-2.5535,-2.4787,-2.4372,-2.38,-2.5466,-2.5428,-2.5211,-2.4459,-2.3815,-2.3064,-2.1924,-2.1874,-2.2049,-2.2017,-2.2686,-2.3394,-2.3694,-2.3037,-2.2026,-2.0683,-1.9245,-1.7618,0.0,-1.5334,0.0,0.0,0.0,0.0,0.0,0.0,-1.9561,-2.2139,-2.1273,0.0,0.0,-2.6813,-2.7813,-2.864,-2.9506,-3.0371,-3.1237,-3.1237,-3.1948,-3.3314,-3.3314,-3.391,-3.5045,-3.5045,-3.5218,-3.5493,-3.5493,-3.5493,-3.5493,-3.5493,-3.5526,-3.554,-3.5581,-3.563,-3.5724,-3.5903,-3.6738,-3.7969,-3.9394,-4.0469,-4.1191,-4.1191,-4.1191,-4.1191,-4.1191,-4.1191,-4.1172,-4.1035,-4.1033,-4.1014,-4.0801,-4.0732,-4.0716,-4.06,-4.0543,-4.0489,-4.0489,-4.132,-4.2055,-4.1995,-4.2697,-4.3008,-4.2127,-3.977,-3.7196,-3.4757,-3.1689,-2.9232,-2.8231,-2.7116,-2.587,-2.433,-2.483,-2.5072,-2.4724,-2.571,-2.664,-2.7441,-2.8162,-2.8234,-2.7392,-2.7842,-2.8234,-2.8433,-2.6041,-2.5703,-2.7522,-2.6119,-2.521,-2.4787,-2.521,-2.4553]}]]